GFSGL_sfc_30mbdewp_000.txt.gz
Dewpoint
28 31 29 26 27 25 25 27 28 30 32 31 32 33 33 32 30 29 27 28 27 27 27 27 27 28 28 29 30 30 30 29 27 27 29 31 31 32 33 34 37 39 42
29 30 29 27 25 24 26 27 27 27 26 26 27 27 27 27 28 27 26 24 23 22 23 24 24 24 25 27 28 28 28 29 28 26 26 27 28 31 33 32 32 35 39
31 28 26 23 22 26 26 26 25 24 24 25 24 24 26 26 25 25 23 22 22 22 23 24 25 26 26 27 27 26 27 28 28 28 28 30 31 31 31 32 32 32 35
30 25 23 23 24 27 26 26 25 25 25 24 25 27 27 26 24 23 23 24 24 23 24 24 24 24 24 24 24 24 25 25 26 26 25 26 28 30 30 29 29 31 31
28 26 29 31 31 29 27 29 32 28 27 27 26 24 23 23 22 26 25 24 23 23 23 23 23 24 25 26 25 24 23 22 21 20 20 20 21 22 24 28 31 32 33
36 37 36 34 34 34 36 34 32 29 26 22 20 20 20 21 28 26 26 24 23 22 22 22 22 22 22 22 23 24 24 23 22 22 21 21 21 22 23 24 29 30 28
38 38 38 38 37 35 34 33 28 22 20 18 17 18 21 23 24 25 25 23 23 24 23 23 22 22 22 22 23 24 24 25 25 24 23 22 22 24 24 24 28 29 28
37 37 36 36 34 30 25 22 18 17 16 16 18 21 22 22 25 23 24 24 24 24 24 24 24 24 24 24 24 24 24 24 24 24 24 25 25 26 26 24 24 24 26
23 23 23 23 20 19 17 16 16 16 16 16 20 23 24 23 24 22 22 22 22 24 25 25 25 24 24 24 26 26 24 26 26 26 27 26 26 27 28 26 26 25 24
22 21 21 21 19 17 17 16 16 15 17 22 23 22 22 21 22 21 21 22 24 23 23 23 23 23 24 25 24 25 24 25 25 25 25 27 28 28 29 29 29 25 25
20 21 20 21 20 19 16 15 16 18 20 20 19 19 19 20 21 21 21 22 24 23 23 23 23 24 25 26 26 26 25 25 26 27 26 26 26 27 27 29 30 29 27
21 21 22 22 21 17 16 16 18 20 18 17 18 18 19 19 21 22 21 21 23 24 24 25 26 26 27 28 28 27 26 27 27 27 26 25 25 26 27 27 28 30 30
22 22 23 23 20 17 17 18 18 18 18 18 19 19 19 21 21 22 21 22 25 26 26 25 25 23 23 26 26 27 27 27 26 25 24 23 26 27 27 28 28 29 29
22 22 24 22 20 19 20 18 18 17 18 20 19 20 21 20 19 20 23 26 25 27 24 23 21 22 21 21 23 23 24 25 26 25 24 24 24 26 28 27 27 28 27
22 23 23 22 19 20 20 19 19 20 21 19 19 22 20 18 20 25 24 25 27 26 25 20 19 19 19 19 20 21 23 25 26 26 26 25 25 25 26 27 27 28 27
22 22 21 22 21 19 19 20 21 22 20 19 20 22 21 21 24 23 24 25 24 24 21 20 17 18 18 19 18 19 21 22 24 25 24 24 24 25 26 28 28 27 25
23 23 23 22 21 18 19 19 17 18 18 20 19 19 19 22 22 22 22 23 22 21 20 19 18 18 18 18 18 18 18 20 23 23 27 27 26 27 28 26 26 25 23
23 22 22 21 18 18 18 17 16 16 15 16 19 18 19 21 20 20 20 18 17 17 18 18 17 18 19 18 17 17 18 19 19 20 21 24 25 25 24 24 24 22 21
24 19 18 20 19 18 17 15 17 15 15 16 16 16 18 18 19 18 16 14 14 14 15 15 16 16 17 18 18 18 17 17 18 18 18 19 21 23 22 22 21 21 20
22 21 21 20 21 21 18 17 18 15 15 16 15 16 16 16 14 14 13 13 12 13 13 13 14 14 15 15 17 18 17 17 17 17 17 17 18 18 19 20 19 19 18
21 22 20 20 22 20 17 17 17 15 15 16 15 16 16 14 13 13 12 12 11 11 11 11 12 12 13 14 15 16 17 17 17 17 16 16 16 16 17 16 16 17 17
21 23 22 20 21 18 18 16 16 15 15 15 15 15 15 14 13 12 12 12 12 12 11 10 10 11 11 12 13 14 15 17 17 16 15 16 15 15 16 16 16 16 15
24 22 21 21 19 17 17 16 16 16 14 15 14 13 13 12 12 13 12 12 11 11 10 9 8 9 10 11 12 13 14 15 18 17 15 15 15 16 15 15 15 15 15
23 22 22 21 18 17 16 17 15 17 15 14 14 13 12 12 12 12 13 12 12 10 9 9 8 8 8 9 10 12 13 14 15 15 15 15 15 15 15 16 16 15 15
24 24 22 20 19 15 15 15 14 16 15 13 13 13 13 13 12 12 12 12 11 9 9 9 8 8 7 8 8 9 9 10 10 12 11 10 11 12 12 12 13 15 15
25 24 22 20 19 17 15 14 13 15 14 14 13 13 13 12 12 12 11 10 10 10 9 8 8 8 8 8 8 7 7 7 8 8 9 9 8 7 7 8 9 9 10

GFSGL_sfc_30mbdewp_003.txt.gz
Dewpoint
31 32 32 32 29 29 29 30 32 35 33 31 30 30 34 36 35 34 31 29 28 27 26 24 24 25 26 27 29 30 29 29 27 26 27 30 30 28 29 33 36 36 38
33 33 32 30 29 26 28 29 29 26 26 26 27 27 28 28 28 28 26 25 24 22 22 23 23 24 25 26 27 28 28 29 29 28 28 28 29 32 33 32 32 34 34
34 32 29 26 25 26 27 27 26 24 24 24 24 23 25 27 26 25 24 23 23 24 24 25 25 26 26 26 27 27 26 26 27 26 26 30 30 31 30 32 32 31 31
35 30 24 22 24 26 26 29 32 31 27 26 25 26 27 25 23 23 23 24 23 23 23 22 22 23 23 23 23 24 24 24 25 25 24 24 27 28 28 28 28 29 28
37 31 31 30 30 31 36 36 33 30 28 29 27 23 22 22 22 25 24 23 22 21 22 23 22 23 22 23 24 24 25 24 23 22 20 19 19 21 23 23 23 25 29
37 37 37 37 37 37 36 35 34 35 34 26 21 20 20 22 29 26 26 25 23 22 21 21 22 22 22 22 21 22 23 22 22 21 21 20 20 21 21 21 22 23 23
37 37 37 37 38 37 36 36 36 27 22 19 19 21 23 24 25 26 24 24 23 23 23 23 23 22 23 22 23 23 24 24 25 24 23 22 21 21 23 24 24 24 24
31 26 26 27 27 27 23 21 19 18 18 18 20 23 23 24 25 24 24 23 22 23 23 23 24 24 24 23 23 23 23 23 24 24 24 24 25 25 24 24 24 24 24
24 25 24 23 21 20 19 18 17 16 17 20 24 23 21 21 22 21 21 21 21 22 23 23 23 23 23 23 23 24 24 23 25 25 25 26 25 26 27 26 26 25 23
27 25 22 21 21 20 18 16 17 18 21 22 20 19 20 20 21 21 21 22 23 22 22 21 22 23 23 23 23 24 23 23 23 23 25 26 28 28 28 28 29 25 24
22 22 22 22 22 19 17 17 19 20 19 17 17 18 19 20 21 21 21 22 22 22 22 22 24 24 24 25 27 27 26 25 25 24 24 27 26 26 27 28 29 29 27
21 22 22 23 21 18 18 19 19 18 17 18 18 18 19 19 21 21 21 21 22 23 23 25 25 23 23 22 23 26 26 28 26 25 25 25 26 26 26 27 28 29 29
22 21 23 23 20 19 19 18 18 17 18 18 20 19 19 20 20 20 20 22 24 25 26 22 20 20 20 21 21 23 24 25 24 23 23 24 24 25 25 26 28 29 30
21 21 23 22 20 20 19 19 19 18 18 20 19 18 19 18 18 19 23 24 24 26 25 24 19 19 19 20 21 21 22 23 23 23 24 24 25 26 27 28 27 27 27
22 22 22 22 21 20 18 20 20 21 21 18 18 20 18 17 19 23 23 23 25 25 22 21 19 17 16 17 18 18 19 21 22 23 24 25 24 25 25 26 27 26 25
22 23 22 22 22 21 18 19 20 20 20 19 19 18 19 20 22 22 23 24 24 22 21 18 16 16 16 16 16 16 17 18 19 21 23 23 23 23 23 24 26 26 25
23 23 22 21 21 19 18 18 14 16 17 18 18 17 17 19 21 21 21 21 21 18 17 16 16 15 16 17 16 15 15 17 18 19 21 24 25 24 24 24 25 26 25
22 21 19 19 20 20 17 16 14 15 13 14 16 16 17 19 19 19 18 17 14 15 15 15 14 14 14 15 15 15 14 15 16 16 17 19 20 22 23 23 24 23 21
24 18 19 21 19 18 18 14 16 15 13 14 13 14 16 17 17 16 15 12 11 12 12 13 13 13 13 13 14 15 15 14 14 14 15 16 17 21 20 19 20 20 20
22 21 20 19 20 20 16 16 16 15 14 14 12 14 15 14 12 12 12 11 10 10 10 11 11 12 12 12 12 13 15 15 14 14 14 14 15 16 16 18 18 17 17
21 22 21 19 20 20 16 15 15 14 13 13 13 14 15 13 12 11 11 10 10 9 9 9 9 10 10 11 12 12 13 14 15 13 14 13 13 14 15 15 15 16 16
21 23 22 19 19 17 17 15 15 14 13 13 12 13 13 12 12 12 11 10 10 10 10 9 8 9 10 10 10 11 12 13 14 13 13 13 13 13 14 14 14 14 14
22 21 19 20 18 17 15 15 15 14 14 13 12 12 12 11 11 11 11 11 10 9 9 8 7 7 8 9 10 11 11 11 12 13 13 13 13 13 13 13 14 14 13
22 22 21 20 17 16 14 15 13 14 14 12 12 11 11 11 11 11 11 10 9 9 8 7 7 7 7 7 8 9 9 11 10 10 10 11 12 12 12 14 14 14 14
23 23 22 18 18 17 13 13 13 13 14 12 12 12 12 11 11 11 11 11 10 8 8 7 7 7 7 6 6 6 6 7 7 8 8 7 7 8 8 10 10 12 12
25 24 23 20 19 17 14 13 12 12 13 13 12 12 11 11 11 11 10 9 9 8 8 7 7 7 7 7 6 5 4 4 5 5 6 6 5 5 4 4 5 6 7

GFSGL_sfc_30mbdewp_006.txt.gz
Dewpoint
33 34 34 34 33 31 30 31 32 36 35 31 31 31 31 34 35 35 35 33 30 28 27 25 24 25 25 26 27 28 28 29 27 26 28 28 29 30 29 29 34 34 35
35 35 34 31 27 28 28 30 31 27 26 25 25 26 27 27 28 28 27 26 24 23 22 23 24 24 25 26 27 27 28 28 27 26 29 29 29 31 32 32 31 32 33
35 36 30 26 24 27 28 30 31 31 28 27 26 27 28 27 27 25 24 23 23 24 24 24 24 24 23 23 23 24 24 25 26 26 25 27 27 30 29 30 31 32 32
37 34 32 30 28 33 36 35 34 33 31 31 31 29 28 25 23 23 23 24 23 22 22 21 21 21 21 21 21 21 22 23 23 23 23 23 26 27 28 26 26 29 27
37 36 35 36 36 36 36 36 36 35 35 36 35 29 23 22 21 24 24 23 22 22 21 22 21 21 21 21 22 22 23 24 24 24 23 22 22 22 23 23 23 23 25
37 37 37 38 37 36 36 36 35 35 35 37 32 21 21 23 27 26 27 25 24 23 22 21 21 22 23 23 23 23 23 22 22 21 21 20 20 19 19 20 21 21 20
33 28 28 29 30 31 33 34 32 26 22 19 19 22 23 24 26 25 24 25 24 23 22 22 22 22 22 23 23 23 23 23 23 24 24 23 22 21 21 23 23 22 21
27 29 29 28 23 22 21 19 19 18 17 18 21 24 22 20 22 21 22 22 22 22 22 22 22 23 23 23 23 24 24 24 23 22 23 23 24 24 23 23 23 24 25
30 30 28 23 22 21 20 18 17 17 18 22 23 20 19 19 21 21 21 21 21 21 22 23 23 22 23 23 24 24 24 23 24 24 24 26 25 25 25 25 25 24 22
25 22 22 22 22 21 18 17 18 19 21 19 18 19 19 19 20 21 21 21 22 23 22 22 21 22 24 26 25 25 23 23 24 25 24 23 25 27 28 27 27 24 23
22 22 22 22 22 19 18 19 19 19 18 17 17 19 19 19 20 21 20 21 23 22 22 22 23 26 22 21 22 22 23 24 26 27 26 25 26 26 28 28 29 28 25
22 21 21 23 21 19 19 18 18 18 17 17 18 18 18 18 21 19 19 21 23 24 23 24 25 22 20 20 21 22 22 23 24 24 25 24 24 24 26 26 27 28 27
22 21 21 22 21 19 19 18 18 19 18 18 20 18 18 19 18 18 19 22 24 24 25 26 24 20 19 19 20 21 22 22 21 22 23 23 24 25 28 28 29 28 28
21 21 22 21 21 19 19 18 19 19 19 19 18 17 18 18 17 18 23 23 23 25 24 23 22 20 18 18 19 19 20 21 21 21 23 24 26 26 26 27 26 27 27
22 22 23 22 22 21 21 18 20 21 20 19 17 18 18 17 18 22 22 22 24 23 23 21 17 16 15 16 16 16 17 18 19 20 21 22 24 25 25 26 27 26 25
22 23 23 22 21 22 19 19 20 19 19 17 17 17 17 18 20 21 21 22 22 21 19 16 15 14 13 15 15 14 15 16 17 18 20 22 23 23 23 24 25 25 24
22 23 21 20 20 20 20 18 17 15 17 16 17 16 15 17 20 19 19 19 19 17 15 14 13 13 13 14 14 14 13 14 16 16 17 18 20 23 23 23 24 25 25
22 20 19 20 19 19 17 18 15 15 14 12 14 15 15 16 18 18 16 15 13 13 13 13 12 12 13 12 12 12 13 13 13 13 15 16 16 19 19 21 22 22 21
25 23 17 19 18 18 17 15 14 15 14 12 13 12 14 14 14 15 14 11 10 10 11 11 11 11 11 12 12 11 12 13 13 12 13 13 14 17 20 18 19 19 20
23 21 19 19 19 19 17 15 15 15 14 13 12 12 13 12 11 11 11 10 10 9 9 9 10 10 10 11 11 12 12 12 13 12 12 12 12 14 14 16 15 16 16
22 21 22 20 19 18 16 16 15 14 14 13 12 12 13 12 11 11 10 9 9 8 8 8 8 9 10 10 10 10 11 11 12 12 11 12 11 13 13 14 15 15 15
22 22 21 19 19 17 16 15 14 14 14 12 12 11 12 11 11 11 10 10 9 9 9 8 7 8 8 8 9 9 9 10 10 11 11 11 12 12 12 13 13 13 13
22 22 19 20 18 16 16 13 14 13 13 12 11 11 11 10 10 10 10 8 9 8 8 7 7 6 7 7 7 8 8 8 8 8 10 10 11 11 12 12 12 12 12
22 22 21 20 17 16 15 13 12 12 13 12 11 11 11 11 10 10 10 10 8 7 7 7 7 6 6 5 6 6 6 7 7 7 6 7 8 9 10 11 12 12 12
23 23 22 20 19 18 16 14 12 11 12 12 11 11 11 11 11 10 10 9 8 7 7 7 6 7 7 6 5 3 2 4 4 5 6 4 4 4 5 6 7 9 9
24 24 23 21 19 17 16 15 13 10 11 12 11 11 11 10 11 10 11 10 9 8 8 8 7 6 6 7 6 4 1 1 3 2 3 4 3 3 3 3 3 4 5

GFSGL_sfc_30mbdewp_009.txt.gz
Dewpoint
36 36 37 35 31 28 30 32 34 37 34 31 29 30 31 32 31 32 33 32 30 29 29 28 26 26 24 24 24 22 21 21 19 18 20 22 23 23 23 24 26 26 27
36 37 35 30 27 29 31 31 32 30 29 29 30 33 34 33 30 29 28 26 24 22 21 23 21 20 23 24 24 24 24 23 22 20 20 21 24 24 25 27 27 28 30
37 37 33 31 30 35 36 36 36 35 34 35 35 37 35 30 26 25 24 24 24 23 24 24 24 23 21 21 21 20 20 20 20 19 18 19 20 22 22 23 24 26 27
38 36 35 34 35 36 36 36 36 35 34 35 35 34 35 32 25 21 22 23 24 23 24 23 21 21 20 19 18 18 18 18 18 18 17 17 18 18 20 21 21 23 24
37 37 37 37 37 37 33 32 33 32 32 34 34 32 24 23 21 25 25 24 24 23 23 21 20 20 21 21 20 19 19 19 19 18 18 18 19 20 21 21 21 22 23
37 31 29 29 29 29 30 30 31 28 24 22 21 21 23 23 27 28 27 24 23 21 20 20 19 20 20 21 23 23 23 21 19 19 18 17 17 17 18 18 19 19 18
29 28 28 30 26 23 22 21 20 20 20 19 20 23 23 22 21 22 22 20 20 20 19 18 18 18 20 21 21 21 22 23 23 22 21 21 20 20 20 20 21 20 19
28 30 30 26 22 22 21 20 19 19 19 19 22 21 19 17 20 20 21 20 21 20 19 19 19 20 21 21 21 21 21 22 22 22 22 21 20 20 20 22 22 21 22
28 27 23 23 22 21 20 19 19 19 19 20 18 18 17 18 19 20 21 20 20 20 20 21 20 20 21 23 23 23 23 20 20 22 23 25 26 25 24 23 24 23 22
25 23 22 22 21 20 20 19 19 19 18 18 17 18 19 19 19 20 19 19 19 19 20 20 21 23 24 26 25 24 22 19 19 24 24 23 25 27 28 28 26 24 21
23 22 21 21 21 21 19 19 18 17 20 21 21 21 21 19 19 19 18 19 21 21 21 20 23 26 26 23 22 21 21 21 22 23 22 22 24 26 25 23 27 27 24
23 22 21 21 21 19 19 18 17 18 20 20 20 19 18 19 18 18 18 20 21 23 21 24 26 24 22 20 20 21 22 22 22 22 22 22 23 24 24 23 23 25 28
23 22 21 22 21 20 18 19 18 19 20 18 17 16 15 16 17 17 19 21 20 22 25 24 22 22 20 18 19 20 21 21 21 21 21 23 26 26 27 29 28 27 28
22 22 22 22 22 22 21 21 19 20 19 18 17 16 15 14 15 17 20 19 20 24 24 23 21 21 18 17 18 19 20 20 20 20 21 23 25 26 26 26 26 26 27
22 22 23 24 23 22 22 20 20 21 19 18 16 15 16 15 17 20 20 20 22 22 22 20 18 17 15 15 16 17 18 18 19 20 21 23 24 25 24 26 25 26 25
22 23 24 23 22 20 19 19 20 20 20 17 17 16 16 16 19 19 19 20 20 20 18 16 15 15 15 15 15 15 16 17 17 18 20 21 23 24 24 24 24 24 24
24 24 23 22 21 20 20 19 18 18 18 16 16 15 15 15 18 18 18 18 18 17 15 14 14 14 14 14 14 14 15 16 17 17 18 19 21 24 25 24 24 24 24
24 23 23 22 21 21 21 19 18 17 16 15 15 14 14 14 15 15 15 15 13 13 13 13 12 13 13 13 13 14 15 16 16 16 17 18 19 22 22 23 24 24 24
25 23 23 22 22 21 20 19 18 17 16 15 14 12 13 13 12 13 13 12 11 10 11 12 12 12 12 13 14 14 15 15 16 16 16 17 17 19 20 21 22 21 22
24 22 21 22 21 20 20 18 17 17 15 15 13 13 12 11 11 11 11 11 10 10 10 10 11 11 12 12 13 14 14 15 15 15 16 17 17 18 18 19 20 20 20
24 23 22 21 21 21 19 18 17 17 16 15 14 14 13 11 11 10 10 9 7 6 7 8 9 11 11 12 12 13 12 13 14 14 15 16 17 17 17 18 19 19 18
24 23 23 21 21 20 19 18 17 16 15 15 14 13 12 12 11 10 9 8 8 8 8 8 8 9 10 10 11 12 12 12 12 13 15 16 16 16 17 17 17 17 17
24 24 23 22 20 19 20 18 17 16 15 15 14 13 12 12 11 11 9 9 8 8 8 8 8 7 8 9 9 10 10 11 11 11 12 14 15 15 16 16 15 15 15
24 24 23 23 21 20 20 19 17 14 14 15 15 14 13 12 12 11 10 10 9 9 8 8 8 7 7 7 7 7 7 9 10 10 10 11 12 13 14 14 15 14 14
24 24 24 23 22 21 19 19 18 16 15 16 15 14 13 13 12 12 12 12 11 10 9 8 8 7 8 7 7 6 4 4 5 7 10 10 9 10 10 11 12 13 12
24 24 24 24 22 21 20 19 19 18 16 16 16 15 14 13 11 12 12 12 11 10 8 8 8 7 7 6 5 6 5 4 4 3 9 9 8 8 9 8 9 10 10

GFSGL_sfc_30mbdewp_012.txt.gz
Dewpoint
37 36 35 34 32 32 32 32 33 34 31 30 30 32 36 38 38 37 34 30 27 25 24 22 20 20 20 19 20 21 20 19 16 16 16 17 19 21 22 23 23 23 25
35 34 34 33 32 32 33 33 34 34 33 32 36 37 38 38 36 32 30 27 23 22 21 20 18 16 19 19 19 19 19 19 19 17 17 17 18 20 21 23 23 22 22
33 32 32 33 33 33 34 34 34 34 34 37 37 36 37 35 33 30 28 25 23 22 20 19 19 20 20 19 19 19 18 17 17 16 16 16 17 18 18 20 21 22 22
33 32 31 34 35 35 32 31 30 30 31 31 30 29 27 24 22 21 21 21 21 20 21 22 22 21 20 19 18 17 16 16 15 15 15 15 15 16 17 17 17 19 20
33 32 31 31 29 28 27 26 25 25 22 21 20 20 21 21 20 25 23 21 20 20 20 20 20 20 21 22 20 18 17 16 16 15 15 15 15 16 17 18 19 20 21
31 30 29 27 27 25 24 22 20 17 18 19 19 19 20 19 23 22 23 19 18 17 17 17 17 18 18 20 21 22 22 21 20 19 19 19 18 18 18 19 21 21 20
30 28 27 27 26 23 20 16 16 17 19 19 19 20 20 19 21 21 21 18 17 18 18 17 16 14 17 18 21 23 23 22 24 22 20 20 19 20 20 21 22 22 21
28 27 27 25 23 19 16 16 17 18 18 18 19 19 18 17 20 20 20 19 19 19 18 17 16 16 18 21 20 20 21 22 23 24 24 21 20 20 21 21 21 22 24
27 26 25 23 21 16 16 17 18 18 18 18 18 18 18 19 20 20 20 19 18 18 18 19 20 21 21 23 24 24 22 22 22 23 25 23 24 25 25 23 26 23 23
25 26 24 22 19 16 18 19 20 18 17 19 21 21 21 20 20 19 18 18 20 21 20 21 22 23 24 25 26 24 21 19 20 22 20 22 30 25 26 25 26 24 22
24 25 24 22 18 18 19 20 20 19 20 24 25 23 23 21 18 18 18 19 21 21 20 21 21 27 26 24 23 21 22 23 20 22 22 21 22 24 25 28 28 27 24
28 27 24 21 19 19 20 20 20 20 20 23 23 22 19 20 16 17 17 19 22 22 21 22 27 23 23 21 20 21 21 21 23 24 25 24 25 24 24 26 26 26 27
29 25 22 21 21 21 21 21 20 19 22 21 18 18 15 15 15 18 20 21 20 21 24 24 23 22 22 21 22 21 21 24 23 22 23 24 26 27 28 30 29 26 26
26 22 22 22 22 22 22 21 19 20 22 18 16 14 14 14 15 17 19 19 20 23 22 25 23 22 23 23 21 21 22 22 21 22 22 23 26 27 28 28 27 28 27
21 21 22 23 23 22 21 19 19 21 20 17 15 14 15 15 16 19 20 19 21 21 21 22 20 19 20 19 18 18 19 20 21 22 23 24 23 25 27 25 25 26 26
22 22 24 25 24 23 19 19 21 20 19 17 16 16 15 15 17 18 18 19 19 20 20 18 17 17 18 18 16 17 19 19 19 21 23 23 23 24 26 27 25 25 26
26 26 25 24 23 21 21 20 18 18 19 18 17 15 14 15 15 15 16 17 18 18 16 16 16 16 17 17 16 17 17 18 20 20 21 21 22 23 26 27 27 26 24
27 25 24 23 23 22 21 20 19 18 16 15 16 13 13 13 13 14 14 16 15 15 15 14 14 15 16 15 15 16 17 18 18 18 19 19 20 21 22 23 25 26 26
23 23 25 25 23 22 22 20 19 17 15 15 12 11 13 13 14 14 13 14 13 13 13 13 14 14 13 13 15 15 18 17 17 19 18 18 19 21 20 21 23 24 25
21 24 24 23 22 20 20 19 18 17 15 15 12 12 12 13 13 13 13 12 11 9 10 10 11 12 13 14 14 14 13 15 16 17 18 19 19 21 20 19 20 20 21
22 22 23 22 20 20 20 19 18 17 15 14 13 14 12 13 12 12 10 8 8 7 8 8 10 11 12 12 12 13 13 13 14 15 17 18 20 19 20 19 19 19 18
23 24 22 21 21 20 20 19 18 18 16 15 14 13 14 14 12 12 10 9 9 8 8 9 9 9 10 11 12 12 12 12 13 13 15 18 18 19 20 18 18 19 18
22 24 23 22 22 21 21 21 20 19 17 16 15 13 13 14 13 12 11 10 9 9 9 8 9 8 8 10 10 11 11 12 13 13 13 13 14 15 18 17 16 17 16
23 23 23 23 23 21 21 20 21 20 18 17 16 15 13 13 13 13 13 13 11 10 9 9 8 8 8 8 9 8 7 9 11 12 13 11 11 13 14 13 14 14 15
24 25 24 24 23 21 21 21 21 21 20 18 17 16 13 13 11 12 13 14 13 10 8 9 9 7 7 7 7 7 7 7 7 7 12 10 10 10 11 11 12 12 13
23 24 24 24 24 23 21 21 20 21 20 19 17 16 15 13 12 12 12 11 11 10 8 8 8 8 8 6 5 6 6 6 7 7 10 8 8 8 9 9 9 10 10

GFSGL_sfc_30mbdewp_015.txt.gz
Dewpoint
34 34 33 33 33 31 31 31 34 33 33 33 33 35 37 36 36 37 38 36 36 32 29 28 26 25 22 21 20 22 23 22 20 20 20 20 22 23 21 25 24 26 26
33 31 29 29 30 30 32 33 33 34 33 34 37 38 35 35 36 36 35 32 31 30 30 28 26 22 20 19 19 18 18 18 18 17 18 19 20 21 23 24 22 21 23
30 28 27 28 30 32 33 31 29 29 28 28 30 32 31 30 24 21 21 23 22 23 23 21 20 20 19 19 19 19 18 17 17 16 16 17 18 19 19 21 22 24 22
27 28 27 28 29 30 29 28 25 23 21 19 18 18 19 18 19 18 21 20 20 19 19 19 19 19 20 19 19 19 17 17 16 16 16 16 16 16 18 18 19 21 21
27 27 26 27 27 28 27 24 22 19 17 16 17 17 18 18 18 22 21 19 19 18 18 18 18 19 22 21 18 18 18 18 17 16 16 16 16 16 16 17 19 21 22
26 25 25 26 28 28 24 21 16 15 16 18 18 18 18 17 23 23 22 19 17 17 17 17 17 19 19 22 24 24 21 18 18 18 18 18 17 19 20 21 22 22 22
24 23 24 28 28 25 22 16 15 16 17 18 17 18 17 18 21 22 22 20 18 18 18 18 17 15 17 16 18 23 24 25 25 21 20 19 20 21 21 22 22 22 23
23 25 27 27 26 22 20 15 16 16 17 17 17 18 19 19 23 22 21 19 18 18 18 17 17 16 17 20 21 22 22 21 23 25 25 22 21 21 21 21 22 23 25
22 20 23 26 26 21 18 16 17 17 17 16 18 21 21 22 22 23 20 19 18 18 18 20 20 20 22 22 23 23 21 21 23 24 26 26 26 26 26 23 23 26 25
23 20 22 23 23 22 18 18 18 17 16 19 22 22 23 22 24 21 21 19 19 20 19 18 21 23 24 26 26 27 24 21 20 22 23 21 26 27 28 27 24 22 22
23 23 27 31 27 21 18 18 17 17 20 26 27 25 23 24 21 20 20 19 18 22 20 21 22 27 25 24 24 23 22 24 21 21 21 22 23 22 23 27 28 26 24
30 31 33 32 26 21 19 18 18 18 21 23 25 24 21 23 20 20 20 19 22 21 21 22 27 23 22 22 23 23 23 21 22 23 25 26 27 26 25 25 27 32 30
32 33 32 26 25 20 20 18 18 19 21 23 19 19 18 18 18 17 18 19 20 21 24 23 24 25 24 23 26 23 23 24 26 24 24 25 27 28 27 27 29 31 32
27 26 25 22 22 21 18 17 17 20 21 19 17 15 16 17 15 16 19 20 19 21 21 22 25 24 24 26 26 25 25 25 23 24 24 25 26 26 28 30 28 27 28
24 22 21 21 21 21 20 19 19 21 20 17 15 15 16 15 15 17 19 19 20 20 21 24 21 20 20 22 22 23 24 22 23 23 24 25 26 25 29 29 25 26 27
24 22 23 24 24 24 20 19 22 21 19 18 17 17 15 14 15 16 16 17 19 19 21 19 18 19 19 19 20 20 20 20 20 21 23 24 24 24 27 28 26 24 24
25 24 23 23 24 22 22 22 20 21 23 20 18 16 14 13 14 14 15 15 20 18 17 17 17 17 18 18 18 18 18 20 20 21 22 22 23 24 26 26 28 27 25
24 23 26 25 24 24 23 22 21 21 20 18 22 15 14 15 14 13 14 15 16 16 16 16 16 17 14 13 14 16 18 19 19 21 21 22 22 24 24 24 26 23 24
21 23 25 26 26 24 24 23 22 21 19 17 17 14 13 14 20 19 15 15 14 14 14 14 15 12 13 14 15 17 18 18 19 19 20 22 21 22 22 22 23 24 22
20 23 23 24 25 24 22 22 21 20 18 16 17 16 13 13 15 15 15 13 10 9 9 9 10 12 13 13 14 15 16 16 16 17 19 21 22 21 22 21 22 21 22
21 24 24 22 25 22 21 23 21 21 19 17 17 19 13 13 15 15 14 12 10 9 9 10 10 11 11 11 11 13 13 15 14 14 16 19 20 20 21 21 21 21 20
21 25 26 25 23 24 23 21 22 21 21 19 18 18 16 19 15 14 14 13 12 10 10 10 10 9 9 11 11 11 11 11 12 14 14 16 17 17 20 20 19 20 19
23 24 25 25 25 24 24 24 24 23 21 20 19 17 17 14 15 15 15 15 14 11 11 10 10 9 9 10 10 10 8 9 10 13 14 14 13 13 16 15 16 15 17
23 24 24 24 26 24 24 24 24 23 22 21 21 20 18 15 14 15 17 16 15 14 11 11 10 8 8 9 9 9 8 9 9 9 13 14 11 11 12 12 13 13 13
26 25 25 25 26 25 24 23 24 24 24 22 22 21 18 16 14 13 14 14 15 13 11 10 10 9 9 8 7 7 7 7 8 9 12 11 10 10 12 10 11 12 11
25 24 25 26 25 26 25 23 23 23 23 23 22 21 19 16 14 14 13 13 12 11 10 9 9 9 9 8 7 7 6 6 6 9 11 9 8 8 8 9 9 9 9

GFSGL_sfc_30mbdewp_018.txt.gz
Dewpoint
34 34 33 33 33 34 36 35 35 35 33 35 35 37 37 36 36 36 37 36 35 33 34 34 34 32 30 29 27 31 33 31 29 28 25 23 25 28 25 26 27 26 29
33 31 30 31 31 33 33 34 33 32 32 31 30 30 31 33 34 35 32 33 32 31 30 30 30 28 26 25 24 23 24 23 22 21 21 21 21 22 23 24 24 23 24
30 28 28 29 30 31 31 33 32 30 28 26 23 22 21 22 22 22 22 25 23 22 22 23 23 23 23 23 23 23 23 21 22 21 20 20 20 20 20 21 21 22 25
28 27 27 29 29 29 30 30 29 27 24 21 21 21 22 21 21 23 23 23 23 21 21 21 21 21 22 22 23 23 21 21 20 19 19 18 19 19 20 19 20 22 21
28 26 27 28 28 29 30 30 27 25 20 21 20 22 22 21 21 23 22 22 21 20 20 20 20 21 23 22 19 19 20 19 20 20 19 20 20 20 21 23 23 24 25
28 28 27 27 28 29 30 29 26 21 20 21 21 21 21 19 23 24 24 22 22 21 20 19 21 22 21 21 22 22 21 19 18 18 18 18 19 20 21 22 23 22 22
30 28 27 30 29 29 29 25 23 20 21 21 22 21 22 24 24 25 24 22 20 20 20 20 20 19 21 21 22 23 28 28 26 22 23 22 20 20 21 21 22 24 24
24 24 27 28 30 28 27 24 21 21 21 21 21 23 23 22 25 25 24 22 20 20 20 18 19 21 21 22 22 23 23 24 24 25 27 27 25 24 24 27 28 28 26
21 27 30 32 26 28 27 26 21 21 21 22 23 24 24 24 25 26 29 23 22 20 19 21 21 20 21 23 25 25 25 24 23 24 29 28 28 27 28 27 24 23 21
27 31 32 33 34 34 34 28 21 22 22 27 27 27 26 25 25 25 26 23 22 21 21 21 21 22 27 25 25 25 24 23 22 22 24 23 22 22 26 28 27 24 22
28 30 31 33 35 34 31 23 22 22 24 27 27 27 25 24 24 24 24 23 22 20 20 20 21 25 27 26 23 23 23 24 24 22 22 21 22 23 24 25 26 28 26
26 28 31 36 36 29 25 23 22 21 24 25 24 23 23 23 21 20 24 18 18 21 20 22 25 21 25 23 24 24 25 24 23 23 23 24 27 28 30 29 28 30 30
26 27 29 29 27 27 24 20 19 21 23 22 21 20 18 19 19 19 17 16 18 20 23 22 23 25 24 25 25 27 26 24 24 24 24 25 27 27 27 28 28 31 32
25 25 24 23 23 22 22 20 21 22 23 21 19 18 17 18 17 17 19 20 19 20 20 21 24 23 23 24 25 26 26 26 24 25 24 26 28 28 27 28 31 28 28
26 25 26 26 26 25 22 21 22 24 20 19 19 18 18 16 15 15 17 18 20 21 20 23 20 20 19 20 21 22 24 23 23 23 24 25 25 25 25 28 29 25 26
25 25 25 25 26 24 23 22 23 22 21 20 18 17 18 16 15 14 15 15 18 19 20 19 18 18 18 19 19 19 21 22 22 23 23 23 23 24 25 27 30 27 26
24 24 23 25 27 25 25 24 23 24 24 24 21 19 18 16 15 14 15 15 21 19 17 17 17 17 16 15 16 19 19 21 21 22 23 23 22 23 26 25 26 26 25
24 23 27 28 28 26 23 22 25 24 22 22 24 22 15 15 15 18 17 15 15 17 16 16 16 17 15 15 15 17 18 20 19 19 21 22 22 23 24 23 24 25 25
22 22 22 23 26 25 24 26 25 23 22 22 20 20 16 14 16 19 17 16 14 12 12 13 14 14 15 15 16 16 17 18 18 17 18 21 22 23 22 23 23 23 23
21 22 23 23 25 26 25 24 24 24 22 22 20 21 17 13 17 17 17 17 13 12 12 12 13 14 14 14 14 15 15 15 15 16 16 18 21 22 22 22 23 23 22
22 24 26 26 23 26 24 25 25 24 23 22 21 21 13 13 18 17 16 16 14 12 12 12 13 13 13 13 13 13 13 13 13 14 14 16 18 18 21 22 21 22 20
22 22 25 27 27 26 26 23 23 25 24 24 23 21 18 17 18 17 17 17 16 13 13 12 13 12 12 12 13 12 11 10 10 11 12 14 16 15 17 18 19 16 19
21 25 25 25 26 27 26 25 25 25 25 24 22 22 22 20 17 16 17 17 17 17 14 12 12 11 11 11 12 12 11 10 10 11 10 11 15 13 15 15 15 16 13
23 25 25 25 26 26 26 25 26 25 25 25 24 23 22 21 17 16 16 17 16 16 16 12 12 11 10 11 10 10 9 9 9 10 10 13 14 13 13 13 12 14 12
26 27 26 26 26 26 26 26 26 25 25 25 25 24 23 22 19 17 16 16 15 14 14 11 12 11 10 10 9 9 8 8 7 7 10 13 11 11 9 12 9 12 10
26 27 26 26 26 26 26 26 25 25 25 24 25 24 24 22 19 18 16 15 14 13 12 11 10 10 10 11 9 9 7 6 7 7 9 12 10 10 7 9 9 9 9

GFSGL_sfc_30mbdewp_021.txt.gz
Dewpoint
32 32 30 30 31 35 35 34 33 33 33 32 33 31 32 34 34 34 33 33 33 33 32 29 30 33 32 31 32 29 29 30 30 28 30 28 25 26 27 35 35 35 36
30 29 28 30 31 33 33 33 33 32 30 30 27 24 24 23 25 25 26 25 23 22 22 22 23 23 24 25 25 24 24 24 23 22 22 22 21 22 22 21 22 25 29
29 28 27 28 30 31 31 32 31 30 28 24 22 22 23 23 23 24 25 24 23 22 22 21 20 20 21 22 23 24 25 23 22 21 20 21 20 21 20 22 21 21 21
29 28 27 28 29 30 30 30 30 28 25 22 21 22 23 23 23 23 22 22 22 22 23 22 21 21 21 22 24 22 21 21 20 19 18 20 21 22 23 23 22 25 25
30 30 30 30 31 30 30 32 30 27 25 21 21 22 23 23 22 22 23 22 22 22 21 21 21 21 22 24 23 24 22 20 19 19 19 19 19 19 19 22 22 23 23
27 29 31 33 32 33 34 32 33 26 21 21 21 22 23 22 25 25 25 23 21 20 19 19 21 20 21 21 24 24 25 26 24 20 19 19 19 19 20 21 21 21 21
22 28 30 32 33 35 35 36 32 22 21 21 22 24 23 24 26 26 25 24 22 20 19 20 18 17 21 22 23 23 23 24 26 26 24 23 22 22 22 21 21 22 22
24 31 33 33 33 34 35 34 28 23 20 22 24 24 24 24 25 26 27 27 24 22 21 20 19 21 22 22 22 24 24 24 25 25 26 26 25 25 25 24 24 28 28
30 31 33 35 35 35 34 33 31 25 24 25 26 26 25 25 26 28 27 26 24 23 22 21 20 20 21 25 24 24 24 25 26 26 26 26 27 28 29 29 26 24 22
27 28 30 32 35 35 33 31 29 25 26 26 26 26 26 24 25 22 26 25 22 21 21 20 20 20 26 26 26 24 22 21 22 23 24 23 22 22 23 24 25 23 23
27 28 30 34 34 35 34 31 26 24 26 25 24 24 23 23 20 20 21 20 20 21 19 18 20 21 22 25 24 25 23 23 24 23 22 21 22 23 24 25 26 26 25
26 27 27 29 30 31 28 27 24 24 23 22 20 19 19 20 19 19 17 16 17 19 19 20 22 24 25 23 24 26 27 26 24 23 22 22 23 26 28 30 31 30 29
26 26 25 25 26 25 22 21 22 23 21 21 20 17 18 19 17 17 18 18 18 20 21 22 23 22 22 24 25 25 26 25 24 23 23 24 25 27 29 29 28 30 32
26 26 26 26 26 24 23 22 22 21 21 20 18 17 17 17 16 18 18 18 19 21 20 21 23 21 22 23 22 23 23 23 22 22 23 25 27 26 26 26 27 30 28
26 25 25 24 24 25 23 21 22 21 20 20 19 17 16 15 16 18 16 17 18 22 20 20 18 18 18 19 19 20 20 22 21 22 22 23 23 24 24 27 29 28 26
24 24 24 23 26 25 24 23 25 23 23 22 20 17 17 17 17 17 16 16 18 18 17 17 16 17 16 16 17 18 18 21 20 21 22 22 22 22 23 25 25 25 25
24 23 23 23 27 26 24 22 22 24 25 24 24 22 21 17 16 17 17 14 14 16 15 16 15 16 15 15 15 16 17 20 20 19 20 20 21 22 23 23 23 23 24
24 23 23 23 24 25 23 21 23 24 23 21 23 24 19 17 16 17 17 15 13 12 12 14 15 15 15 15 15 15 16 17 17 17 17 18 20 21 21 22 22 22 23
25 23 21 21 20 24 24 25 22 23 23 22 22 22 17 14 17 17 17 14 11 11 11 12 14 15 14 14 14 14 15 15 14 15 15 16 17 20 20 21 21 22 21
24 22 22 22 22 23 25 24 22 24 24 21 21 21 17 12 14 15 15 14 12 11 10 11 13 13 12 13 14 13 12 11 11 12 12 13 16 17 18 20 19 20 17
23 21 22 26 25 25 25 23 24 22 22 22 22 22 16 13 14 16 16 14 13 11 10 10 11 12 12 12 14 12 11 9 8 9 10 11 13 15 15 17 18 16 19
21 21 20 21 25 25 26 25 23 22 24 24 24 22 18 16 17 18 15 15 14 13 12 10 10 11 11 10 12 10 10 8 7 8 9 9 11 14 13 14 14 15 12
20 20 21 22 23 24 25 26 25 23 25 24 23 21 21 20 18 15 15 15 16 15 14 11 10 10 10 10 10 9 9 7 8 8 8 9 11 12 11 12 11 13 11
20 20 22 22 23 24 25 25 25 25 23 23 24 24 23 22 19 16 14 14 15 14 14 11 10 10 10 10 10 9 8 8 7 7 8 9 11 10 8 11 10 10 10
23 22 23 25 23 24 25 25 25 25 25 23 23 24 24 22 20 17 15 14 14 13 13 10 9 10 9 10 9 8 7 6 6 7 8 10 10 9 7 8 8 8 7
24 24 24 25 25 22 22 24 25 24 23 22 23 24 23 22 21 18 16 13 12 12 10 10 9 9 8 9 9 8 6 5 5 7 9 10 7 6 7 6 6 6 6

GFSGL_sfc_30mbdewp_024.txt.gz
Dewpoint
32 32 31 30 31 35 35 34 34 33 33 32 31 31 26 26 26 28 29 29 27 24 23 23 22 23 23 24 25 25 28 30 27 25 30 24 22 21 22 25 32 35 35
32 30 29 29 29 34 34 34 34 32 32 29 29 23 23 23 24 24 25 24 23 22 22 22 21 20 21 21 22 23 24 25 24 22 23 21 20 20 21 22 21 21 28
31 30 28 28 28 30 32 33 34 33 32 32 24 22 22 24 24 24 23 23 22 22 22 22 21 21 20 21 22 23 24 24 24 22 21 21 21 21 22 23 23 24 25
30 28 30 31 32 32 31 32 33 36 35 32 23 22 23 24 23 22 22 22 22 22 22 22 21 21 21 22 23 24 25 23 22 21 20 19 21 21 22 21 21 22 23
25 29 30 31 31 30 31 33 36 35 34 31 24 23 24 23 22 23 23 23 22 21 21 21 19 19 17 18 23 24 27 25 25 23 21 20 19 19 18 20 20 21 21
25 29 32 32 33 34 35 36 35 36 35 26 25 24 24 23 25 25 25 24 23 22 21 20 20 19 18 19 21 22 22 23 24 24 24 22 19 19 20 20 20 20 20
29 32 33 33 32 32 34 36 35 33 32 31 25 24 24 24 26 27 28 27 25 24 22 22 21 18 20 21 22 22 23 23 24 24 23 23 22 21 21 21 21 22 21
31 31 33 33 33 35 34 34 33 33 31 25 25 25 24 23 27 28 27 26 25 24 23 22 20 19 20 20 22 25 25 25 25 25 24 25 25 25 24 24 24 24 25
27 28 30 31 32 35 34 33 33 31 25 26 26 24 24 24 23 22 26 23 22 20 21 21 19 19 20 23 23 23 23 22 22 21 22 26 27 29 29 28 26 25 22
26 27 29 32 32 33 34 32 31 27 26 25 24 24 23 20 19 20 19 22 19 19 20 18 18 20 22 23 24 23 21 20 21 21 23 24 22 22 22 23 23 21 21
27 27 27 28 29 30 32 32 28 26 25 23 20 21 20 20 18 17 17 18 18 20 18 18 19 21 25 23 23 24 23 24 24 25 24 23 23 24 25 25 25 24 22
27 26 26 27 26 24 25 24 24 23 22 21 17 17 19 19 16 17 17 16 17 19 19 20 22 21 22 24 24 25 24 25 25 23 22 22 23 24 26 28 29 30 29
26 26 26 26 26 24 21 22 22 22 21 20 19 17 18 18 16 18 19 18 19 20 21 22 19 20 21 22 22 23 23 23 22 21 22 23 25 27 28 29 28 28 29
26 25 26 23 24 25 22 22 22 20 20 20 19 18 16 16 15 17 20 18 20 21 20 21 19 19 20 21 21 21 22 22 21 21 21 23 25 25 25 27 26 29 27
25 25 23 24 24 25 22 23 23 22 21 20 20 18 16 15 16 20 18 18 18 17 16 17 16 16 16 16 17 18 19 21 19 20 21 21 22 23 23 26 26 26 25
25 24 23 22 23 26 24 22 23 24 25 26 24 18 17 19 19 18 18 15 13 14 15 15 14 15 14 15 15 15 16 18 18 19 19 19 20 21 23 23 23 23 23
26 24 23 25 25 26 23 22 20 23 24 24 25 24 23 20 18 17 17 14 12 12 11 13 14 14 14 14 14 14 14 16 16 16 17 17 18 20 21 21 22 22 23
27 25 23 24 21 21 24 23 23 21 21 22 22 24 23 19 16 16 16 14 11 11 11 11 13 14 13 13 13 13 13 13 12 13 14 14 15 18 19 19 20 20 21
26 24 22 23 21 20 22 24 25 21 22 23 20 22 21 18 16 18 18 13 11 10 10 10 12 13 12 12 13 12 11 9 9 10 11 12 13 15 16 18 18 18 16
24 24 22 22 23 21 22 23 24 22 23 20 20 20 19 14 12 15 13 13 11 10 10 10 11 11 10 10 12 11 11 7 7 7 8 10 11 13 14 15 16 15 17
24 21 21 22 23 25 25 25 24 23 20 20 23 22 21 17 15 14 15 14 13 12 10 10 9 9 9 10 12 9 9 5 6 6 7 8 9 11 13 13 13 13 13
24 22 20 20 19 21 22 24 25 24 21 21 22 23 21 17 15 16 17 15 13 13 11 10 10 10 9 9 10 7 7 4 5 5 6 8 9 11 10 11 11 11 9
22 20 19 20 21 21 21 22 24 24 24 24 23 22 21 20 20 19 18 14 13 14 13 10 9 9 9 8 9 9 7 5 7 6 6 7 9 10 8 9 9 10 8
22 20 19 19 21 22 21 22 24 25 25 24 22 22 22 22 21 19 16 13 12 13 12 11 9 10 9 8 9 8 8 7 7 6 7 8 9 8 6 8 7 7 6
25 24 24 22 22 24 21 21 22 24 24 24 23 20 22 22 21 20 18 14 13 13 13 12 9 9 8 8 8 7 5 5 5 6 8 9 8 6 7 6 5 6 5
28 27 25 24 23 24 24 21 19 22 23 23 22 20 21 21 20 19 18 14 13 12 10 9 9 8 8 8 8 7 5 4 4 7 8 8 5 3 6 5 5 5 6

GFSGL_sfc_30mbdewp_027.txt.gz
Dewpoint
33 33 32 32 31 32 35 35 35 35 34 33 33 32 30 26 26 26 26 27 25 23 23 23 22 23 22 22 22 23 23 24 23 24 27 29 23 21 21 22 23 23 31
33 32 30 30 30 30 32 34 35 34 34 33 33 34 34 27 24 24 23 25 23 21 22 22 22 21 20 21 21 22 22 23 23 22 24 23 21 21 21 21 22 24 25
31 28 29 30 30 30 31 31 33 34 34 34 34 35 31 25 24 25 25 23 22 22 22 22 21 20 19 20 21 22 23 24 25 24 23 22 22 21 21 22 23 23 22
26 28 29 30 31 31 31 31 32 33 35 35 35 29 27 27 25 23 22 22 23 22 22 22 21 20 19 20 19 22 24 25 25 25 24 22 21 21 22 20 19 21 20
26 29 31 32 32 32 32 33 35 36 35 36 34 30 28 25 22 23 23 23 23 23 23 23 21 21 22 20 18 19 21 22 23 23 23 23 21 20 19 19 20 20 21
26 30 31 31 32 32 33 34 36 36 32 34 33 30 24 23 25 26 28 27 25 24 24 23 22 22 21 18 19 20 21 21 21 22 22 22 22 21 20 20 20 20 19
30 31 31 33 32 33 34 34 33 32 32 32 30 25 24 24 27 28 27 25 25 24 23 22 20 17 19 20 21 20 22 23 24 25 23 23 22 22 22 21 21 21 21
29 29 30 31 31 32 34 32 33 32 32 28 25 24 23 24 25 23 26 22 21 21 19 19 20 20 20 19 23 24 22 22 25 24 25 25 25 25 24 23 23 24 24
27 27 28 29 31 31 32 33 32 31 27 26 25 24 22 19 20 20 20 22 19 18 19 19 19 19 21 23 24 23 22 22 23 22 21 22 23 27 27 27 25 23 22
26 27 28 27 28 28 29 32 32 30 26 25 23 22 21 18 19 18 18 18 17 19 19 18 19 20 23 22 23 23 21 20 21 22 22 22 24 23 22 22 23 22 21
27 27 26 26 26 26 28 31 28 26 24 22 20 21 20 19 17 18 17 17 18 19 18 18 20 21 20 23 23 23 23 24 24 25 25 24 24 24 24 23 23 22 20
27 26 26 27 26 23 23 24 24 23 21 21 17 17 19 19 18 19 20 18 18 20 19 20 22 19 21 22 22 23 23 23 22 22 22 23 23 24 26 27 28 28 27
27 26 26 24 25 25 22 22 22 22 20 20 20 18 18 19 16 18 21 20 19 19 18 18 17 17 18 19 20 21 21 21 20 20 20 22 24 26 27 28 29 29 29
27 26 25 24 24 25 23 22 21 21 20 20 20 19 18 16 16 17 22 18 18 17 16 16 16 17 17 17 18 19 19 20 19 19 20 21 24 24 24 26 25 28 27
26 26 26 23 23 26 22 23 23 22 21 21 21 19 18 17 16 21 18 16 14 15 14 14 14 14 14 14 15 15 16 17 16 17 18 18 20 22 23 25 25 25 24
28 28 27 24 22 26 25 22 23 24 25 26 26 21 18 19 21 18 18 15 13 12 12 12 11 12 12 13 13 13 14 14 14 15 16 16 16 19 21 22 23 23 22
27 28 28 25 26 23 25 24 22 21 23 24 24 26 24 23 19 17 16 15 13 11 9 10 10 11 11 13 12 12 11 11 12 13 13 14 14 17 19 19 20 21 21
28 28 27 25 26 21 21 22 24 23 19 20 22 23 25 21 19 17 17 15 11 10 10 9 10 11 10 11 12 11 11 7 8 9 10 11 12 14 15 17 18 16 16
28 27 24 24 24 22 21 20 22 25 20 21 21 20 23 22 19 18 18 14 12 10 10 9 10 11 9 9 10 10 9 5 5 6 8 9 10 11 13 15 15 15 15
30 27 24 23 22 23 23 21 21 22 22 21 18 19 20 17 17 14 13 13 12 11 10 10 9 10 9 8 9 8 8 4 4 5 6 7 8 10 12 12 13 12 12
30 26 23 23 22 22 22 24 24 24 23 21 19 19 21 20 19 15 16 14 13 13 11 10 9 8 8 8 9 7 6 3 4 4 5 7 7 8 10 10 11 10 10
29 26 24 21 20 19 19 20 21 23 23 22 21 21 20 19 19 17 16 16 14 12 12 11 10 9 9 9 8 7 6 3 4 4 4 6 7 8 8 8 9 9 7
27 25 23 20 19 19 19 19 20 22 23 23 23 22 20 20 19 18 18 17 15 12 12 11 10 9 8 7 7 8 6 4 6 6 5 6 7 8 6 7 7 7 6
27 25 23 21 19 19 19 19 19 20 22 23 23 22 21 20 20 19 18 17 13 11 10 11 11 10 9 7 7 7 7 5 5 5 6 7 7 7 6 6 6 6 5
28 26 25 24 23 23 23 22 21 20 20 22 22 22 21 20 20 20 19 17 15 12 12 11 10 10 8 8 8 7 5 3 2 4 7 8 7 4 6 5 4 6 5
29 28 27 26 24 24 24 23 22 22 20 19 22 22 21 20 20 19 18 17 15 13 12 10 10 10 8 7 7 7 4 2 1 5 7 7 6 3 5 5 4 4 6

GFSGL_sfc_30mbdewp_030.txt.gz
Dewpoint
33 33 32 31 30 31 31 32 33 35 35 34 34 33 33 34 33 29 28 27 27 25 23 23 22 23 22 22 21 22 22 23 21 21 23 24 27 26 22 22 23 21 26
33 31 28 30 30 29 30 31 32 33 34 34 34 33 35 35 32 26 26 26 24 22 21 22 22 21 21 20 20 20 21 22 22 22 23 24 24 24 22 21 21 21 24
26 26 28 29 31 30 31 31 31 32 34 34 34 35 34 29 27 27 26 23 21 22 23 22 22 22 20 20 19 20 21 21 25 24 23 24 24 23 22 22 22 23 22
25 28 30 31 31 30 30 31 33 35 35 35 35 36 34 29 27 24 22 23 23 23 23 23 23 23 21 20 21 21 19 21 20 20 22 23 24 23 22 21 20 22 20
23 29 31 31 31 31 31 33 34 35 35 33 31 31 29 25 23 24 26 27 26 25 24 24 24 23 22 21 20 19 19 20 21 20 20 20 21 22 21 22 20 20 21
23 30 31 31 31 31 32 34 33 33 33 34 32 29 24 24 27 28 28 26 24 24 22 22 22 19 19 18 19 19 19 20 21 21 20 19 19 21 21 20 21 20 19
29 30 29 30 31 30 32 33 31 32 31 31 27 24 22 25 27 24 26 23 21 20 18 18 17 16 19 20 20 20 21 22 25 23 23 22 22 23 22 22 22 21 20
28 27 27 28 29 30 31 33 31 31 31 28 25 23 23 23 21 20 23 22 20 19 18 18 18 19 20 20 23 24 23 23 22 22 24 23 23 25 25 25 23 23 23
25 26 27 28 27 28 27 28 31 31 30 26 24 23 19 18 20 19 19 19 19 18 18 18 19 19 21 23 23 22 21 21 23 23 23 23 22 22 23 26 24 23 21
25 26 28 27 26 26 25 26 30 32 27 25 22 22 20 18 18 18 18 18 17 18 19 19 19 19 20 21 23 21 20 20 21 23 24 24 24 25 24 23 22 21 22
26 27 27 26 26 25 23 27 28 26 24 22 20 21 19 18 18 18 19 19 19 20 19 18 19 19 19 19 21 22 22 22 22 22 23 24 25 26 25 24 23 22 20
27 27 26 26 26 25 23 24 24 23 22 21 17 17 18 19 19 19 20 19 18 19 17 18 19 16 16 17 20 22 20 21 20 20 20 21 22 23 25 27 28 26 24
27 27 26 26 25 24 24 22 22 21 20 20 20 19 19 19 18 18 20 21 17 17 16 16 15 15 15 17 16 17 18 19 18 17 18 19 21 23 25 26 28 29 28
26 27 26 26 25 24 24 22 21 20 20 20 20 20 19 18 17 17 20 19 15 16 14 14 14 15 14 15 15 16 16 16 16 16 17 18 20 22 24 26 25 27 26
27 27 27 28 26 23 25 22 23 23 21 21 21 21 19 18 18 20 19 17 14 13 12 11 11 10 10 13 13 13 14 12 13 14 15 15 17 18 21 23 24 24 23
29 28 28 28 27 23 25 25 25 24 24 26 27 24 20 20 21 22 17 16 14 12 9 10 9 9 8 11 11 11 10 8 10 12 13 13 14 16 18 20 21 22 22
29 29 29 28 27 25 24 24 22 23 23 23 24 24 26 22 23 20 17 16 13 12 8 8 8 8 8 9 11 11 10 7 9 9 11 11 12 14 16 17 18 17 18
30 30 29 28 27 26 25 22 21 21 21 21 21 23 23 25 24 20 17 16 12 11 10 9 8 9 9 8 10 9 9 6 5 6 8 8 9 12 14 14 15 15 15
30 30 29 27 26 25 25 24 21 20 21 22 20 21 20 24 23 21 19 15 13 12 10 10 9 9 10 8 8 7 5 5 3 3 6 7 7 9 11 12 13 11 12
31 30 29 27 25 23 22 23 23 22 22 22 21 19 18 18 19 17 13 12 13 13 12 10 10 9 9 8 7 7 6 3 2 3 5 6 7 7 9 9 11 10 10
30 30 28 27 25 23 22 21 21 22 22 23 22 21 18 21 20 18 17 14 14 14 13 11 10 9 7 7 7 7 6 4 2 3 4 6 6 7 8 8 9 10 9
29 29 27 25 24 21 20 19 19 19 20 20 22 21 19 18 19 18 18 16 14 13 13 12 11 10 9 9 8 7 7 5 2 3 3 5 6 7 7 7 7 7 7
29 28 26 24 23 21 19 19 18 17 18 19 21 22 20 20 19 18 18 17 15 14 13 11 11 11 9 7 6 7 8 7 4 4 3 5 6 7 6 6 6 6 5
28 28 26 24 23 22 21 20 20 19 19 19 20 21 21 21 20 19 18 17 16 14 11 10 11 11 11 8 6 6 7 6 4 4 4 5 6 6 5 6 5 6 5
29 28 26 24 24 23 23 22 22 22 21 21 21 19 20 21 21 19 18 18 17 15 14 10 10 11 11 10 8 7 7 5 2 1 4 6 6 4 4 6 4 5 5
29 28 28 27 25 24 24 23 23 23 23 22 22 22 20 21 21 19 19 18 17 17 16 12 10 10 10 9 7 7 6 4 0 1 5 5 6 4 4 6 5 4 5

GFSGL_sfc_30mbdewp_033.txt.gz
Dewpoint
35 35 34 32 32 32 31 32 32 33 32 33 34 35 35 34 35 34 33 29 27 27 26 25 24 23 23 22 21 19 17 17 15 14 14 16 19 20 21 22 23 24 22
33 30 30 31 31 31 30 30 30 30 32 33 35 35 35 36 36 31 27 28 27 25 23 23 23 22 22 21 20 19 18 18 17 15 14 16 17 20 21 23 24 22 20
26 26 29 31 31 30 29 30 31 32 34 36 36 36 33 30 29 29 28 26 23 23 24 23 22 22 21 20 20 19 18 19 18 16 17 14 14 19 21 21 21 22 21
25 27 30 32 31 30 30 31 33 34 34 34 35 35 34 31 28 26 23 24 25 25 24 23 22 21 20 18 19 20 20 20 17 16 14 14 14 15 20 19 20 20 20
24 28 32 32 32 31 31 32 34 33 32 33 32 32 28 25 24 27 27 25 23 20 19 17 17 18 19 18 17 17 17 16 17 17 16 14 13 13 14 17 20 20 22
24 28 32 31 31 30 30 32 33 32 32 33 32 27 25 25 28 25 25 22 19 16 14 14 14 15 16 18 18 19 20 18 18 17 15 18 15 16 16 17 18 19 18
26 31 29 29 29 29 29 31 30 32 31 32 29 25 24 25 23 21 25 20 17 15 14 14 14 15 17 17 17 19 22 22 24 24 21 18 15 17 16 18 20 19 16
29 28 27 28 28 28 28 27 28 32 32 31 26 24 22 19 21 20 20 17 17 15 15 15 15 16 17 18 22 19 19 18 20 25 26 23 21 23 21 19 20 24 21
26 26 27 28 28 26 26 26 27 30 32 31 26 23 20 18 19 19 19 19 18 17 17 16 16 16 18 20 20 20 17 16 19 18 21 23 25 25 24 24 20 22 19
26 26 27 28 27 26 26 25 28 31 32 28 24 22 21 19 18 19 19 20 19 18 17 15 16 17 19 19 20 19 18 17 17 18 18 20 25 25 26 26 22 18 16
27 28 28 27 27 27 26 25 25 26 27 26 24 23 21 20 19 19 19 20 19 17 16 14 14 16 16 17 18 19 20 19 19 19 18 18 19 21 23 27 27 24 19
28 27 27 27 26 26 25 24 24 25 24 24 23 23 21 22 20 19 19 21 19 17 16 14 15 15 15 15 15 16 16 17 18 18 18 18 19 20 22 24 26 29 27
28 27 27 27 27 27 24 23 23 23 22 22 21 22 21 23 22 20 19 22 19 17 17 13 14 14 13 12 13 15 15 15 16 16 16 17 20 22 25 27 29 29 29
27 27 27 27 26 28 25 23 22 23 22 21 21 21 21 22 22 20 20 21 19 16 15 12 13 13 11 13 12 12 12 11 14 15 16 18 20 21 23 26 26 27 27
28 28 28 27 27 28 25 23 23 24 24 22 21 23 24 22 22 21 22 20 18 16 13 12 10 10 7 8 10 9 7 6 11 14 15 16 17 18 20 22 23 25 24
28 28 29 29 28 28 25 24 26 26 26 25 25 26 26 25 23 22 22 18 16 14 12 12 10 10 9 7 9 8 7 4 8 12 14 14 15 16 17 19 20 21 22
28 29 29 30 29 27 27 26 24 22 25 25 25 24 25 25 24 24 22 18 16 14 13 12 13 11 10 7 6 7 5 5 6 10 12 12 13 15 16 16 17 17 17
28 29 30 30 29 29 27 26 26 24 22 21 23 22 24 24 25 27 23 19 17 15 14 13 13 13 11 7 6 6 5 5 5 5 11 11 12 13 14 15 15 14 14
27 28 29 29 29 29 28 27 26 25 24 22 22 22 23 23 24 25 24 21 19 17 16 14 14 13 12 10 10 10 10 7 5 5 8 10 11 11 12 12 14 14 13
27 30 31 29 28 28 27 25 24 24 24 23 22 22 23 19 22 23 23 22 20 19 18 16 15 14 14 13 12 11 10 9 6 4 6 10 10 10 10 11 12 13 12
27 28 29 29 27 27 27 25 24 23 22 21 21 24 24 23 23 23 23 22 21 20 20 18 17 16 15 14 12 11 10 10 8 4 5 8 9 9 9 10 11 11 10
27 27 27 28 27 27 26 25 24 22 21 21 22 23 22 22 23 23 23 23 23 22 21 20 19 17 16 14 13 12 10 10 9 6 5 8 8 8 8 9 9 9 8
29 29 28 27 27 26 26 25 24 22 21 21 21 22 23 23 23 23 24 24 23 22 21 20 19 18 17 16 15 13 11 10 10 7 5 8 8 8 8 8 7 7 7
27 27 26 28 27 26 26 25 26 24 23 23 24 24 23 23 24 24 24 24 23 22 21 19 18 17 17 17 15 13 12 12 11 7 6 8 8 8 6 8 7 8 7
27 28 28 28 27 27 26 25 25 26 26 26 25 25 25 25 24 23 25 24 22 22 21 18 17 16 16 15 15 13 12 11 8 4 5 8 8 8 6 7 8 6 7
27 27 27 27 27 27 27 26 26 26 26 26 26 26 26 25 25 24 24 24 22 21 21 21 18 16 16 15 15 12 9 8 7 2 5 8 8 7 6 7 8 7 5

GFSGL_sfc_30mbdewp_036.txt.gz
Dewpoint
35 35 34 29 28 27 26 26 26 27 27 26 27 29 29 30 33 36 37 36 29 27 27 26 24 23 22 21 20 18 17 16 14 14 14 15 16 16 17 20 21 20 20
33 30 28 25 26 26 26 26 28 28 28 29 31 30 30 32 32 30 30 30 28 27 25 23 22 21 21 20 18 17 16 16 17 16 15 15 15 16 15 16 19 19 20
25 24 24 26 26 25 26 28 28 28 29 30 30 31 31 32 32 31 29 26 25 24 24 23 22 21 19 17 17 16 16 18 19 19 16 15 15 15 15 17 18 20 19
22 21 23 26 27 27 28 29 28 29 29 29 30 31 31 29 28 25 24 25 24 22 22 21 19 17 16 17 16 15 14 16 17 17 15 15 15 14 14 14 15 17 21
21 21 23 28 29 28 29 28 28 30 30 30 30 30 29 25 24 27 24 23 22 19 17 15 14 16 17 18 17 16 17 16 16 16 16 15 14 14 15 15 13 13 15
22 21 25 29 28 28 28 27 28 29 29 30 29 28 27 24 27 24 24 21 19 16 14 13 14 14 15 17 18 18 19 18 19 19 20 19 17 17 14 19 17 19 16
21 24 28 27 27 26 26 26 26 27 28 30 29 29 26 26 22 22 21 18 17 16 15 14 14 13 15 16 17 19 23 21 23 22 19 19 22 19 17 17 15 15 16
23 25 26 26 25 25 25 25 26 27 28 29 30 28 26 24 21 20 20 18 19 18 16 16 15 15 15 18 18 18 19 18 16 18 21 19 18 19 22 23 22 19 18
23 23 23 24 25 25 25 26 26 25 26 29 30 27 26 24 19 19 19 20 20 19 17 16 15 14 15 17 18 19 18 16 17 16 17 19 20 21 25 22 20 19 19
23 23 24 24 25 25 26 26 26 26 25 29 28 27 25 23 20 19 19 20 21 19 17 16 15 15 16 17 17 17 18 17 14 15 17 17 18 18 25 25 23 21 18
25 25 24 23 25 26 27 26 25 24 25 27 28 26 25 24 22 19 19 21 20 19 17 16 15 15 15 15 15 15 16 15 16 16 18 18 18 19 20 21 26 27 22
26 24 24 24 26 25 25 25 25 24 24 24 29 27 24 25 23 22 20 20 21 20 18 17 17 13 14 14 14 15 15 16 16 18 18 18 19 21 23 25 28 27 27
24 24 25 26 25 25 24 24 24 22 22 23 22 22 21 22 23 23 21 20 22 20 19 17 14 13 12 10 12 13 13 13 14 16 17 17 19 22 24 28 30 32 29
24 24 25 26 25 24 23 24 23 22 23 23 22 22 21 22 23 23 23 22 22 20 18 16 15 14 12 10 11 11 11 9 12 16 16 18 19 19 22 25 26 27 27
25 25 26 26 25 24 23 24 23 23 24 22 22 22 23 24 25 24 22 21 21 19 17 17 15 14 11 8 10 10 10 7 8 13 16 16 17 18 18 21 23 24 25
26 26 26 26 26 25 25 23 25 25 25 26 25 24 25 24 26 25 23 23 20 17 16 16 16 16 14 11 9 9 9 8 6 9 12 13 14 16 17 19 20 21 22
27 27 28 28 28 27 27 27 24 25 26 26 27 27 26 25 25 26 25 24 21 18 17 17 17 16 16 12 9 8 8 8 8 7 10 11 12 13 15 17 17 17 18
28 27 27 27 28 28 27 28 28 25 25 25 26 24 24 24 25 25 25 25 21 20 18 17 17 16 15 12 10 9 10 11 10 8 9 11 12 11 12 13 16 16 15
25 25 26 29 29 28 28 28 29 27 25 24 24 23 25 25 24 25 24 24 20 20 19 17 17 17 16 14 14 14 13 12 11 10 10 10 11 11 10 11 12 12 12
26 26 26 27 28 29 27 27 28 27 26 23 22 22 22 24 25 24 25 25 23 22 20 19 18 17 17 16 16 15 14 13 11 8 8 11 11 11 9 10 11 11 10
27 27 26 26 26 26 26 27 28 28 27 24 24 26 24 22 23 24 24 26 24 22 22 21 20 19 19 18 16 15 14 14 12 9 8 9 11 10 9 9 9 9 8
29 30 30 29 30 30 26 26 28 28 26 25 24 25 24 24 24 23 24 25 26 25 24 24 23 20 19 18 17 17 15 14 13 12 10 9 10 11 9 9 9 9 8
31 30 29 29 29 30 29 27 26 28 28 28 26 26 26 27 26 24 25 26 27 27 26 25 24 22 21 20 19 17 15 14 14 13 8 10 10 10 10 9 9 8 8
30 29 27 26 28 28 28 28 28 28 28 28 29 28 28 27 28 28 27 28 28 28 28 25 24 23 22 21 20 19 16 15 15 13 9 9 9 9 8 8 9 8 8
30 29 28 28 27 27 27 28 28 28 28 28 28 29 29 29 29 29 30 29 28 27 27 26 24 24 22 20 19 19 17 14 13 12 9 9 9 9 8 7 8 8 8
30 29 27 27 27 27 27 27 27 27 27 27 27 28 28 28 29 29 29 29 28 27 26 26 24 24 22 21 20 18 16 13 12 9 9 8 9 9 8 8 8 8 7

GFSGL_sfc_30mbdewp_039.txt.gz
Dewpoint
37 36 35 32 30 29 27 27 26 27 26 24 25 27 28 27 32 33 32 31 30 30 29 28 27 26 25 22 21 19 18 17 16 17 17 18 18 19 19 19 19 20 20
33 34 34 30 26 27 27 25 26 27 26 25 27 28 28 30 30 30 30 30 29 28 26 23 20 19 19 19 18 16 16 16 15 14 17 18 19 18 19 18 18 17 19
33 30 27 26 27 26 24 25 27 26 26 27 27 27 29 29 30 30 29 28 25 23 21 20 19 19 18 17 17 17 16 14 15 17 19 19 18 18 16 17 17 17 17
29 24 22 25 26 24 25 27 27 26 27 27 27 28 28 29 26 26 22 24 22 19 20 19 18 16 16 17 16 16 15 15 16 17 17 17 15 17 17 17 17 18 17
25 22 22 24 26 26 27 28 26 27 28 28 27 27 28 26 23 26 23 22 20 18 18 17 15 16 17 17 16 16 17 16 16 16 16 19 20 19 19 17 19 16 19
23 23 23 23 25 26 27 27 25 26 26 26 27 28 28 25 26 23 23 22 20 17 16 16 15 16 15 17 18 19 19 17 18 23 21 19 16 16 22 22 22 18 17
23 22 21 25 25 24 23 24 24 25 26 27 29 29 27 27 24 22 21 20 20 18 18 17 15 13 16 16 17 16 18 19 21 21 22 21 23 20 18 19 17 21 21
22 20 21 24 23 22 22 23 25 26 26 25 28 30 28 26 23 21 21 20 20 19 19 17 16 16 17 18 16 16 17 17 16 18 20 18 17 17 18 18 21 21 20
20 19 20 21 21 22 22 23 26 25 25 25 28 29 28 28 23 21 19 20 21 20 19 17 17 15 17 16 15 17 15 13 15 15 14 16 20 21 22 22 24 20 20
17 20 20 21 21 21 23 24 26 25 24 24 26 29 28 27 23 21 20 21 22 21 19 17 17 16 16 16 15 15 15 14 11 12 15 17 19 19 21 24 26 25 22
22 22 22 21 21 23 24 25 25 24 24 26 28 28 27 27 26 23 21 21 21 21 19 18 17 18 16 14 15 15 17 15 14 17 18 18 20 20 21 22 24 25 25
23 23 22 21 23 24 24 25 24 24 24 25 29 29 27 26 26 24 23 22 20 20 20 19 20 18 15 14 14 14 14 15 17 16 19 18 19 19 22 24 28 31 31
24 23 23 23 24 24 24 23 23 23 24 25 25 26 26 24 24 26 24 22 21 22 21 20 19 17 15 14 11 12 15 14 12 13 16 17 18 21 21 24 26 28 30
24 23 23 24 24 24 24 22 22 24 26 26 25 24 24 22 22 25 28 26 23 25 24 22 19 18 18 18 15 14 13 13 10 11 14 16 18 19 20 22 24 25 26
23 23 25 26 26 25 23 22 23 24 26 25 26 26 26 25 24 27 26 24 25 24 21 19 18 18 17 15 14 13 13 12 10 10 12 12 12 14 19 20 22 23 24
25 26 27 27 27 26 24 24 26 25 25 25 25 25 27 25 24 26 25 24 23 22 19 18 18 20 19 18 15 13 13 13 11 11 11 11 12 12 13 18 19 19 20
27 27 27 27 27 27 28 27 27 28 27 26 27 26 26 27 26 26 27 26 24 24 20 18 19 20 19 17 15 13 12 13 14 12 12 13 12 12 14 14 17 18 17
27 27 27 27 27 27 28 28 27 27 28 28 29 28 27 27 27 26 25 26 23 25 20 18 18 19 19 16 14 14 14 15 15 13 13 14 14 12 12 11 12 13 13
27 27 28 29 30 30 30 30 29 28 28 28 26 26 27 27 26 26 26 23 22 25 23 23 23 20 18 18 17 18 18 16 15 15 14 13 14 13 12 10 12 12 13
26 27 27 28 29 29 29 28 27 27 27 28 28 25 25 25 27 27 27 26 25 24 24 23 23 20 20 19 20 20 19 19 17 15 13 13 14 13 12 11 11 11 10
27 28 29 30 33 30 29 30 28 27 27 28 29 30 28 25 25 26 27 27 27 26 25 24 25 24 23 22 20 19 18 17 17 16 14 13 13 14 13 11 11 10 9
29 30 31 32 32 32 31 30 31 29 28 27 28 29 28 27 26 25 25 26 27 28 28 27 26 25 24 23 20 20 19 18 18 17 16 13 13 14 15 12 11 10 10
30 30 30 31 30 29 28 28 29 31 29 28 28 28 30 30 29 27 27 27 28 28 28 28 28 26 26 26 24 21 19 18 17 18 15 13 13 13 13 13 12 10 10
30 30 30 30 30 29 28 28 29 30 29 28 29 29 29 30 30 30 30 30 30 29 30 30 28 27 26 27 25 22 20 19 18 16 14 12 12 12 12 10 10 11 10
32 31 31 30 30 28 28 28 28 28 28 29 29 29 29 29 29 30 31 31 31 31 30 30 30 28 27 26 25 23 20 19 17 16 15 12 12 11 10 9 10 10 9
30 31 30 30 29 27 27 26 26 27 27 28 29 29 29 27 27 28 30 31 31 31 31 30 29 28 27 25 25 23 21 19 16 15 14 12 11 11 11 10 9 9 9

GFSGL_sfc_30mbdewp_042.txt.gz
Dewpoint
40 40 38 36 35 33 31 29 28 28 28 27 27 28 29 31 32 32 32 31 31 31 31 29 28 28 27 26 25 23 21 20 18 18 18 19 19 21 22 22 21 20 19
39 37 37 35 34 31 29 28 27 28 28 27 28 28 29 29 30 31 32 31 30 29 28 25 24 22 22 22 21 21 20 18 17 16 17 19 20 21 20 21 20 18 18
34 35 35 35 29 28 28 26 27 28 28 28 28 29 29 30 28 30 30 29 28 26 25 22 22 21 19 20 19 17 18 18 18 17 17 18 19 19 19 20 20 21 21
35 34 32 29 28 28 26 27 28 29 28 29 29 29 29 28 29 28 27 26 24 22 22 21 20 19 18 17 16 17 16 17 18 18 17 17 17 20 22 21 20 20 20
34 29 27 26 28 27 27 29 29 29 28 29 30 29 29 29 27 27 25 24 24 22 21 20 18 19 17 18 16 17 19 19 17 17 17 19 20 18 17 22 24 23 22
30 27 25 24 26 26 27 29 29 28 28 29 29 30 29 28 26 24 23 22 23 22 21 20 19 18 18 20 22 19 19 18 18 21 21 21 19 21 24 19 19 19 17
27 25 23 23 26 26 26 24 25 26 29 29 29 30 30 30 26 24 21 21 22 23 21 21 19 16 21 19 18 17 16 17 19 20 20 23 21 18 18 17 18 18 19
26 23 21 23 24 25 24 24 25 27 28 28 28 30 31 30 27 24 21 21 23 22 22 21 19 19 20 18 18 16 17 17 16 16 18 17 16 17 19 20 21 22 22
24 23 20 22 22 23 23 25 26 27 28 27 27 29 30 30 26 23 21 22 23 23 22 22 20 18 19 19 17 17 17 16 16 14 13 15 19 21 22 24 24 23 21
21 24 24 24 23 22 23 25 27 28 27 27 28 29 30 30 27 24 22 23 23 23 23 21 20 18 18 18 16 17 16 17 16 14 17 19 19 22 23 23 25 23 23
25 24 23 23 23 23 25 26 26 26 27 27 27 29 30 30 30 25 24 23 22 23 22 21 22 20 20 18 16 17 17 17 16 18 18 18 22 21 21 22 24 26 25
27 28 26 26 26 24 25 26 27 27 27 27 29 29 30 29 28 27 25 23 23 21 22 22 23 21 19 18 17 16 15 17 18 16 16 18 19 20 21 22 24 26 26
28 29 28 26 25 25 25 26 26 25 24 26 27 27 29 29 29 29 26 25 24 22 23 24 23 22 21 19 18 15 15 17 17 13 14 15 17 19 21 22 23 24 25
27 26 26 26 26 26 26 26 26 25 25 27 27 27 27 26 25 28 27 26 25 24 23 25 25 22 20 19 19 20 17 17 14 14 13 15 17 17 17 20 21 22 23
26 25 26 27 28 29 28 26 25 26 26 26 27 28 29 28 28 26 27 30 30 29 24 22 20 21 20 19 19 17 16 16 14 14 13 14 15 15 15 17 21 21 21
25 27 28 29 29 29 28 27 27 27 27 26 25 26 28 28 26 27 27 26 25 24 22 20 20 21 22 20 19 18 16 15 15 14 16 15 16 15 15 16 18 19 18
28 28 28 28 28 28 27 27 27 29 29 29 28 27 27 26 27 27 27 27 27 25 23 21 20 21 22 21 19 17 15 15 15 16 14 15 16 17 15 15 15 16 15
28 28 28 28 29 30 29 28 28 27 27 27 28 29 29 28 28 27 27 27 26 26 24 23 21 22 21 21 19 17 17 18 17 18 15 16 15 16 16 14 13 15 15
28 29 29 30 31 31 31 30 29 29 30 28 28 29 30 29 29 28 28 26 24 23 23 24 22 22 24 21 19 19 19 19 18 15 16 16 15 17 15 15 13 13 13
27 27 28 29 31 30 30 30 31 30 29 28 27 28 29 28 28 27 27 27 25 24 23 24 25 23 24 23 21 21 20 19 19 19 18 14 15 15 15 14 13 12 12
29 30 29 30 30 31 31 31 32 31 30 29 27 28 30 30 29 29 29 28 27 26 25 25 25 24 25 24 23 21 21 19 18 17 17 15 14 13 16 16 14 13 12
30 30 30 30 30 31 32 31 30 27 26 27 30 31 28 30 30 29 29 28 29 29 30 30 27 26 26 25 24 23 21 20 20 18 17 17 13 14 15 15 15 12 12
27 28 30 29 29 30 30 29 28 29 28 27 29 29 28 30 30 29 29 29 29 29 28 29 30 28 27 26 26 23 23 22 21 19 18 16 13 14 14 13 13 13 11
24 24 26 27 31 30 30 29 29 27 27 27 28 29 30 30 29 30 31 31 31 30 30 30 30 30 29 29 27 25 23 22 21 19 16 14 13 13 13 12 10 12 11
25 25 26 26 28 30 30 28 27 26 26 27 28 29 29 30 29 29 30 31 31 31 31 31 30 30 29 29 28 26 23 21 19 18 16 14 13 12 11 10 10 10 11
26 27 28 28 28 28 26 24 23 23 22 22 22 23 23 24 26 28 29 29 30 30 30 31 31 31 30 29 28 26 23 21 18 16 17 15 13 13 12 13 11 9 10

GFSGL_sfc_30mbdewp_045.txt.gz
Dewpoint
41 40 39 36 35 35 34 32 30 30 29 27 27 28 29 31 31 31 30 32 31 30 30 29 28 27 23 23 23 21 19 18 17 18 19 20 20 20 21 22 22 22 21
40 38 37 36 36 33 31 30 30 29 29 27 28 28 30 30 30 29 30 31 31 30 28 26 24 22 20 22 20 17 17 18 17 17 18 18 19 20 20 20 20 21 21
37 36 37 36 35 33 32 31 30 29 28 28 28 29 30 30 28 29 30 30 28 25 23 22 21 20 20 18 17 16 17 17 18 18 17 18 18 19 19 22 22 23 23
36 36 35 36 34 30 30 29 30 29 28 28 30 30 31 29 28 30 28 25 24 23 23 22 22 19 16 15 16 15 17 18 19 18 17 17 18 20 22 20 22 23 23
35 35 35 35 31 29 29 30 31 29 28 29 29 31 31 29 29 27 25 24 23 23 22 22 20 22 23 21 16 18 19 18 18 18 18 19 19 20 21 24 19 18 18
35 32 29 29 29 32 30 29 29 29 29 30 30 30 30 29 27 25 24 22 22 22 21 23 21 19 22 22 21 21 19 17 16 18 18 19 19 22 20 17 17 17 16
29 27 27 29 29 28 27 26 25 26 28 29 29 29 30 30 28 26 23 21 21 22 23 22 21 21 20 18 18 18 17 16 19 19 18 18 19 17 16 17 18 19 20
27 28 28 27 26 26 26 25 26 28 29 28 28 28 31 31 29 27 24 21 21 23 23 22 21 20 20 19 17 17 16 17 17 17 17 15 16 18 21 21 22 23 23
27 25 27 27 26 26 26 28 28 28 29 28 27 28 31 30 30 27 23 21 22 23 24 23 23 20 20 20 17 16 16 16 16 17 16 19 20 20 22 26 23 22 20
27 27 28 28 27 28 28 28 28 28 27 28 28 29 30 30 28 27 25 22 22 23 23 23 21 18 19 20 18 16 15 15 17 16 17 19 20 22 23 22 22 21 22
29 29 29 29 28 28 27 27 25 26 26 27 28 28 28 29 29 29 27 23 23 22 23 22 22 21 21 21 19 18 16 17 18 17 18 17 19 20 21 22 23 23 23
30 30 29 30 30 29 27 27 27 26 26 27 26 28 29 29 29 30 29 27 24 22 22 21 22 24 23 22 21 20 19 19 16 16 16 14 16 17 18 21 22 24 24
29 30 31 30 29 28 26 26 27 27 26 25 26 26 27 29 29 30 30 29 27 25 22 22 23 24 23 24 22 21 21 17 15 16 13 13 14 17 19 18 20 21 24
28 28 28 28 28 28 28 28 27 27 25 26 26 26 27 27 27 27 28 29 30 26 24 23 24 25 23 21 21 21 20 18 16 15 12 13 16 16 16 17 18 21 21
26 27 27 28 28 29 30 28 27 27 26 25 25 26 25 26 28 28 27 27 26 26 26 25 24 21 19 21 20 20 19 17 15 14 13 15 15 16 16 17 18 19 18
26 26 26 27 28 28 28 27 28 27 28 29 28 28 27 28 29 29 28 28 30 28 25 22 19 18 19 20 22 19 18 17 16 14 15 14 15 16 16 17 17 17 16
24 25 26 27 27 27 27 27 26 27 29 29 29 29 29 29 27 30 28 27 27 26 23 21 20 19 17 20 23 20 17 16 15 16 14 13 15 15 16 16 15 15 14
26 27 27 27 28 28 28 28 28 27 26 25 27 28 28 29 29 31 30 30 26 27 25 23 21 20 19 21 22 20 18 16 16 17 15 12 14 15 15 15 15 13 13
28 28 28 28 29 29 30 30 31 30 27 27 28 28 28 29 30 31 30 28 25 24 24 23 23 22 21 21 21 20 17 16 16 15 15 14 16 14 13 14 14 13 11
32 32 31 30 30 30 30 30 30 30 30 30 29 28 27 27 28 28 29 28 27 25 24 23 23 24 23 23 24 22 18 18 17 16 15 18 13 13 12 13 15 13 12
25 27 27 27 27 28 29 29 30 30 30 29 29 27 27 27 28 27 27 27 27 27 26 25 24 24 25 25 24 22 21 20 19 18 18 15 13 13 11 14 14 15 12
25 24 23 22 23 24 24 27 29 29 28 27 26 26 28 30 29 29 29 29 29 28 28 26 26 26 25 24 24 22 20 20 19 17 16 15 14 12 12 15 13 13 11
18 20 22 22 23 24 26 26 28 28 28 27 27 26 27 28 28 29 29 29 30 30 30 30 29 29 27 26 26 25 22 20 19 19 17 16 15 12 13 13 12 11 11
22 22 22 24 25 24 25 25 26 28 27 25 25 25 25 27 28 29 29 30 31 31 30 30 30 29 29 28 27 27 24 23 21 20 17 15 14 12 12 11 9 10 10
17 18 18 19 20 20 21 22 22 21 20 20 20 19 20 21 21 23 24 26 29 30 28 29 31 30 30 29 29 27 26 24 21 19 16 14 13 12 11 10 9 9 9
14 15 13 14 14 16 17 17 18 18 17 16 16 16 18 18 18 18 19 18 17 17 25 29 30 31 30 30 29 27 25 25 22 18 16 14 12 11 11 10 10 10 9

GFSGL_sfc_30mbdewp_048.txt.gz
Dewpoint
43 41 40 39 39 39 36 35 32 34 35 31 28 28 29 32 31 30 29 30 31 31 30 29 27 26 23 22 22 20 18 17 14 16 19 19 19 19 20 21 21 21 22
41 40 37 38 39 37 35 34 35 34 31 29 28 28 30 31 31 29 28 30 30 30 28 23 22 22 20 22 20 17 17 17 17 15 17 18 18 19 20 20 21 22 23
40 38 39 40 38 38 35 33 34 32 29 28 28 28 30 31 30 29 29 30 30 27 23 22 21 22 20 20 17 16 17 17 18 18 17 18 18 19 20 22 21 22 23
39 40 40 40 38 33 34 32 30 29 28 28 29 30 31 32 30 29 30 30 26 24 23 22 22 21 17 16 16 16 17 18 18 18 18 18 18 20 21 20 22 19 17
41 40 39 38 34 33 31 31 31 30 29 29 29 31 31 31 30 30 27 25 24 23 23 22 22 21 24 23 17 18 19 18 18 17 16 18 18 18 19 22 18 16 17
39 38 38 32 33 33 33 31 31 30 29 29 30 30 30 30 29 28 26 25 23 22 21 22 23 23 22 22 23 22 20 17 16 16 18 18 17 20 19 17 17 17 17
33 33 33 32 31 30 29 27 27 27 28 28 30 30 29 31 30 29 27 23 22 22 22 23 22 21 22 19 19 19 18 18 16 17 17 17 16 15 16 18 20 21 21
30 29 29 30 30 30 30 29 31 30 29 29 29 29 29 31 30 30 28 23 22 22 23 23 22 21 21 19 18 17 17 16 16 16 18 17 17 19 21 23 24 24 23
29 30 31 31 30 29 33 32 31 29 28 28 29 28 28 30 32 31 28 23 22 24 25 24 23 22 21 21 19 18 17 16 14 17 17 19 18 19 22 22 21 21 18
29 30 30 31 35 35 31 30 29 28 26 27 27 28 29 29 30 31 29 24 23 26 24 23 23 20 21 20 20 19 16 14 15 17 17 17 18 18 20 21 22 20 20
34 35 38 36 31 29 28 28 27 27 26 26 27 28 28 29 29 30 30 26 24 25 23 23 23 22 22 22 22 20 18 17 18 19 17 18 17 18 18 19 20 22 21
35 34 31 30 30 29 29 28 28 27 27 26 26 26 27 29 29 30 30 30 27 24 23 24 23 23 23 25 23 23 23 22 20 18 16 16 14 14 16 18 20 21 22
30 30 29 29 29 29 28 27 27 26 26 26 26 26 26 28 29 30 30 31 31 27 25 24 23 23 23 24 24 24 23 21 19 17 15 15 13 15 18 18 18 20 22
27 26 27 27 27 28 28 28 28 27 25 25 25 25 25 26 26 27 28 29 30 29 26 27 24 23 24 23 23 21 21 20 19 16 15 13 15 16 16 17 17 18 20
26 26 26 26 27 27 28 29 28 27 27 26 25 25 25 24 25 27 27 26 27 28 27 24 24 23 23 23 21 21 21 20 18 16 13 14 14 16 16 17 17 17 16
25 25 25 25 25 26 27 27 29 28 28 28 28 27 27 27 28 29 29 30 30 28 26 23 23 21 21 20 19 19 20 20 18 16 13 15 13 15 15 16 17 15 15
26 26 26 26 26 26 26 26 26 27 29 29 29 28 29 29 29 29 29 30 31 30 25 22 22 20 19 19 19 20 20 20 18 15 16 14 13 15 15 15 15 14 13
29 29 29 28 28 28 28 28 29 28 28 28 29 29 30 29 29 29 30 30 29 28 26 23 22 20 20 20 20 20 21 20 16 15 15 14 12 14 14 13 15 13 12
23 25 26 27 28 28 29 29 29 29 29 29 29 29 29 29 29 29 30 29 28 25 25 25 24 23 21 21 21 21 20 19 16 15 15 14 13 15 14 12 14 14 12
24 24 24 24 24 24 23 23 23 24 26 28 28 28 28 27 26 26 27 29 29 27 25 24 25 25 23 22 21 21 20 18 17 16 14 13 15 13 13 11 13 14 13
16 17 18 20 21 21 21 22 22 23 24 24 26 29 28 26 26 27 28 27 28 28 26 26 25 25 24 23 23 23 22 20 19 17 16 15 15 13 12 11 14 14 12
19 19 20 21 21 20 22 24 24 25 25 25 27 27 26 25 26 27 27 27 27 28 28 28 27 26 25 25 24 24 23 21 20 18 17 16 14 13 11 13 13 11 11
17 17 16 16 17 18 19 20 20 19 22 25 25 23 23 22 23 24 25 28 29 30 30 29 28 27 26 26 27 27 24 22 21 19 17 15 14 13 11 13 12 10 10
13 15 12 12 12 13 15 15 18 17 16 16 16 16 16 17 18 20 20 20 20 20 26 30 30 29 29 28 28 28 27 26 24 21 19 15 15 13 11 11 10 9 9
10 11 8 9 9 10 10 12 11 11 11 12 12 13 14 14 13 13 15 15 15 16 16 17 25 30 29 29 29 28 27 27 24 23 20 17 15 13 12 11 9 9 8
8 8 7 6 6 7 7 8 7 8 8 9 10 10 10 12 10 10 11 10 11 12 14 14 17 23 30 30 30 29 27 26 24 22 20 18 15 12 11 11 9 9 8

GFSGL_sfc_30mbdewp_051.txt.gz
Dewpoint
49 45 43 42 40 40 39 37 37 38 38 40 36 31 31 32 32 31 30 29 29 30 30 29 28 27 24 23 23 21 19 18 15 15 18 18 18 18 18 20 21 21 22
46 44 41 41 40 38 36 35 38 43 40 34 34 30 30 31 31 30 29 29 29 29 30 27 23 23 22 22 21 19 18 17 16 15 17 18 18 18 19 20 20 22 22
44 42 40 40 39 37 37 40 43 37 35 33 30 28 29 30 31 30 29 29 30 30 29 23 21 22 21 21 20 18 17 17 18 17 18 18 18 18 19 21 21 22 22
41 40 41 40 40 40 42 39 36 34 30 29 29 29 30 31 31 31 29 30 31 30 25 24 22 22 21 19 17 17 16 16 18 18 17 16 16 19 20 19 19 19 16
41 42 43 42 40 38 35 33 31 30 29 29 29 30 30 32 31 30 30 29 27 26 24 24 23 22 23 21 19 18 17 18 18 17 16 14 16 17 18 19 17 16 17
44 43 40 36 34 33 33 33 32 30 30 30 30 30 31 30 29 30 30 28 26 24 23 23 22 24 25 24 25 22 20 18 16 16 14 14 16 17 16 16 17 18 16
39 36 36 35 34 32 30 29 29 29 34 33 30 30 29 30 30 30 30 27 25 24 23 22 22 22 22 22 24 22 20 20 19 16 14 16 17 16 16 18 19 20 21
34 33 32 31 30 30 30 33 36 37 33 30 28 29 30 29 30 31 31 28 24 23 23 23 23 25 22 21 19 18 18 18 17 15 16 17 18 18 19 21 22 22 21
31 31 31 30 31 33 35 37 36 31 29 28 28 28 28 28 29 31 31 29 25 23 23 24 28 24 23 24 20 19 19 18 16 16 18 19 19 18 18 19 18 19 16
30 30 31 32 36 38 37 33 30 29 28 27 26 27 27 27 29 31 32 29 26 25 24 26 26 25 22 23 21 19 19 18 15 14 17 18 18 18 18 18 19 18 17
34 37 40 38 34 31 29 28 28 28 27 27 27 27 27 27 28 30 31 29 27 26 25 25 25 24 24 23 23 21 20 19 17 18 19 19 18 18 17 17 19 19 18
34 33 31 31 30 29 28 28 28 27 26 26 26 26 26 27 28 29 30 31 28 26 26 26 25 25 26 24 24 24 24 23 22 21 19 18 16 16 15 17 19 19 20
29 29 29 28 28 29 28 27 27 26 26 26 26 26 25 26 26 28 30 31 31 29 28 27 26 26 28 25 25 26 25 23 21 19 18 17 15 14 17 18 18 18 19
26 26 26 26 26 26 27 27 27 27 27 27 26 25 25 25 25 26 26 27 30 31 30 29 27 27 26 24 24 25 24 21 20 19 17 15 14 15 15 17 17 17 17
25 26 26 26 26 26 26 26 26 27 28 27 27 27 26 24 24 26 26 25 26 27 28 28 25 24 23 23 23 22 22 20 20 18 17 15 14 15 15 16 17 17 14
28 28 28 27 27 27 27 27 28 28 28 29 29 29 28 27 27 28 30 29 30 29 27 25 23 23 23 22 21 21 20 19 20 19 17 15 14 14 14 16 16 15 14
24 26 27 26 26 27 27 27 26 27 28 28 29 30 30 30 31 32 32 32 30 30 27 25 23 23 22 21 21 20 19 19 19 20 17 14 14 13 14 15 14 14 13
23 23 23 23 24 24 24 23 23 22 21 21 22 26 29 30 30 31 32 31 29 29 28 25 22 22 22 21 21 20 20 20 19 19 16 15 14 12 14 14 13 13 13
18 18 18 19 20 21 21 21 21 21 21 21 21 22 24 28 29 31 31 29 28 27 26 26 25 24 22 22 22 21 20 19 18 17 16 14 13 12 14 13 12 14 13
17 18 19 19 20 19 18 18 19 21 22 22 22 22 23 25 26 25 25 25 26 27 27 26 26 25 25 23 22 21 20 19 18 17 15 15 14 12 14 13 10 13 14
18 17 17 17 17 17 17 17 19 19 17 17 18 23 25 26 26 25 26 27 25 25 28 26 25 25 26 25 23 22 21 20 19 18 17 16 14 13 14 12 11 13 13
14 15 13 12 14 13 13 15 16 15 14 15 14 16 17 17 18 21 22 21 21 25 28 28 27 26 26 25 24 23 22 22 21 20 19 18 16 14 13 11 12 12 11
12 11 8 9 10 10 10 10 12 10 11 11 12 13 13 14 13 12 13 15 15 16 17 18 24 28 27 26 26 26 24 23 22 22 20 18 16 14 11 11 12 10 10
9 9 6 6 7 7 7 7 8 7 7 7 8 9 10 11 10 9 10 10 10 11 14 15 16 18 26 27 27 27 27 26 25 23 22 18 17 14 11 11 11 9 9
6 5 5 4 4 4 4 4 4 4 4 5 5 6 7 8 8 7 8 7 7 8 10 12 14 14 15 17 27 28 27 27 26 24 22 19 17 15 13 12 10 9 8
5 3 3 3 2 1 0 2 1 1 2 3 4 4 5 6 6 5 5 5 4 6 7 9 11 13 14 17 20 29 28 27 26 23 22 20 17 15 14 12 10 9 9

GFSGL_sfc_30mbdewp_054.txt.gz
Dewpoint
56 55 53 50 47 44 42 40 40 39 39 40 41 41 36 34 34 33 31 30 31 30 31 30 29 28 27 24 24 23 21 21 18 17 18 18 18 18 19 19 21 21 22
53 50 49 46 44 43 41 40 40 41 41 43 40 34 32 33 32 32 31 30 30 29 29 30 28 27 25 23 22 21 20 19 17 15 16 17 18 18 18 18 20 20 22
49 47 46 44 43 41 40 40 42 43 42 37 35 34 32 31 32 32 32 31 30 29 29 29 27 23 21 22 22 21 19 18 18 17 17 18 18 17 17 20 20 20 21
46 46 44 43 42 40 40 43 42 39 36 35 33 31 32 31 32 32 31 30 30 30 30 29 25 23 21 23 21 20 18 17 17 17 18 17 16 16 19 19 17 16 17
45 44 44 43 40 41 42 38 37 37 34 31 32 32 31 32 32 31 31 30 29 29 28 26 25 24 25 24 19 18 18 17 17 18 17 16 15 14 14 18 16 17 18
44 44 42 41 40 37 35 36 35 32 31 30 34 33 33 31 31 31 31 30 29 27 26 25 24 25 26 27 28 29 21 17 18 17 16 15 13 14 17 17 17 17 14
41 39 38 37 35 34 33 31 30 33 38 36 37 34 30 31 31 31 30 30 28 27 25 24 23 22 23 23 24 26 25 23 20 18 17 15 14 16 17 17 18 18 18
34 34 33 31 31 32 35 37 38 38 38 37 31 30 29 29 29 30 30 31 28 26 25 24 23 23 23 25 22 20 20 19 19 19 17 16 17 18 19 19 20 20 18
30 30 31 33 35 36 37 38 39 37 32 30 29 28 27 27 28 29 29 30 29 27 25 24 24 24 26 27 24 21 19 19 19 21 18 19 20 20 20 19 15 16 15
31 33 37 39 40 39 38 35 32 30 29 29 28 27 27 27 28 28 30 30 29 28 27 25 25 26 27 26 24 22 20 19 19 16 14 17 19 18 19 18 18 16 15
38 40 39 37 33 32 30 29 28 28 28 27 27 27 27 27 27 28 29 31 29 28 27 26 26 27 28 27 25 23 21 20 20 18 16 19 20 19 18 17 17 18 16
32 32 31 30 29 29 28 28 27 27 27 26 26 26 27 27 28 28 29 31 30 28 27 27 27 27 28 27 27 26 24 23 23 21 21 20 20 18 17 16 18 19 20
27 26 26 27 27 27 27 26 27 26 26 25 26 26 26 27 27 27 28 29 31 30 29 28 28 28 28 29 29 28 25 25 24 21 20 20 19 18 16 18 18 18 19
26 26 27 27 27 27 27 27 26 26 26 26 26 26 26 27 27 26 26 26 28 30 30 30 29 28 28 29 28 28 27 25 24 21 20 19 17 16 15 17 16 16 17
26 26 26 25 25 25 25 26 26 27 27 27 27 27 27 27 27 29 28 28 27 28 27 28 27 26 25 24 24 24 25 24 22 21 19 19 17 15 15 16 16 16 15
23 24 24 23 23 23 24 22 23 23 24 24 25 25 25 26 27 29 30 31 32 31 27 26 26 25 24 23 23 23 23 22 22 21 19 18 18 16 14 15 16 15 14
20 20 20 20 20 21 21 20 20 20 21 21 21 22 23 23 24 25 27 27 30 32 28 26 26 25 24 24 24 22 21 21 22 20 19 18 18 15 14 14 15 14 14
17 18 18 19 19 20 20 18 17 17 18 20 18 18 20 20 23 24 25 28 28 30 29 27 26 25 24 23 23 22 22 22 20 19 18 18 16 14 14 13 14 12 13
17 17 18 18 19 18 17 17 17 18 19 16 16 16 16 17 17 23 25 25 27 26 27 27 27 26 24 23 24 23 22 21 20 18 18 17 15 14 14 13 14 12 13
16 17 15 16 15 15 14 14 15 16 14 13 14 13 14 14 13 14 17 24 24 25 25 25 27 27 26 25 23 23 21 20 19 17 17 16 14 13 15 13 12 11 14
14 14 12 12 12 12 12 12 12 11 10 10 10 12 12 13 12 12 12 13 13 15 16 17 24 26 26 26 24 23 22 20 20 18 18 16 15 15 15 14 12 11 13
12 9 9 9 9 9 9 8 10 7 7 7 7 8 9 9 11 9 9 10 10 11 12 14 15 16 24 26 25 24 22 21 20 19 18 17 16 16 15 13 12 12 12
9 6 5 6 5 5 4 4 6 4 5 4 4 5 6 6 7 7 7 8 8 8 9 10 12 13 15 16 23 26 24 23 23 22 20 18 17 16 14 13 12 12 11
5 3 4 3 2 2 0 -0 2 1 2 2 2 3 3 4 5 6 5 6 6 6 7 7 9 10 12 13 15 19 27 27 26 24 23 20 18 16 14 13 12 11 10
3 0 1 1 -0 -2 -3 -3 -1 -3 -2 -1 -0 1 2 2 2 3 3 4 4 4 5 6 6 7 9 10 12 16 18 26 27 25 23 21 19 16 15 13 12 10 9
2 -1 -1 -0 -3 -4 -6 -6 -5 -5 -5 -4 -2 -2 -1 0 1 1 1 2 2 2 3 4 4 5 7 9 12 14 15 20 27 25 23 21 18 16 15 14 12 10 10

GFSGL_sfc_30mbdewp_057.txt.gz
Dewpoint
56 56 56 55 55 52 49 45 43 41 41 38 40 42 43 39 36 35 34 33 33 32 32 32 31 31 29 29 28 26 24 23 22 20 18 18 19 18 18 18 15 14 15
56 56 56 55 52 50 47 44 43 41 41 41 42 42 38 37 36 34 33 32 32 32 31 31 31 30 30 29 27 24 22 24 23 18 17 17 18 19 18 17 13 13 16
55 54 52 50 49 47 44 43 43 43 43 43 41 38 37 36 37 35 33 33 32 32 31 31 30 31 29 27 25 23 24 25 20 18 17 17 18 18 17 14 11 14 13
50 49 48 47 46 45 44 44 44 43 41 39 38 37 38 37 35 33 32 33 33 32 32 32 31 31 28 26 24 23 25 22 19 18 18 17 17 17 16 10 10 12 11
48 47 46 45 44 43 43 42 40 39 38 39 38 37 36 34 35 34 32 32 32 32 32 32 31 31 28 26 23 23 22 21 20 20 17 17 16 15 13 9 12 12 13
46 45 43 42 41 39 39 39 39 39 37 35 34 35 36 35 35 35 32 32 31 31 30 30 29 28 28 29 29 28 26 24 25 20 18 17 16 16 13 11 13 13 11
42 41 39 38 37 37 36 34 33 35 38 38 39 38 37 38 34 31 31 31 31 30 30 29 28 25 26 25 26 26 27 28 24 21 21 19 19 17 10 13 14 13 14
35 34 33 33 33 35 38 39 39 39 40 40 39 37 34 31 30 30 30 30 31 30 30 29 29 28 27 26 25 25 25 24 24 22 21 20 19 14 14 17 18 18 15
32 34 36 37 38 39 38 39 40 40 37 34 32 31 30 30 30 28 29 29 29 29 30 29 28 28 27 26 26 27 25 22 21 22 21 22 21 20 21 19 17 15 14
37 38 39 40 40 39 37 35 33 32 30 29 29 29 29 29 30 29 29 30 31 30 29 30 29 28 27 26 27 29 26 24 20 19 19 18 18 17 19 19 17 16 14
40 37 34 32 31 31 30 30 29 28 29 29 29 29 29 28 28 29 29 30 30 30 29 29 29 28 28 28 28 29 28 26 23 20 19 17 16 17 18 17 17 16 16
30 29 28 28 27 27 28 28 27 27 28 28 29 29 29 29 29 29 29 29 29 30 30 30 30 29 29 29 29 29 28 26 25 23 22 21 20 20 19 17 17 17 17
27 27 28 28 27 27 26 26 26 25 25 25 24 25 24 26 26 28 29 29 28 29 32 32 30 29 29 29 29 29 28 28 27 24 22 21 21 20 20 19 18 18 17
26 25 24 22 20 19 18 18 18 19 20 20 21 21 22 22 22 23 26 27 27 29 29 31 32 31 31 31 30 30 30 30 27 25 23 22 22 21 20 19 18 18 16
22 19 16 16 16 15 16 18 18 19 21 21 21 21 22 22 23 23 24 25 25 26 28 29 30 29 28 28 28 28 28 29 27 26 25 23 22 21 20 19 18 17 15
14 14 16 16 17 17 16 15 18 19 20 20 21 20 20 20 19 19 20 22 25 26 26 26 27 28 27 27 26 26 26 26 26 25 25 24 23 21 20 19 18 17 15
13 14 14 16 16 16 16 15 14 15 17 19 17 17 16 16 17 18 18 20 25 26 25 26 27 28 27 27 26 25 24 25 26 25 24 23 23 20 20 19 18 17 15
15 17 15 16 16 15 14 14 15 14 15 14 13 14 13 13 14 15 16 16 17 21 25 25 27 29 29 27 27 26 25 25 25 25 24 23 22 20 21 19 18 17 15
13 13 14 15 14 14 13 13 13 13 12 11 10 10 11 11 12 12 13 14 14 14 16 16 23 28 28 26 26 27 26 26 25 25 24 23 22 21 21 19 18 16 15
12 13 11 11 11 11 10 11 10 10 8 9 8 8 8 9 9 11 10 11 11 11 12 13 15 17 21 28 28 28 26 25 25 24 24 24 22 21 21 19 19 18 15
11 9 9 9 8 8 8 8 8 8 6 6 6 7 6 7 7 8 8 8 9 9 9 10 12 13 15 19 23 27 26 25 24 24 23 23 22 20 20 20 20 17 15
9 6 7 7 6 6 5 5 6 5 4 4 4 4 4 6 6 5 7 6 7 8 9 9 9 11 12 14 15 17 24 25 24 24 24 23 21 20 20 20 19 18 16
5 5 5 4 4 3 3 2 3 3 2 3 3 2 3 4 4 4 5 5 5 6 7 7 8 8 10 11 13 15 16 20 26 26 24 23 21 21 21 20 18 17 16
4 3 2 2 2 1 1 0 0 -0 -1 -0 1 1 1 1 2 2 3 3 3 4 5 6 7 8 8 8 10 12 15 16 18 25 26 24 22 21 21 20 18 16 16
4 3 2 2 1 0 -1 -2 -2 -2 -2 -1 -1 -1 -1 -0 -0 0 2 1 1 1 2 3 6 7 7 6 7 10 13 12 13 17 26 25 23 22 20 19 18 16 15
4 1 1 1 0 -1 -2 -3 -4 -3 -3 -3 -3 -2 -2 -2 -2 -1 -1 0 -0 -0 0 2 3 4 5 6 7 9 8 9 13 15 23 25 23 21 20 20 18 16 14

GFSGL_sfc_30mbdewp_060.txt.gz
Dewpoint
55 56 57 56 56 56 56 54 51 50 47 44 41 41 43 44 41 39 37 36 36 34 32 31 30 31 30 28 27 27 25 23 21 19 20 20 20 21 21 19 19 17 13
55 56 56 56 56 55 54 51 50 46 43 42 42 44 43 41 39 38 37 38 35 32 31 31 30 29 29 29 28 26 24 23 21 20 21 19 19 19 20 19 18 14 12
56 56 56 56 55 52 49 45 44 43 43 44 44 43 39 39 38 38 39 37 33 32 30 30 30 30 29 28 27 25 24 22 21 22 20 19 19 19 18 17 16 12 11
54 53 51 50 48 46 45 45 44 44 44 44 41 40 39 39 40 40 36 34 33 30 31 31 30 30 28 27 26 25 23 22 22 21 19 18 18 18 18 14 13 9 9
50 49 48 47 46 45 45 45 44 43 41 40 39 40 41 40 39 38 35 35 32 31 31 31 31 30 30 30 26 23 23 22 21 20 19 19 19 17 14 14 13 9 11
47 45 44 44 43 43 42 42 42 41 40 39 39 38 38 38 38 36 36 37 33 31 30 29 28 30 31 32 30 28 26 24 22 22 23 24 21 18 15 15 12 9 10
44 43 42 42 41 41 39 37 36 36 36 36 38 39 39 39 38 38 37 31 30 30 29 28 27 25 27 29 30 29 29 29 27 25 24 25 22 17 17 16 11 11 12
40 39 39 38 36 37 38 38 38 38 38 40 40 40 39 35 32 31 30 29 27 26 26 27 27 26 26 27 28 26 26 26 28 28 25 22 20 19 18 15 15 16 16
37 37 38 38 38 38 39 39 40 40 40 37 33 31 30 30 30 30 30 28 27 27 27 27 26 26 26 28 28 28 26 26 27 24 24 24 23 23 21 17 17 15 16
38 37 38 38 38 38 36 35 34 31 29 29 27 27 27 27 28 29 29 28 28 28 28 27 27 28 28 30 30 29 29 27 26 26 23 23 24 22 23 20 18 16 15
37 36 35 33 33 31 30 28 27 25 26 28 28 29 29 29 30 30 30 29 28 29 29 29 29 29 30 30 30 30 31 29 27 26 24 23 21 18 16 18 18 17 16
32 29 27 26 24 25 26 26 26 26 27 26 28 24 24 23 24 23 25 27 27 26 25 26 29 31 33 33 30 30 30 30 30 32 26 23 22 20 18 18 19 18 17
27 26 26 25 24 23 22 22 19 17 16 17 17 19 18 20 20 21 22 22 23 25 25 26 27 29 30 32 32 31 31 31 31 29 27 26 25 23 22 22 20 19 18
24 23 22 17 16 13 11 11 11 16 17 16 17 19 19 18 18 19 19 20 20 22 24 26 26 26 27 29 31 32 31 31 30 29 27 26 27 26 23 22 21 21 20
18 15 13 14 11 10 11 14 15 18 19 18 19 18 18 18 17 18 18 19 21 22 24 26 25 24 22 23 27 30 32 31 30 30 29 29 29 26 25 23 23 20 18
10 11 15 14 14 12 10 11 19 18 18 20 18 17 17 16 15 16 16 16 18 19 24 25 26 26 25 22 24 27 30 29 28 29 28 28 27 26 24 25 22 21 18
10 11 12 14 13 13 12 12 12 15 16 17 14 14 14 14 14 14 14 15 16 17 19 20 21 23 28 26 25 27 29 30 27 27 27 28 26 26 26 25 23 19 19
13 14 13 13 13 13 13 13 13 13 14 13 13 11 11 11 12 13 13 13 13 13 15 15 18 19 21 25 30 29 29 28 28 27 28 28 27 26 25 22 21 20 19
10 10 13 15 14 13 13 13 12 12 12 11 10 9 10 9 11 11 11 12 12 11 12 13 14 15 18 19 23 29 29 28 29 29 28 27 27 26 24 22 20 19 19
11 12 11 11 11 11 11 11 10 11 10 10 9 10 9 7 10 10 11 11 11 10 11 11 12 13 14 17 19 22 25 29 28 27 28 27 28 26 24 22 21 22 18
8 8 10 8 9 9 9 9 9 9 9 8 8 9 6 6 9 9 9 9 9 9 10 10 11 11 12 14 15 16 18 21 28 27 27 27 28 26 24 23 22 21 18
8 6 7 8 7 9 7 7 8 8 7 7 7 7 5 7 8 7 7 7 9 8 8 9 10 10 11 12 12 13 15 17 21 24 27 27 27 26 25 22 22 22 18
7 8 7 6 7 6 7 7 7 7 6 6 6 5 6 6 6 5 6 6 7 6 7 7 7 8 9 12 11 12 13 14 18 18 17 26 26 26 25 23 22 22 19
7 7 5 5 6 5 6 6 6 4 4 4 5 5 5 4 5 5 5 6 5 5 5 5 4 5 7 8 10 11 12 14 14 14 16 18 26 26 26 24 22 20 19
7 7 6 6 6 6 5 5 4 4 4 4 4 4 3 3 3 4 4 4 3 3 3 4 4 5 5 5 7 9 11 11 10 11 14 17 23 26 25 25 24 22 20
6 5 5 5 5 4 4 3 3 2 2 2 2 3 3 2 2 3 2 2 2 2 2 3 4 4 4 5 7 10 10 8 9 11 12 14 18 26 25 24 24 22 20

GFSGL_sfc_30mbdewp_063.txt.gz
Dewpoint
55 57 59 59 58 58 57 56 56 55 53 52 50 44 43 44 45 43 40 39 38 37 37 37 34 33 31 30 29 27 26 25 23 22 21 21 22 23 21 23 22 21 21
55 56 58 57 57 57 57 57 55 53 49 46 43 44 44 44 43 41 39 39 38 38 38 36 34 31 32 31 30 28 27 26 24 23 22 21 23 22 23 22 21 18 18
53 55 57 57 56 54 50 48 46 45 44 44 45 44 44 42 39 39 40 40 41 41 38 35 33 32 32 30 29 28 27 24 24 23 22 22 22 21 20 21 22 22 17
56 55 53 51 49 47 46 45 44 44 44 44 44 41 41 40 40 39 40 41 39 38 37 35 33 32 30 30 29 29 27 27 25 23 22 22 21 20 19 19 21 20 17
51 50 48 47 47 46 45 45 45 45 43 41 41 41 40 40 41 41 40 39 38 37 36 34 33 32 31 31 29 29 28 26 24 22 21 20 18 19 18 21 21 18 16
48 47 46 46 45 45 44 43 42 42 41 40 40 40 40 40 40 40 39 37 37 36 34 31 31 31 31 31 31 31 31 30 28 25 23 22 21 22 24 24 23 18 15
45 45 44 44 43 43 43 41 41 40 40 39 39 39 39 39 39 38 38 37 33 30 29 29 28 26 26 26 29 31 31 31 29 28 27 26 25 25 25 26 21 18 16
44 43 43 41 39 39 39 39 39 38 38 38 39 40 40 39 39 38 33 30 29 28 27 26 27 27 28 27 27 28 29 31 31 29 27 26 26 26 25 23 21 18 16
40 39 39 40 40 39 38 38 39 39 39 40 38 35 31 30 30 29 29 26 26 26 26 25 25 27 27 28 28 28 28 29 29 32 31 29 28 24 23 22 22 20 20
39 39 39 39 38 39 40 39 39 37 31 29 27 26 26 26 31 30 29 29 29 29 27 27 28 29 30 31 32 31 29 29 29 29 32 30 26 24 25 23 21 20 19
39 38 38 37 36 35 32 30 28 26 25 28 29 30 29 28 27 25 25 23 24 24 24 24 25 25 26 28 31 29 32 33 31 30 31 32 31 26 24 24 22 20 20
35 33 31 28 25 26 26 25 24 25 26 25 24 21 23 23 22 25 22 21 21 20 20 22 23 24 25 25 26 27 30 32 33 32 33 32 30 27 25 23 23 23 23
30 28 26 24 22 22 21 20 16 15 17 19 18 20 19 21 19 22 19 18 19 20 20 22 22 23 25 27 27 29 30 30 31 30 31 31 30 27 25 25 24 23 24
26 24 21 19 16 12 10 10 12 17 18 16 17 19 19 19 18 19 16 17 17 18 19 22 22 24 26 26 26 27 28 29 30 30 31 31 30 27 27 28 26 26 24
20 16 15 14 11 10 11 13 16 21 18 18 20 18 19 19 18 16 16 16 17 17 20 22 23 24 24 24 26 25 24 29 30 30 31 31 31 29 29 29 27 25 25
13 14 17 16 15 10 9 16 16 16 18 21 17 16 17 17 15 15 15 15 15 16 17 18 21 21 21 22 24 24 27 26 31 31 31 29 27 27 28 29 27 27 24
14 14 14 15 13 13 12 12 12 19 18 19 16 14 13 13 13 13 14 13 15 13 13 13 17 19 19 20 22 23 26 27 31 31 30 28 27 28 28 27 27 26 24
13 14 14 14 14 14 13 14 14 15 16 16 16 12 11 12 12 12 12 13 13 11 11 11 12 15 17 16 18 20 22 26 31 31 28 28 29 28 27 27 27 26 24
11 12 16 17 16 15 14 14 14 14 14 13 12 12 12 11 10 13 13 13 12 11 10 10 11 12 14 16 17 18 20 22 25 30 28 28 30 29 27 27 27 24 23
10 12 14 12 12 12 12 13 11 12 12 12 11 11 12 9 10 12 12 12 11 11 10 9 10 12 14 15 16 16 16 18 20 24 29 29 29 28 27 27 26 24 20
8 10 11 9 10 10 11 12 10 11 11 10 10 12 9 7 9 10 9 9 9 9 9 10 10 12 13 13 14 13 14 15 18 21 23 26 29 27 28 28 26 24 23
9 8 9 10 9 11 10 9 10 10 10 9 9 9 8 9 9 8 8 8 10 9 10 9 10 10 10 11 13 13 12 13 15 18 17 18 20 27 28 27 26 25 21
10 11 9 7 10 9 10 10 10 10 9 9 8 8 9 8 8 7 8 8 8 9 9 9 9 9 7 9 11 12 12 12 13 16 14 14 16 19 28 26 26 25 22
10 10 8 7 9 8 10 10 9 8 8 7 8 8 7 7 7 7 7 8 7 7 8 9 8 6 7 9 9 10 10 12 13 14 13 13 13 16 20 27 26 25 23
10 10 9 9 9 9 9 8 8 8 7 7 7 6 5 5 5 5 6 6 6 6 6 6 7 8 7 7 8 7 9 12 12 11 11 13 13 14 16 24 26 25 24
9 8 8 9 8 8 7 7 7 6 5 5 4 4 4 4 4 4 4 4 5 4 4 6 5 5 6 7 7 8 9 8 9 9 11 11 12 13 16 24 26 26 24

GFSGL_sfc_30mbdewp_066.txt.gz
Dewpoint
55 56 57 59 60 60 59 58 58 57 55 53 52 49 47 44 44 44 43 41 39 39 39 38 37 39 38 36 35 34 31 30 27 27 27 26 25 26 26 28 26 25 25
56 57 58 60 60 58 57 57 57 55 54 51 48 45 44 44 45 42 41 40 38 38 38 39 40 40 37 36 34 33 32 30 28 27 27 27 26 25 25 26 25 23 23
58 58 59 58 57 54 52 50 49 48 47 45 45 44 45 43 42 41 40 39 39 39 40 40 40 38 36 34 34 33 32 31 30 29 28 27 27 26 25 25 25 25 25
56 54 51 50 49 48 47 46 46 45 45 45 45 43 42 41 40 40 40 40 41 41 41 40 39 37 35 35 34 33 32 31 30 29 29 27 26 25 25 22 22 25 24
50 49 47 47 46 46 45 45 45 45 44 43 42 42 41 40 40 40 41 41 40 39 39 39 37 37 35 34 32 32 31 31 29 27 26 25 24 23 22 23 23 25 25
47 46 47 46 46 45 44 43 43 42 42 41 41 41 40 41 41 41 40 39 38 37 38 38 37 34 34 34 33 32 31 30 30 30 29 27 25 25 26 26 26 25 25
47 46 45 45 44 44 43 42 41 41 41 41 40 40 40 40 39 39 38 38 38 36 33 31 31 29 29 29 30 30 32 32 31 31 30 30 28 27 27 25 26 26 24
45 45 45 44 43 42 41 41 41 41 39 39 39 39 40 40 39 39 39 37 32 30 30 29 29 29 30 31 30 30 30 30 32 32 31 31 31 30 28 26 26 25 23
44 43 41 41 40 40 40 39 39 39 39 40 40 40 39 32 32 30 29 31 31 30 30 28 27 25 26 27 26 26 27 29 32 31 32 33 31 31 29 25 23 22 23
40 40 41 40 39 39 39 40 40 39 39 38 32 29 26 30 27 25 24 26 26 25 25 24 24 24 25 26 26 27 26 26 27 28 28 31 34 33 30 27 26 23 23
40 40 39 39 40 40 39 39 37 30 30 30 30 31 28 28 27 25 24 23 22 21 21 21 22 23 23 23 23 23 22 23 23 25 27 28 32 33 31 26 24 24 22
39 38 37 36 33 31 28 26 25 29 29 28 24 23 25 26 25 23 21 20 19 19 19 20 21 21 22 23 24 25 26 27 27 26 26 26 29 32 32 27 25 25 24
34 31 28 26 26 26 26 23 21 21 21 21 20 22 23 23 25 22 18 17 18 19 19 19 19 20 22 24 26 27 27 26 25 26 26 24 26 32 32 29 31 27 25
29 27 25 22 18 14 12 14 22 23 20 18 19 21 23 21 21 19 18 18 18 19 18 19 20 21 22 22 22 22 24 24 28 28 27 28 29 32 30 31 28 25 24
26 21 16 15 14 14 17 18 23 18 20 21 22 20 20 20 18 17 16 17 17 17 18 18 19 19 18 18 18 20 20 22 22 28 29 28 28 30 30 31 30 28 26
18 20 22 19 16 13 17 16 19 18 21 20 17 17 17 17 15 15 15 15 15 16 17 17 16 16 16 16 16 17 18 19 22 22 30 30 30 30 30 30 30 28 26
19 19 18 18 17 16 14 16 21 19 21 20 18 16 14 14 14 14 14 14 15 17 15 15 14 15 14 14 15 15 16 17 20 22 28 30 30 30 28 29 28 27 26
16 17 18 18 18 17 17 17 16 17 18 21 19 16 14 13 14 13 14 14 15 14 14 13 13 13 13 13 13 14 15 15 16 18 20 28 29 29 28 28 28 27 26
17 19 21 21 18 16 16 16 16 15 16 16 15 16 14 14 12 12 15 15 14 13 13 12 11 12 12 13 13 13 14 14 14 16 18 21 27 28 27 27 27 27 27
14 15 18 17 15 14 14 15 14 14 15 15 14 15 16 12 11 11 15 13 13 13 12 12 11 12 11 11 12 12 12 12 12 13 15 18 18 23 27 27 27 26 25
21 17 15 12 13 13 14 14 13 13 14 13 13 14 10 9 10 12 13 12 13 13 11 12 13 11 11 10 10 10 10 11 11 12 13 15 14 15 18 26 28 27 26
16 13 13 14 12 14 13 11 12 12 13 12 13 12 11 11 13 13 11 12 12 11 12 11 10 10 9 10 9 7 10 8 10 11 10 12 12 13 15 17 27 26 25
16 15 12 10 12 11 13 13 13 13 13 11 11 12 12 12 12 11 11 10 11 11 10 10 8 9 8 6 7 9 10 9 9 9 10 10 10 10 12 15 18 26 25
13 12 10 10 12 10 12 14 11 12 11 11 12 11 11 11 10 9 9 10 10 9 7 8 9 5 5 9 10 8 8 7 8 10 12 9 8 9 12 12 14 22 25
13 12 11 12 12 13 12 12 11 11 12 11 10 11 9 9 9 8 8 9 7 6 8 4 4 7 7 6 7 6 8 11 11 7 7 8 8 8 10 11 13 16 25
12 11 11 11 11 12 11 10 10 9 9 9 9 7 8 7 6 5 6 5 6 6 3 3 4 4 4 5 7 8 7 7 6 6 8 9 9 8 9 12 13 15 24

GFSGL_sfc_30mbdewp_069.txt.gz
Dewpoint
53 54 54 56 58 58 58 58 59 58 55 54 52 51 49 47 46 45 44 43 41 40 40 40 40 40 38 39 39 37 35 33 31 29 29 28 27 26 26 31 28 29 28
54 55 56 58 59 59 59 58 57 55 54 53 50 48 47 46 45 44 42 41 40 40 40 38 38 38 39 40 39 37 35 33 31 29 29 29 28 28 27 26 26 28 26
59 59 59 58 59 58 55 54 54 52 51 49 48 46 45 45 43 42 41 41 40 40 39 39 39 40 40 39 38 36 34 33 32 31 30 30 29 29 28 28 27 27 26
55 53 51 50 50 49 49 48 48 47 46 46 45 45 43 42 42 41 41 40 40 40 41 42 41 40 39 38 36 34 34 33 33 31 31 31 29 29 28 26 24 24 23
50 49 47 47 47 47 46 46 45 45 44 44 43 43 42 42 41 40 40 40 40 41 40 39 39 39 38 37 36 35 33 33 32 31 31 29 27 26 24 24 24 25 26
48 47 47 46 45 45 45 44 43 43 43 42 42 41 41 41 40 40 41 41 39 38 37 38 38 37 33 32 32 31 32 32 32 31 31 31 30 27 27 27 27 28 26
47 46 46 45 44 44 43 42 42 42 42 41 41 41 40 40 40 41 40 39 38 37 36 32 31 30 30 28 27 27 27 29 30 30 30 30 30 31 30 30 28 31 28
45 45 45 44 43 42 42 41 41 41 40 40 40 40 39 39 39 39 38 38 36 32 30 28 27 25 25 27 25 24 25 26 27 28 30 31 32 32 32 32 31 32 31
45 44 44 43 42 42 41 40 40 39 39 38 39 39 37 33 34 31 31 30 27 26 25 23 23 23 25 25 24 22 20 19 18 21 25 27 29 27 28 32 31 29 27
44 43 42 41 41 40 39 39 39 39 39 40 39 34 30 27 25 26 26 25 21 20 21 22 22 23 24 24 22 22 22 22 23 24 25 24 25 26 27 32 31 29 27
41 41 41 40 39 39 40 40 39 38 33 31 30 30 28 27 26 25 23 20 19 18 20 20 21 21 20 21 24 24 25 26 26 27 26 25 24 25 27 31 32 31 28
41 40 40 40 40 40 39 36 32 31 30 28 25 27 27 25 24 22 21 20 20 18 19 20 20 19 21 23 24 24 24 24 26 24 25 26 26 25 26 27 31 31 30
38 38 37 35 31 28 26 28 27 27 24 22 23 24 25 24 21 20 18 18 18 19 19 18 18 20 21 23 20 18 21 22 20 21 21 23 27 26 26 29 32 29 29
32 28 26 24 22 19 24 24 22 21 20 20 22 23 22 20 19 18 17 17 18 18 18 18 19 20 21 19 18 17 18 18 19 18 21 21 23 28 29 30 30 29 27
26 22 19 19 18 20 23 21 18 20 22 21 20 20 19 19 18 17 16 17 17 18 18 18 18 17 16 16 15 15 15 15 16 16 17 20 20 29 29 30 30 28 26
20 20 19 19 18 15 18 18 20 19 19 20 18 16 19 18 15 15 16 16 16 17 17 17 14 13 13 14 14 13 13 13 14 15 15 17 19 25 29 30 29 28 26
20 20 21 19 18 20 18 18 18 22 21 20 18 17 17 16 14 15 15 15 15 16 14 14 12 11 12 13 13 12 12 12 13 13 13 16 18 18 27 28 28 27 26
22 23 23 23 22 20 20 21 22 21 20 21 20 18 16 15 14 13 15 16 16 14 14 13 11 10 12 12 11 11 11 11 11 11 11 13 16 16 15 27 27 26 25
23 23 22 20 21 23 23 22 19 17 17 16 18 20 16 15 13 10 13 15 13 13 13 12 11 11 12 12 11 11 11 10 10 10 10 11 13 13 13 15 25 26 26
22 23 24 23 23 21 20 19 17 16 16 16 15 17 15 11 8 7 10 14 12 13 11 11 12 13 10 10 9 9 9 6 8 8 9 10 10 12 12 12 15 23 25
20 21 22 22 20 19 19 17 15 15 14 13 14 13 11 10 9 11 15 11 12 11 10 11 10 9 8 8 9 9 6 5 8 7 9 7 8 9 11 12 12 14 25
20 20 19 18 18 16 14 12 14 13 14 13 12 12 12 11 12 12 11 10 9 10 10 9 8 7 8 9 5 5 6 7 7 7 6 6 7 9 9 8 10 13 17
18 17 16 15 15 12 12 16 13 12 11 10 11 12 11 11 11 10 9 8 9 9 7 6 6 8 5 4 5 7 8 6 6 6 6 6 7 7 7 7 9 10 12
16 14 13 13 13 11 12 12 10 13 13 12 10 10 10 8 8 8 8 6 7 5 4 6 3 3 4 7 6 5 6 6 7 8 9 5 4 5 6 7 8 10 11
14 12 12 12 12 12 13 12 10 10 9 9 9 7 6 7 7 5 4 3 3 4 3 1 2 3 2 2 3 3 5 8 9 7 7 7 6 6 6 7 8 9 11
14 12 12 12 12 11 10 10 8 6 7 8 6 6 7 5 4 1 -0 3 2 0 -0 0 1 1 2 3 4 5 5 6 7 8 8 7 6 6 7 8 8 8 9

GFSGL_sfc_30mbdewp_072.txt.gz
Dewpoint
50 51 50 51 52 55 55 56 57 57 57 57 57 54 53 52 50 48 46 45 45 43 42 41 40 40 40 39 40 40 38 36 34 34 31 30 29 28 28 30 33 33 34
54 55 56 56 57 56 57 58 58 56 55 56 54 53 51 49 48 46 45 44 43 42 41 40 40 40 38 39 39 39 37 36 34 33 32 30 30 30 29 28 28 29 29
57 57 58 58 58 58 58 58 55 53 55 53 51 50 48 46 45 44 44 43 42 41 41 40 39 39 39 40 39 39 38 37 35 33 32 32 31 31 30 30 29 29 28
54 56 57 57 56 57 56 55 54 53 50 49 49 47 46 44 43 43 42 41 41 40 40 40 41 41 40 39 39 37 36 34 34 33 33 32 31 31 30 29 29 28 27
52 52 51 50 50 49 49 49 48 48 47 47 45 44 43 43 43 42 42 41 40 40 41 41 40 39 39 38 36 33 31 31 31 31 31 32 31 29 28 28 27 27 26
49 48 48 48 47 47 46 45 45 45 44 44 43 42 42 42 41 41 41 41 41 39 38 37 37 31 30 29 28 27 27 26 25 26 27 26 28 29 30 29 28 29 28
48 47 47 47 46 45 44 44 43 43 43 42 42 41 41 41 40 41 41 40 38 37 33 30 28 25 27 26 25 24 24 25 27 26 25 25 27 29 30 30 31 31 30
47 46 46 45 44 43 43 43 42 42 41 41 41 40 40 40 40 40 38 37 32 29 26 25 23 22 26 24 23 21 21 20 20 20 21 22 24 25 27 27 26 26 29
46 45 44 44 43 42 42 41 40 40 40 40 40 40 38 38 39 38 34 29 26 23 22 22 22 21 23 22 22 21 22 23 24 25 25 26 27 27 27 26 24 24 23
45 44 43 43 42 41 41 40 39 39 39 39 39 34 31 31 32 29 27 23 20 18 19 20 21 21 21 21 23 24 23 23 25 25 24 24 25 26 27 27 26 25 24
44 43 42 41 40 40 40 39 39 38 37 35 32 28 27 27 26 24 22 19 18 16 17 18 20 20 20 23 24 24 22 21 22 22 21 22 22 24 26 26 26 27 26
41 40 40 40 40 39 39 39 37 33 30 29 27 25 25 24 24 23 21 21 19 17 17 19 19 20 22 23 20 18 17 21 19 19 18 18 20 21 21 25 27 27 29
40 40 40 39 39 38 36 34 32 29 27 27 26 24 22 21 21 20 19 18 19 18 19 18 19 20 22 20 17 16 18 18 17 16 15 16 17 19 21 23 27 29 31
36 35 32 27 26 26 26 27 27 25 24 26 25 24 22 20 18 18 17 18 17 18 18 18 18 20 19 17 17 16 16 16 15 15 14 15 16 17 19 21 28 28 28
26 23 22 23 23 21 20 20 22 24 24 23 23 23 21 19 18 17 17 17 17 18 18 18 18 15 14 14 15 14 14 13 13 13 13 12 13 15 17 18 18 28 27
20 20 21 20 20 18 16 20 23 22 23 22 20 19 21 20 17 17 16 16 16 17 17 15 12 11 11 13 12 12 11 11 11 12 11 11 11 13 15 15 17 28 26
21 21 22 22 21 19 20 20 19 22 22 21 20 22 20 16 16 17 15 16 16 16 13 13 10 10 11 12 11 11 10 11 11 10 10 9 10 11 12 13 15 24 26
24 24 24 24 24 24 24 23 22 22 22 23 23 18 17 17 18 16 15 17 15 15 15 12 10 11 12 11 11 10 9 10 9 7 9 8 9 9 10 11 12 13 21
25 24 24 24 24 24 24 23 23 22 21 20 21 20 18 17 14 12 14 14 13 14 12 11 11 12 10 9 8 7 7 7 5 5 7 6 9 7 7 9 11 11 12
24 24 24 23 23 22 22 21 20 20 20 19 19 18 17 12 9 9 13 12 12 11 10 11 11 10 7 7 7 7 7 4 4 5 6 7 6 5 6 8 9 9 10
22 22 22 21 20 20 19 18 18 18 17 17 15 13 12 12 11 13 13 11 11 10 10 10 9 7 6 7 8 4 3 3 4 6 6 5 4 5 6 8 8 8 10
20 19 19 18 18 16 16 17 17 16 15 14 13 14 13 12 12 12 11 10 9 9 9 7 5 6 6 5 3 3 3 4 5 4 4 5 5 5 6 4 6 7 9
17 17 17 17 17 15 13 14 12 13 13 12 12 11 11 9 9 9 8 8 8 7 5 5 4 2 2 2 3 5 5 4 4 5 5 4 5 4 3 4 5 6 7
15 14 14 14 13 14 13 12 12 11 11 10 9 9 7 7 6 5 4 3 2 3 2 -0 -1 0 1 2 2 2 3 4 5 5 7 6 4 4 4 4 5 6 7
14 13 12 12 11 11 10 10 9 8 8 8 8 6 7 5 4 1 -1 -0 1 -1 -2 -2 -2 -0 0 0 0 1 2 4 5 6 5 5 5 4 4 4 5 6 7
11 10 10 9 8 8 7 6 5 5 5 6 6 4 3 1 -0 -1 0 -0 -2 -2 -2 -2 -1 -1 -1 1 1 2 2 2 3 3 4 4 4 3 4 4 5 7 7

GFSGL_sfc_30mbdewp_075.txt.gz
Dewpoint
49 50 51 51 51 53 54 54 53 55 56 56 56 56 55 53 52 51 50 48 48 46 45 45 44 42 41 41 40 39 39 38 37 36 34 33 31 30 29 30 31 33 35
53 52 52 52 51 52 54 55 56 56 57 57 57 57 55 53 52 50 48 47 46 45 44 43 42 41 40 40 40 39 39 38 36 35 34 33 31 31 31 30 30 30 31
53 53 53 54 53 54 55 56 57 57 57 57 56 55 54 52 50 48 47 46 45 44 43 42 41 40 39 40 40 39 39 38 37 35 34 33 32 32 31 31 31 31 31
53 53 54 54 56 56 56 57 57 58 57 54 54 53 50 48 47 46 45 44 43 42 42 41 40 40 40 40 40 39 37 36 34 32 32 32 32 32 31 31 30 31 30
54 54 55 55 55 56 56 56 56 54 52 51 49 47 46 45 45 44 43 42 42 41 41 41 42 41 38 37 37 31 28 27 26 26 25 27 26 27 27 28 29 29 29
53 53 51 52 51 51 50 49 48 47 47 46 45 44 44 44 43 43 42 41 41 41 40 38 33 31 29 28 27 26 25 24 21 22 22 18 20 23 26 28 28 26 21
51 49 49 49 48 47 46 46 45 45 44 43 43 43 42 42 41 41 41 40 39 38 35 31 26 26 26 25 24 22 21 21 22 20 19 20 21 22 24 25 25 24 23
49 49 48 47 45 45 45 44 43 43 42 42 42 41 41 41 41 40 39 36 32 28 26 24 23 24 24 23 21 19 21 22 22 23 22 23 23 23 25 25 25 25 25
47 47 46 45 44 44 43 42 42 41 41 41 41 41 40 40 39 37 33 29 24 22 22 22 21 21 22 22 21 22 23 23 24 24 23 23 23 25 25 26 24 24 22
46 45 45 44 43 43 41 41 41 41 41 40 36 36 37 37 36 33 29 25 21 19 19 19 20 20 21 22 24 23 22 21 21 22 21 21 21 23 24 25 26 24 23
45 44 44 43 42 42 41 40 40 39 37 32 29 29 28 29 28 26 23 21 19 17 16 16 17 20 22 24 22 21 19 19 20 18 19 19 20 20 21 22 22 23 24
43 42 41 41 40 40 39 38 36 34 32 29 26 25 25 25 24 24 22 19 18 16 15 18 19 20 22 21 18 17 17 18 17 17 16 16 15 16 17 18 20 21 23
41 40 40 39 39 38 37 34 32 31 30 27 25 23 22 21 21 21 20 19 17 18 20 19 19 20 21 19 16 16 16 16 15 14 14 13 14 14 15 17 19 20 21
39 35 33 32 31 30 30 30 29 29 28 26 24 22 21 19 18 18 18 18 18 19 19 19 19 20 17 16 16 15 14 14 13 13 12 13 12 12 13 15 16 16 17
30 29 27 26 24 22 23 24 24 25 27 26 25 23 21 20 18 19 20 20 19 19 19 18 16 15 13 14 13 12 12 11 11 11 11 11 10 9 10 12 13 15 15
26 25 24 21 19 19 19 20 23 23 24 24 24 22 22 20 21 20 17 17 17 16 16 15 12 11 11 12 11 11 10 9 8 9 8 8 8 8 9 9 11 13 13
24 23 22 21 21 21 21 22 21 24 24 24 24 23 22 18 18 17 16 17 16 16 13 13 10 10 11 11 10 9 9 9 10 8 6 7 7 7 7 7 9 10 11
25 25 25 25 25 25 24 24 24 23 23 23 24 21 20 21 21 21 21 21 18 17 16 13 10 11 11 9 8 7 7 8 8 5 5 6 6 7 5 4 6 8 9
26 25 24 24 24 24 24 23 23 22 22 22 23 23 23 21 19 19 19 16 14 14 13 11 12 11 9 8 7 6 5 5 4 2 3 4 5 6 3 4 5 7 7
24 24 23 22 22 21 21 20 20 20 19 19 19 18 17 16 14 13 14 13 13 12 11 11 11 10 7 7 6 6 4 2 3 3 3 4 4 4 3 3 4 6 6
21 21 21 20 18 18 18 18 18 17 17 16 15 15 16 14 13 13 12 11 11 10 10 9 8 6 6 6 6 3 2 1 1 2 4 4 3 2 3 4 5 3 5
19 18 18 17 16 15 17 16 15 15 14 14 14 13 12 11 10 10 10 8 8 9 8 6 5 5 4 2 1 1 1 1 1 3 2 3 3 3 3 3 2 2 4
16 16 16 15 15 15 14 13 13 12 11 10 10 9 9 7 7 7 6 5 5 4 3 2 -0 -0 -0 -0 0 1 0 1 2 3 2 2 2 3 4 2 2 2 3
14 13 13 13 11 11 10 9 9 9 9 8 7 7 7 6 5 3 -0 -1 -0 -1 -3 -3 -3 -2 -1 -1 -1 -1 1 2 2 3 3 3 2 2 2 2 2 2 3
11 10 9 8 7 5 5 4 4 4 5 5 5 4 4 2 0 -2 -2 -2 -3 -4 -4 -4 -3 -3 -2 -1 -2 -2 -1 1 2 3 3 2 2 1 1 2 2 2 2
7 6 5 4 3 3 1 1 1 1 1 1 -0 -0 -1 -2 -2 -4 -4 -3 -3 -3 -4 -3 -3 -3 -3 -3 -2 -0 -0 -1 -2 -1 0 0 -0 -0 1 1 1 2 3

GFSGL_sfc_30mbdewp_081.txt.gz
Dewpoint
51 51 52 52 52 52 52 52 52 52 52 53 53 54 54 55 56 56 56 55 54 54 52 52 51 51 48 47 47 45 45 43 42 40 38 37 37 38 36 36 36 36 35
50 50 51 51 52 52 51 51 52 52 52 52 52 53 54 55 55 55 55 54 53 52 51 51 51 47 46 45 45 43 42 42 40 39 38 37 36 37 36 36 34 32 33
50 49 49 50 50 51 50 51 52 52 52 53 53 53 53 54 55 55 55 53 52 52 51 50 48 45 44 43 43 42 40 40 39 38 37 36 35 35 34 32 31 30 28
48 48 49 49 49 49 50 51 52 53 53 53 54 54 55 55 55 54 53 52 51 50 49 48 46 45 43 42 41 41 41 39 38 37 36 34 33 32 29 26 22 19 17
49 48 48 50 50 49 50 53 54 54 54 54 54 55 55 55 54 53 52 50 48 46 45 44 44 43 42 42 41 39 39 36 33 31 29 29 28 25 21 16 17 18 19
48 49 49 49 50 51 52 54 55 54 54 55 55 54 53 52 50 50 49 47 45 43 39 38 36 35 34 34 33 32 31 29 28 26 26 23 19 15 17 19 18 17 12
49 49 50 51 50 51 53 54 54 54 53 52 51 50 48 46 45 45 45 44 42 38 35 33 31 30 29 27 25 23 22 20 20 20 17 15 16 18 21 19 18 18 18
51 51 52 53 53 51 51 51 50 48 47 46 45 44 43 41 42 41 39 37 34 32 31 30 29 28 27 23 19 19 20 21 22 21 22 21 22 22 23 22 21 21 20
52 51 51 51 50 49 48 47 45 43 43 42 42 41 38 36 35 34 33 30 28 26 26 26 24 23 26 21 19 19 19 21 22 21 21 19 19 21 22 20 19 17 17
50 50 50 50 48 46 44 42 42 41 38 38 36 36 35 33 32 31 29 27 24 22 21 23 22 20 24 24 22 19 17 18 17 14 13 14 16 17 19 18 17 16 14
47 47 46 45 44 42 42 41 38 35 33 32 31 31 31 31 31 29 27 25 22 19 17 16 20 24 24 23 20 19 18 16 14 13 12 12 13 13 12 12 12 13 14
44 43 42 42 41 41 38 36 34 33 31 29 28 27 27 27 26 25 24 23 21 19 16 17 21 23 23 20 18 19 17 15 15 13 12 11 11 10 10 9 10 11 13
41 40 39 39 38 37 36 34 32 32 30 29 27 25 24 24 23 21 20 21 21 20 20 20 21 22 20 18 17 17 16 15 14 13 12 11 9 9 9 10 10 10 11
38 37 36 35 33 33 33 33 32 31 29 28 26 23 21 19 19 22 24 25 21 19 20 19 21 20 18 17 16 15 15 14 12 12 11 10 10 9 8 8 8 8 8
35 33 31 30 29 28 28 28 29 29 29 27 25 24 23 23 23 25 24 22 22 21 20 19 17 16 14 14 14 13 12 12 11 11 11 10 9 7 7 7 7 7 7
29 28 27 26 26 26 25 25 29 29 29 28 28 26 26 25 24 19 18 19 19 18 17 16 16 15 13 13 13 13 12 12 11 10 9 8 7 5 5 6 6 6 5
27 26 26 26 26 26 25 23 23 25 25 24 24 24 21 20 21 22 22 21 20 18 17 16 15 15 14 12 12 11 10 10 10 8 6 6 5 5 4 5 5 5 4
27 27 27 26 26 26 26 26 25 24 23 22 23 23 22 21 20 19 18 17 16 16 14 14 13 13 12 11 10 9 8 7 6 5 5 5 4 4 4 4 3 4 4
25 24 24 24 24 24 24 23 23 22 21 20 19 18 19 18 17 16 15 14 13 12 12 11 11 11 10 9 8 8 7 6 5 5 4 3 4 4 3 3 3 3 3
21 22 22 22 21 21 20 19 19 18 17 16 15 15 15 14 13 12 12 12 11 9 9 8 8 7 7 6 6 6 5 4 3 2 2 3 3 3 3 3 3 3 2
20 19 19 18 18 17 17 16 16 15 14 13 12 11 11 11 10 9 8 8 7 6 6 5 5 4 3 3 2 2 2 1 1 0 0 1 2 2 2 3 3 3 3
18 17 16 15 14 14 13 13 12 11 11 10 9 7 8 8 7 6 5 4 4 4 3 2 1 1 -0 -0 -0 -0 -1 -1 -1 -0 0 1 1 1 2 2 2 2 3
15 14 12 11 10 10 10 9 9 8 7 7 6 6 5 5 4 3 2 2 1 0 -0 -1 -1 -2 -2 -2 -1 -2 -2 -2 -1 -0 -0 -0 0 1 1 2 2 2 2
10 9 8 8 7 6 6 5 5 4 4 4 4 3 2 2 1 0 -1 -1 -2 -2 -2 -2 -3 -4 -4 -4 -3 -3 -3 -2 -1 -0 -0 -0 -1 -0 1 1 1 2 2
7 5 4 4 3 2 1 1 1 1 1 1 1 0 -1 -1 -2 -2 -3 -3 -4 -4 -4 -5 -4 -5 -5 -6 -6 -5 -4 -3 -2 -1 -1 -1 -1 -1 -1 -0 0 1 1
3 2 2 1 -0 -1 -1 -1 -1 -2 -2 -3 -4 -4 -4 -5 -4 -4 -5 -5 -6 -7 -6 -6 -6 -7 -7 -7 -6 -4 -4 -4 -3 -3 -3 -2 -2 -1 -0 0 1 1 1

GFSGL_sfc_30mbdewp_084.txt.gz
Dewpoint
52 54 53 53 53 52 53 53 53 54 53 53 53 53 52 51 52 53 55 55 55 55 56 56 55 56 53 52 52 50 49 50 48 46 46 41 41 39 37 38 39 38 37
52 52 53 53 53 53 53 54 55 54 53 52 52 51 51 51 51 52 53 55 55 55 55 55 54 53 52 51 50 48 47 48 46 44 41 40 40 40 39 38 37 35 35
52 52 53 53 53 54 54 54 54 53 52 52 51 51 51 51 50 52 53 54 54 55 55 54 52 51 50 49 48 47 46 45 42 41 39 40 39 37 37 37 36 36 33
51 51 52 53 53 53 53 53 52 51 51 50 51 51 51 50 50 51 53 55 55 55 54 54 52 50 48 46 45 45 42 41 41 40 39 37 36 36 35 33 32 31 25
50 50 50 51 52 51 52 52 51 51 51 51 51 51 53 53 54 54 55 55 55 54 51 49 48 47 47 45 44 43 41 39 39 37 34 33 32 31 32 29 24 20 16
50 49 49 49 50 50 50 50 50 51 51 52 53 53 54 55 55 54 55 54 51 47 42 39 38 38 37 36 36 36 37 36 33 32 32 32 33 29 25 21 17 14 12
50 50 49 49 49 49 49 49 50 53 54 54 55 55 55 53 48 47 48 46 44 40 37 35 33 32 30 28 28 26 26 27 28 30 32 29 23 20 19 18 16 16 16
49 49 50 50 50 49 49 49 52 54 54 51 48 46 45 42 42 42 39 37 35 34 33 32 30 29 28 26 24 23 22 21 21 20 21 19 20 20 20 19 19 19 19
49 49 49 50 50 51 53 53 50 47 45 44 43 41 39 36 36 35 34 31 30 29 29 29 29 29 29 24 21 20 20 21 23 21 20 19 19 20 20 16 16 16 18
50 50 52 53 52 52 49 45 43 42 39 38 36 35 34 33 33 32 31 28 27 27 27 27 24 25 24 22 21 18 16 17 17 15 15 16 17 16 20 17 13 14 13
52 52 51 51 48 45 43 41 38 36 34 32 31 31 31 32 32 31 29 27 24 22 20 20 23 26 24 22 20 19 18 16 17 12 11 10 11 12 12 11 11 11 11
47 45 43 43 42 40 38 36 34 33 31 29 28 27 27 27 28 27 25 24 21 18 16 19 22 24 22 20 20 20 19 18 17 16 14 12 11 11 12 12 10 10 10
42 40 40 39 38 37 36 34 32 31 30 28 27 25 24 24 24 24 22 22 23 22 22 22 23 23 20 19 19 17 18 17 17 16 15 13 12 11 10 10 11 12 11
38 37 36 35 34 34 34 33 32 31 29 28 26 24 22 21 23 26 26 26 26 24 22 22 23 22 20 19 17 17 16 16 14 13 13 12 12 13 13 12 11 11 9
33 32 31 30 29 29 29 30 29 30 29 26 24 24 24 24 26 27 28 27 26 24 22 20 19 17 16 16 16 15 15 15 15 16 15 14 13 13 12 11 10 10 9
30 30 29 28 27 27 26 26 29 29 29 29 29 27 26 24 22 20 20 19 19 19 21 20 20 19 18 16 15 15 15 15 14 12 12 11 11 11 9 7 7 7 7
29 28 28 27 27 26 25 24 22 25 27 27 25 23 23 22 22 22 21 20 18 19 18 18 18 16 15 13 13 12 12 12 11 10 9 8 9 8 8 7 7 7 6
29 28 27 27 27 27 27 26 26 24 22 22 24 22 21 20 18 17 17 17 17 16 14 14 14 14 13 12 11 10 10 10 9 10 8 8 9 8 7 6 5 6 5
25 25 26 26 27 27 27 27 26 24 21 19 19 18 17 16 15 15 15 15 14 12 11 10 10 10 9 8 9 10 9 8 8 7 7 7 7 6 5 3 4 4 4
24 25 25 25 25 25 24 23 22 20 19 17 16 16 16 15 14 13 12 12 11 9 8 6 6 6 6 5 6 5 5 4 3 3 3 4 4 5 4 4 4 4 4
22 22 22 22 21 21 21 20 19 17 15 13 12 11 11 12 11 10 8 8 7 6 6 5 5 5 4 3 2 3 2 3 2 2 2 2 2 3 3 4 5 5 5
20 19 18 18 17 17 15 15 14 13 12 11 10 8 7 9 7 6 5 6 6 5 4 3 3 3 2 2 2 2 1 1 1 1 1 1 1 2 3 4 4 4 5
17 15 13 12 12 12 12 11 11 10 9 8 7 6 5 6 5 4 4 4 3 3 3 2 2 1 0 1 1 1 1 0 1 1 1 1 1 2 3 3 3 3 4
12 11 9 10 9 9 8 7 6 5 5 6 6 5 4 4 4 3 2 2 1 1 1 1 -0 -1 -1 -1 -0 0 -1 -0 1 1 1 2 1 1 2 2 2 3 3
8 7 7 6 6 5 5 4 4 4 3 3 3 3 1 2 1 2 1 0 -1 -1 -1 -1 -1 -2 -2 -3 -3 -3 -1 -1 -1 -0 0 1 1 1 1 1 2 2 3
4 4 4 4 4 3 3 3 2 2 2 1 2 2 1 0 -0 0 -1 -2 -3 -4 -3 -2 -3 -3 -3 -2 -1 -1 -1 -2 -2 -2 -1 -0 0 1 2 2 2 3 3

GFSGL_sfc_30mbdewp_087.txt.gz
Dewpoint
54 55 55 55 56 56 55 54 54 52 51 51 52 53 55 55 55 55 56 55 54 55 56 56 56 57 57 57 57 55 53 51 49 49 51 50 47 46 41 41 42 41 41
54 54 55 55 55 55 56 55 55 54 53 53 53 53 54 54 54 54 54 53 53 54 54 55 55 56 56 56 54 52 51 51 50 48 49 46 44 43 42 41 40 39 39
52 54 55 55 54 55 55 56 55 55 54 54 53 53 53 53 53 53 53 53 53 53 54 54 55 55 55 54 52 51 50 50 49 47 41 41 41 41 40 41 40 40 39
50 51 53 55 55 55 55 55 55 55 54 54 54 54 53 52 51 51 50 51 52 53 54 55 55 55 54 53 50 49 47 45 43 42 40 39 39 40 39 38 38 39 37
50 51 52 54 54 54 55 55 55 55 55 54 54 53 53 52 52 52 51 51 51 53 55 55 53 53 51 50 48 46 44 42 41 39 37 36 35 35 35 35 34 34 30
51 51 51 53 52 54 54 54 55 54 54 53 52 52 52 52 51 51 53 54 55 55 49 42 40 39 39 40 40 40 42 40 37 36 33 33 33 35 35 34 33 29 23
51 51 51 51 51 52 52 52 53 53 53 53 52 52 52 54 51 51 52 51 48 43 40 37 34 33 33 32 33 32 32 33 33 34 33 33 33 33 30 26 25 23 20
51 51 51 51 50 50 50 50 51 52 53 53 54 53 50 44 43 44 42 38 36 35 34 33 32 31 31 30 28 27 26 26 26 24 25 25 23 24 23 21 21 21 22
50 50 50 50 50 50 50 50 51 54 51 48 45 43 40 36 36 36 35 33 31 31 31 32 31 31 31 28 25 26 24 23 25 23 20 18 17 17 19 16 18 18 20
49 49 49 50 50 50 52 52 49 46 41 38 36 36 34 33 33 33 32 31 29 28 28 29 30 28 27 24 21 20 18 20 17 16 19 18 17 18 19 18 14 15 15
49 49 50 51 52 51 47 43 40 36 35 33 31 32 32 32 32 31 30 28 27 25 25 26 27 26 23 23 23 24 22 19 17 14 13 11 11 12 13 16 14 13 14
48 46 45 44 43 41 39 37 36 34 31 29 28 27 28 29 29 28 27 25 23 21 21 24 26 22 21 22 21 19 17 19 19 19 19 17 16 15 15 14 15 14 14
41 40 39 38 38 37 36 34 32 31 30 28 26 25 25 26 26 26 25 25 25 24 25 25 24 22 21 20 19 16 19 19 19 18 17 15 14 14 13 13 15 16 16
35 34 34 33 33 34 33 33 31 30 28 27 25 23 23 25 26 27 27 27 25 24 26 27 25 23 20 19 19 18 18 18 16 17 18 17 16 15 15 16 17 16 14
33 32 30 30 29 28 28 29 28 29 28 25 25 25 25 24 27 29 30 29 27 26 23 22 21 20 21 20 20 21 19 18 16 18 16 13 13 12 13 14 14 14 13
30 30 29 28 27 26 25 26 28 28 28 28 27 26 26 26 26 24 21 20 20 22 23 23 23 21 19 16 17 16 16 16 17 12 12 12 12 12 12 11 11 12 13
29 29 28 27 26 24 23 22 22 25 27 27 26 26 26 26 25 21 19 18 19 20 20 20 19 19 16 14 15 14 14 14 12 11 10 10 9 9 10 10 10 11 11
29 29 28 28 27 26 25 25 24 22 20 20 23 22 21 19 18 19 19 22 17 15 14 15 15 14 12 10 8 9 8 8 8 8 7 8 8 8 8 7 7 8 8
27 27 28 28 28 28 27 25 23 22 20 20 20 19 19 17 16 16 16 16 14 12 10 9 8 7 7 6 8 8 7 7 6 6 6 6 7 6 6 6 5 6 7
26 26 27 27 26 26 26 24 23 22 20 18 17 20 20 17 15 14 12 12 10 8 7 6 6 6 7 6 6 6 5 4 4 4 4 4 5 6 5 4 4 5 5
24 24 24 24 24 23 22 21 20 18 16 13 12 12 13 13 11 9 8 8 7 7 7 6 6 6 5 4 4 4 4 4 3 3 4 4 5 3 3 5 6 6 5
22 21 21 21 21 21 20 19 16 14 13 12 10 8 9 9 8 7 7 7 7 6 6 5 5 5 4 4 4 4 3 3 3 3 3 3 2 3 4 4 5 6 6
20 18 17 16 15 15 14 13 12 11 10 9 8 8 7 8 7 6 6 6 5 5 5 4 4 3 3 3 3 3 3 2 2 3 3 3 2 2 4 4 4 5 5
13 12 11 12 11 10 10 8 7 7 8 8 8 7 6 6 6 5 5 4 3 4 4 3 2 1 1 0 1 2 1 1 2 2 3 3 2 2 3 3 3 4 5
10 10 10 9 9 8 8 7 7 7 6 6 6 5 4 4 4 4 4 3 2 2 1 1 2 1 -0 -0 -1 0 2 2 1 1 1 1 2 2 3 3 4 4 5
7 7 8 7 7 7 6 6 5 5 5 5 5 5 4 3 3 3 3 1 -1 -1 -0 0 -0 -1 -1 0 1 2 1 -0 -0 -0 -0 0 1 1 2 3 4 5 5

GFSGL_sfc_30mbdewp_093.txt.gz
Dewpoint
55 55 55 53 52 51 51 49 50 51 51 51 52 52 52 53 54 54 54 55 55 55 56 56 56 56 55 55 55 55 55 54 52 51 52 51 51 51 51 51 51 49 48
54 54 55 55 54 52 51 51 50 51 51 50 50 51 52 51 52 54 54 54 55 55 55 56 55 56 56 56 55 55 55 55 53 51 52 51 50 50 50 49 49 47 46
53 54 55 55 55 54 53 53 51 51 50 50 49 50 50 51 53 53 53 54 55 55 55 55 55 55 54 55 55 55 55 55 54 53 52 47 45 43 43 44 44 43 43
54 54 54 54 55 55 53 53 54 53 51 50 49 49 48 49 50 54 53 53 54 55 55 55 55 54 54 54 54 54 54 54 53 51 48 42 41 41 41 41 40 42 41
54 54 53 53 53 55 55 54 53 54 53 53 51 49 48 48 48 51 53 54 54 54 54 53 49 46 47 50 53 53 53 52 47 44 40 38 37 37 37 37 37 36 37
54 54 54 54 54 55 55 56 55 55 54 53 53 51 50 50 48 47 50 53 54 53 50 44 40 39 38 38 38 39 43 44 40 39 35 35 34 35 35 34 34 33 33
52 55 54 54 54 54 55 55 56 56 56 55 54 53 53 51 50 49 50 53 53 50 46 40 37 36 36 35 34 34 33 34 35 36 34 33 32 32 32 32 32 32 31
52 52 54 55 55 55 55 54 54 55 55 56 56 55 53 47 48 48 46 43 41 38 37 36 34 34 34 33 32 31 31 31 32 32 32 32 32 32 30 27 23 22 20
52 52 52 54 55 55 55 55 55 55 55 54 50 48 46 40 40 41 42 38 34 33 33 33 33 32 33 33 29 27 25 26 29 29 29 24 19 16 13 16 15 16 16
53 53 53 54 53 54 54 54 50 50 43 40 37 37 36 36 35 36 35 33 30 29 29 30 30 30 30 29 27 25 23 22 22 22 21 21 21 21 23 22 21 19 19
44 53 54 54 54 52 49 45 41 38 35 33 32 32 33 33 33 33 33 31 29 27 27 27 28 28 27 25 26 27 26 27 25 24 22 21 20 20 20 20 20 18 17
41 41 42 44 43 43 42 39 38 36 33 31 29 28 29 31 32 32 31 30 28 26 25 26 26 24 25 26 26 26 25 25 24 23 21 18 18 18 18 19 20 20 20
37 36 36 37 39 39 37 34 33 32 31 29 27 27 27 28 29 30 29 28 26 25 26 27 27 27 27 27 26 25 24 23 22 20 17 16 16 17 17 17 16 15 14
30 30 31 31 30 31 32 33 32 30 29 27 26 25 25 26 27 28 28 27 28 27 28 27 26 26 26 26 25 23 22 20 18 17 16 16 16 14 14 12 11 11 10
28 27 27 27 27 27 27 27 27 28 29 27 26 27 25 25 27 29 28 27 27 26 26 26 25 24 22 21 21 20 17 15 15 15 14 13 12 11 11 11 10 9 9
27 26 25 24 25 25 24 25 28 27 28 27 27 27 28 28 29 29 29 29 29 27 24 21 20 20 19 17 16 15 14 14 13 12 11 11 10 10 9 8 9 8 8
26 26 25 24 23 23 22 22 21 25 27 27 27 27 27 27 27 27 26 26 25 22 19 17 16 15 15 14 13 12 12 12 11 10 10 9 9 8 8 8 8 6 5
26 25 24 23 22 21 21 20 20 19 19 20 24 25 26 26 24 23 22 20 18 17 15 14 13 12 12 12 11 10 9 9 7 9 7 6 6 8 7 7 6 5 5
25 24 24 23 23 22 21 20 19 19 18 18 18 19 21 21 20 18 16 14 13 12 11 11 11 11 10 9 8 8 6 6 6 5 5 6 5 5 4 5 5 5 5
25 25 24 22 21 20 19 18 17 17 17 17 17 16 16 13 12 12 12 11 11 11 10 10 9 9 8 8 7 6 5 5 5 5 5 3 2 3 4 4 4 5 5
23 22 22 20 19 18 17 16 15 14 14 14 15 14 12 11 11 10 10 10 9 8 8 8 7 7 7 6 5 4 3 3 5 4 4 3 2 1 3 4 4 4 4
21 21 21 20 19 18 16 14 13 12 12 11 11 11 11 10 10 9 8 8 7 7 6 5 5 6 4 3 3 3 4 3 3 2 1 1 2 2 2 2 1 2 3
18 17 16 15 16 15 14 13 13 12 11 11 11 10 9 8 7 6 5 5 6 4 2 2 3 2 1 1 1 0 1 2 3 2 1 -0 -0 -1 -1 0 1 1 1
16 15 13 13 12 11 11 11 11 10 9 8 7 7 7 6 5 3 2 1 0 -0 -0 2 4 1 1 -1 -1 -1 1 3 1 -0 -2 -3 -2 -1 -0 -1 -1 -1 0
13 13 12 11 11 10 9 8 8 8 7 7 6 7 7 6 4 2 -1 -2 -2 -1 1 1 0 -1 -1 -1 0 3 2 -0 -2 -2 -1 -1 -1 -2 -2 -1 -0 0 1
11 11 11 10 9 8 7 6 6 6 5 4 5 5 3 2 3 2 -2 -2 -2 -2 -2 -2 -2 -1 1 2 4 2 -1 1 2 2 1 1 -1 -2 -1 -1 -2 -2 -1

GFSGL_sfc_30mbdewp_096.txt.gz
Dewpoint
54 53 51 50 51 51 49 49 49 49 49 52 51 52 52 52 53 52 52 53 54 54 54 54 53 54 54 54 54 54 54 53 52 51 51 51 51 51 52 53 53 51 50
55 54 52 51 51 51 50 49 50 49 50 50 51 50 51 51 52 53 53 53 53 53 54 55 54 55 54 54 54 54 54 54 53 51 51 51 50 50 50 51 51 51 49
55 55 54 53 51 51 51 50 49 51 50 51 50 50 49 50 51 52 52 53 54 54 54 54 54 54 54 54 54 54 54 54 53 53 52 50 47 44 44 44 44 44 45
53 54 54 55 54 52 51 51 50 50 50 50 50 50 49 50 50 50 52 53 54 54 54 54 54 54 54 53 54 54 54 54 53 53 52 46 43 41 41 41 41 40 41
54 52 52 54 55 55 53 52 52 51 51 50 49 49 49 49 49 50 51 50 52 53 53 54 54 53 49 50 53 53 53 53 53 50 44 39 38 37 38 37 36 36 38
52 51 52 52 54 55 54 53 53 53 52 51 50 49 48 48 47 47 49 53 53 53 53 48 43 40 39 39 40 39 42 49 47 42 38 37 34 34 34 34 34 33 33
53 53 53 53 52 53 55 54 53 53 53 53 52 51 50 49 47 46 46 49 52 52 51 45 40 37 36 35 35 34 34 34 36 38 35 33 32 32 32 31 31 31 30
54 54 54 54 53 52 53 53 55 55 54 53 53 53 53 52 50 47 45 46 45 44 44 42 39 36 35 34 33 31 31 31 32 32 32 31 31 30 27 23 18 16 17
53 53 55 54 54 54 53 54 55 55 55 55 55 54 53 48 46 47 45 41 37 35 34 35 34 33 34 33 29 28 27 27 29 27 25 24 25 24 23 22 20 18 17
45 47 52 55 55 54 54 54 55 55 54 49 46 45 44 42 39 42 42 36 33 30 30 31 32 31 31 30 27 26 25 26 26 26 25 23 22 21 21 21 20 17 16
42 42 46 48 53 55 55 53 49 46 41 39 36 34 34 34 35 36 36 35 32 29 29 28 29 30 30 29 28 27 26 28 26 25 24 21 20 19 19 20 20 20 18
37 36 36 39 42 43 44 41 40 38 35 32 30 30 31 31 32 32 31 31 30 26 25 27 29 29 28 27 27 28 27 27 25 23 21 18 17 17 17 16 15 14 13
31 31 32 32 33 35 37 36 34 34 32 30 28 27 27 28 29 29 29 28 27 26 27 29 28 27 26 26 26 25 25 23 20 18 17 16 15 14 12 11 12 10 10
29 28 28 28 28 30 30 31 31 31 30 28 27 26 26 26 27 28 28 28 28 27 27 26 26 25 25 24 22 21 21 20 18 17 15 14 12 12 11 11 10 9 8
26 26 27 26 26 26 27 28 27 28 29 27 26 25 24 25 26 27 27 26 26 26 25 25 23 22 20 19 19 18 18 17 15 15 13 12 10 10 10 10 9 8 7
25 24 24 25 25 25 25 26 29 29 29 30 29 28 29 29 29 29 29 28 27 25 22 20 19 18 17 16 15 14 13 11 11 11 10 9 8 8 8 8 8 7 5
24 24 24 24 23 23 23 22 22 26 28 28 28 29 29 28 28 27 25 24 23 20 17 16 15 15 14 14 13 11 10 11 11 10 8 8 8 8 7 7 6 5 5
23 22 21 21 21 21 21 21 21 20 19 21 25 24 24 24 24 23 21 18 16 16 14 13 13 13 11 11 10 9 8 9 8 7 7 5 4 5 5 5 5 4 5
23 22 21 21 21 20 20 19 19 18 17 16 16 16 19 19 19 18 16 14 12 11 11 11 11 10 9 8 8 7 5 4 4 4 4 3 2 3 3 3 3 3 4
22 21 20 19 18 18 17 17 17 17 16 15 14 13 14 11 10 10 11 10 10 10 9 9 9 8 8 6 5 4 5 5 4 4 1 0 -1 1 1 2 2 2 3
21 20 19 18 17 16 15 15 15 14 13 12 12 12 11 10 9 9 8 8 8 7 7 7 6 5 4 3 4 3 2 2 1 1 0 0 -1 -0 1 0 0 1 2
20 19 19 17 16 15 14 14 13 12 11 10 10 9 9 8 7 6 6 5 5 5 5 5 4 3 3 3 2 1 1 1 0 -0 -1 -1 -2 -2 -2 -2 -1 -1 0
17 16 15 15 15 14 13 12 11 10 10 9 9 7 6 5 4 4 3 2 1 1 2 1 0 1 0 -1 -1 -1 0 2 2 -1 -3 -4 -3 -3 -3 -3 -2 -3 -2
15 14 13 12 12 11 10 9 8 7 7 6 6 5 4 2 1 0 -2 -2 -1 1 1 2 1 1 -1 -2 -2 -0 2 1 -1 -2 -3 -2 -2 -2 -3 -3 -3 -3 -3
13 12 11 10 9 9 8 7 7 6 5 5 5 5 3 2 -1 -3 -3 -2 -2 -2 -1 -2 -2 -1 -1 0 2 1 -0 -1 -1 -1 -2 -1 -2 -3 -4 -4 -3 -3 -2
10 10 9 8 7 7 6 6 5 4 4 4 3 2 2 0 -1 -3 -3 -4 -4 -4 -3 -3 -1 -0 -3 1 2 2 1 1 -1 -2 -3 -2 -3 -4 -4 -4 -4 -4 -3

GFSGL_sfc_30mbdewp_099.txt.gz
Dewpoint
52 52 50 51 50 50 50 50 49 49 50 51 52 52 52 52 52 52 51 51 52 52 53 53 53 53 53 53 53 53 53 52 50 51 50 51 51 51 52 53 53 52 52
52 52 50 51 50 50 50 50 49 49 50 50 51 51 52 52 52 51 50 50 51 52 52 53 53 53 53 53 53 53 53 53 52 50 51 50 50 49 49 50 50 51 50
52 52 51 51 51 50 50 49 50 49 49 51 51 51 51 52 52 51 51 50 50 51 52 53 53 53 53 53 53 53 53 53 53 52 52 50 48 46 46 45 45 45 45
52 52 52 51 51 51 51 50 49 50 50 49 50 50 51 51 51 51 52 51 51 52 52 52 53 53 53 53 53 52 53 53 52 52 52 52 47 43 43 43 41 40 40
53 53 52 52 52 51 51 51 50 50 50 50 49 50 50 49 50 50 51 51 52 52 53 54 54 54 53 53 53 52 52 52 52 52 51 45 42 40 41 39 38 37 36
53 53 53 54 54 53 52 51 51 50 50 50 50 50 49 49 48 47 48 49 50 51 52 53 50 49 47 46 47 47 49 52 52 51 48 42 38 36 35 36 35 34 33
54 54 53 53 54 54 54 53 52 51 51 50 50 49 49 49 48 47 47 49 50 51 50 50 46 42 40 37 35 34 34 34 36 43 40 34 32 33 33 32 32 31 30
54 53 53 52 52 53 54 54 53 53 52 52 51 50 50 49 48 46 46 47 48 48 50 50 47 40 37 36 33 31 30 29 30 30 29 28 27 28 29 27 23 21 23
50 53 54 54 53 53 53 54 54 53 53 53 53 53 51 51 49 47 46 45 42 40 39 39 40 37 35 33 31 28 27 28 30 29 28 28 28 27 28 27 24 24 22
42 43 45 49 54 54 53 53 53 54 54 54 53 50 52 52 47 48 47 43 38 34 32 33 34 33 31 30 28 27 26 26 25 25 24 24 24 24 24 24 24 21 20
38 38 39 40 44 47 54 54 54 54 50 45 40 35 36 38 37 39 42 40 35 31 29 29 30 30 30 29 29 27 26 26 25 23 22 22 22 21 20 19 18 18 16
33 34 33 34 36 39 40 39 40 40 38 34 32 31 31 32 32 33 33 32 31 28 27 28 30 30 29 28 28 27 26 25 23 21 20 19 18 17 17 16 14 12 10
29 29 29 31 32 33 34 34 33 33 32 31 30 29 29 29 29 29 29 29 28 27 28 28 28 27 26 25 25 24 23 21 20 18 16 16 16 14 14 13 12 10 9
27 27 27 28 28 30 31 32 30 29 27 27 27 26 26 27 27 28 28 28 28 27 26 25 24 22 22 21 20 20 20 20 18 16 15 15 14 12 10 9 8 7 7
25 26 26 26 27 27 28 29 29 30 29 26 26 26 24 25 27 28 27 26 25 24 23 22 21 19 18 18 18 18 17 16 15 14 12 11 9 9 9 9 8 7 6
25 25 25 25 25 26 25 26 29 30 30 30 29 28 28 28 28 28 27 27 26 24 21 18 17 17 16 15 14 13 14 13 11 10 9 9 8 8 8 7 6 5 4
21 22 22 23 23 23 23 22 21 23 25 27 28 28 28 27 26 25 24 23 22 19 16 15 14 14 14 13 12 12 11 11 10 9 9 9 7 7 6 5 5 4 3
21 21 22 21 21 20 19 18 17 16 16 17 22 23 24 24 23 22 21 18 15 15 14 13 12 12 12 11 10 9 9 9 8 7 4 3 4 4 3 3 4 2 3
21 20 20 20 20 19 18 17 16 16 15 14 15 14 17 18 18 17 16 13 12 11 11 10 10 9 9 8 6 5 5 4 3 2 2 1 -0 1 1 2 1 0 2
19 18 18 17 17 17 17 16 15 14 13 12 12 12 13 12 10 9 10 10 9 9 9 8 7 7 6 5 4 5 4 3 2 0 -2 -2 -2 0 -1 -2 -1 -1 1
19 18 17 16 16 15 15 14 13 12 10 9 9 10 9 8 7 7 7 6 6 6 6 5 5 4 4 3 3 2 1 0 -0 -1 -1 -1 -3 -3 -1 -1 -2 -1 -0
18 18 16 15 15 14 13 13 12 10 9 8 7 7 6 6 5 4 3 3 4 4 4 3 2 3 2 2 1 -1 -1 -1 -1 -1 -2 -3 -3 -3 -3 -3 -3 -4 -3
16 15 14 14 13 12 11 11 10 9 8 7 6 5 4 3 2 1 0 1 1 1 0 -0 0 0 -1 -2 -2 -0 0 1 -0 -3 -4 -4 -3 -3 -4 -4 -4 -4 -4
14 13 12 11 10 9 9 8 7 7 6 5 4 3 1 0 -1 -2 -2 -1 -0 -0 -1 -1 -1 -1 -1 -1 -1 0 1 -0 -2 -3 -3 -3 -3 -3 -4 -5 -4 -4 -5
11 10 9 9 8 7 6 6 6 5 5 4 4 1 -0 -1 -2 -3 -3 -3 -3 -4 -3 -3 -2 -1 -0 0 1 1 -1 -1 -1 -2 -3 -4 -4 -4 -5 -5 -5 -5 -4
9 8 8 7 7 6 5 4 4 4 3 2 1 0 -1 -2 -3 -4 -4 -4 -4 -4 -3 -2 -2 -4 -4 -1 1 1 0 -1 -3 -4 -6 -4 -5 -5 -6 -6 -6 -5 -4

GFSGL_sfc_30mbdewp_102.txt.gz
Dewpoint
52 51 51 51 51 51 51 51 51 53 53 53 54 53 53 53 53 53 52 52 52 52 52 50 50 52 51 52 53 53 52 52 50 51 51 51 50 50 51 52 52 52 52
52 51 50 51 51 50 51 51 50 51 53 53 53 53 54 53 53 52 52 52 51 51 51 50 50 52 50 52 52 52 52 53 51 49 51 50 50 50 50 50 50 51 50
52 51 50 50 50 50 50 50 50 50 51 52 52 52 52 52 53 52 52 52 51 51 52 52 51 52 51 53 53 53 53 52 52 52 51 51 49 48 48 46 46 45 45
51 51 50 51 50 50 50 50 50 49 50 50 51 51 52 52 52 52 52 51 51 50 50 52 52 52 52 52 52 52 52 52 52 52 51 51 50 46 46 46 43 42 40
52 52 51 51 51 51 50 49 50 49 49 50 51 51 51 51 52 52 51 51 50 50 49 51 52 52 52 53 52 53 53 52 52 51 51 51 48 43 43 42 41 37 34
52 53 52 52 51 51 51 50 49 50 50 49 49 50 50 50 50 50 51 51 51 51 50 51 51 51 52 48 46 43 44 51 51 51 51 49 45 40 37 37 36 34 33
54 54 53 53 52 51 51 51 51 50 50 50 50 49 50 50 48 48 49 50 50 51 51 51 50 47 46 40 36 34 33 32 34 43 46 38 35 34 34 33 32 31 27
54 54 54 54 54 54 53 52 51 51 51 50 50 50 50 50 48 46 46 48 48 48 49 49 48 45 42 39 35 31 30 29 29 30 29 28 28 29 30 29 28 25 25
46 48 49 53 53 53 54 54 53 52 52 52 51 50 50 50 48 47 46 46 46 46 45 46 48 44 38 36 32 28 27 28 29 29 28 28 28 28 29 28 26 25 23
39 40 41 43 47 50 53 53 54 54 53 52 52 52 51 50 49 48 46 47 45 40 36 36 38 38 35 32 30 28 25 24 24 23 23 23 22 23 22 23 24 22 22
34 34 34 35 38 40 43 51 53 54 52 44 37 33 34 34 35 37 42 47 42 34 32 30 31 32 31 30 29 27 24 24 23 22 21 20 20 19 19 20 20 20 18
30 30 31 32 33 34 36 36 37 40 37 33 32 30 30 31 33 34 34 32 32 30 29 29 30 30 29 28 27 26 24 23 21 19 18 16 16 17 17 17 18 17 16
28 28 29 29 30 31 32 32 33 32 31 29 28 27 27 29 30 31 31 31 30 29 29 28 27 26 25 24 24 23 22 20 18 16 15 15 15 16 16 14 15 12 8
27 27 28 28 28 29 29 30 30 29 28 28 27 26 26 27 27 28 27 26 24 22 22 22 22 21 20 20 19 19 19 18 16 15 14 14 14 12 10 10 9 10 9
26 26 27 27 26 26 27 28 28 29 29 27 27 27 25 25 26 27 25 23 23 22 22 21 19 18 17 16 16 16 16 15 14 13 12 11 11 10 8 8 6 5 4
24 24 25 25 24 24 23 24 28 28 29 29 28 27 27 27 26 26 25 24 23 22 19 17 16 15 14 14 13 13 13 12 12 11 11 10 9 7 6 5 5 4 4
21 23 23 22 21 22 22 20 19 22 26 26 26 25 25 24 24 23 22 21 21 18 15 14 14 13 13 13 12 11 10 10 9 9 8 7 7 5 5 4 3 3 3
20 20 20 20 19 18 17 16 15 13 13 15 21 23 23 23 22 21 19 16 14 14 13 12 12 12 11 11 10 9 8 8 6 4 3 3 4 3 3 2 2 1 2
19 19 19 18 18 17 17 16 15 14 13 13 13 13 18 18 18 16 14 12 11 10 10 9 9 9 8 6 6 5 4 3 2 1 -0 -0 -1 0 -0 -0 -1 -1 1
18 18 17 17 16 16 15 14 12 11 10 9 9 10 11 9 8 8 9 9 9 8 8 7 7 7 6 5 5 4 3 1 0 -1 -2 -2 -2 -1 -2 -2 -2 -1 -0
18 17 17 16 15 14 13 12 11 9 8 7 7 7 6 6 5 5 5 5 5 5 5 4 4 4 4 4 3 2 0 -1 -1 -1 -2 -2 -4 -3 -2 -2 -2 -2 -1
17 16 15 14 14 13 12 11 9 8 7 6 5 5 4 4 4 3 3 3 3 3 4 3 2 2 2 2 0 -1 -2 -2 -2 -2 -3 -3 -3 -3 -3 -4 -4 -4 -4
15 14 13 12 12 10 9 8 6 5 5 5 4 3 2 1 1 1 1 1 1 1 1 0 -0 -0 -1 -2 -1 -1 -0 -0 -1 -3 -3 -3 -3 -3 -5 -5 -5 -5 -4
13 12 11 10 9 8 7 6 5 4 3 2 1 1 -1 -1 -1 -1 -1 -0 -1 -2 -2 -1 -1 -0 -0 -1 -1 1 1 -1 -2 -3 -3 -3 -3 -3 -4 -5 -4 -5 -5
10 9 8 7 6 6 5 4 4 3 2 1 -0 -1 -1 -1 -2 -3 -3 -3 -3 -3 -2 -2 -2 -2 -1 -0 0 -0 -1 -1 -2 -3 -4 -4 -5 -5 -5 -5 -6 -5 -5
8 7 7 6 5 4 3 3 2 2 1 0 -0 -1 -2 -2 -4 -4 -4 -3 -3 -3 -3 -3 -3 -4 -3 -1 -0 -1 -1 -3 -4 -6 -7 -5 -5 -5 -6 -6 -6 -6 -5

GFSGL_sfc_30mbdewp_105.txt.gz
Dewpoint
53 53 53 53 53 53 53 53 53 54 54 55 55 54 54 54 53 52 51 51 51 51 51 51 51 51 51 52 52 51 51 50 48 49 52 52 52 53 53 54 54 54 54
53 52 52 52 53 53 52 53 54 54 54 54 54 54 54 53 53 51 50 49 51 51 51 51 50 51 51 51 51 51 51 52 49 48 51 50 51 53 53 53 52 51 52
53 52 51 51 52 52 52 52 53 53 54 54 54 53 53 53 52 51 51 49 49 51 51 51 50 50 51 52 52 52 52 53 53 51 50 52 53 52 51 51 50 47 44
52 51 50 51 52 52 52 52 52 52 53 53 53 53 53 53 53 52 52 51 50 50 51 51 50 50 49 50 52 51 53 53 53 52 52 52 52 52 51 51 46 43 41
52 51 50 50 51 52 51 51 51 51 52 52 53 53 53 53 53 53 52 52 52 51 52 52 52 52 51 51 51 52 52 52 52 51 51 51 51 47 48 48 46 36 32
52 52 51 51 51 51 51 51 51 51 50 51 51 52 53 53 52 52 52 52 51 51 51 51 50 51 51 50 49 49 52 52 51 51 51 50 50 49 43 42 38 34 33
53 53 52 51 51 51 52 51 50 50 50 50 50 51 51 52 50 50 50 52 51 51 51 50 50 50 49 44 39 37 35 35 36 45 49 47 43 39 37 36 35 32 26
54 54 53 53 52 51 51 51 51 50 50 50 50 50 50 51 49 49 49 52 52 52 52 52 51 51 47 43 38 34 31 31 31 32 32 30 31 31 32 31 28 24 24
41 42 44 47 51 53 52 51 52 52 51 50 51 50 50 50 49 47 47 49 50 50 51 51 51 51 45 40 36 31 29 28 29 29 28 28 28 28 30 29 27 25 22
35 36 37 38 41 42 44 52 53 53 52 52 47 40 40 46 39 45 46 47 47 46 37 37 38 45 39 37 36 30 26 25 23 22 22 22 22 23 23 24 26 24 22
32 32 33 34 35 36 38 39 43 52 42 36 33 32 33 34 36 39 42 46 42 35 33 31 32 32 32 31 30 27 24 23 22 21 20 19 19 19 20 21 22 22 18
30 30 31 31 32 33 34 35 35 35 33 31 30 29 30 31 33 35 36 36 34 32 30 30 30 29 28 27 26 25 23 22 20 18 17 16 17 17 18 18 18 17 15
29 29 29 29 30 30 31 31 31 31 30 29 28 28 27 29 29 31 31 31 30 29 28 28 27 26 24 24 23 22 21 20 17 15 14 15 16 17 18 17 15 13 10
27 27 26 27 28 29 29 29 29 29 29 28 27 26 26 26 26 25 24 24 23 23 21 21 21 21 20 20 19 19 19 19 17 15 14 15 15 14 13 13 13 11 7
26 25 25 25 25 26 27 28 27 28 28 27 27 26 24 23 24 24 24 23 23 23 23 22 20 19 17 17 16 16 17 16 14 15 13 12 11 11 10 9 6 5 5
24 24 25 24 23 23 23 24 27 27 27 27 26 25 26 26 26 24 23 23 22 21 20 19 18 17 16 15 14 13 12 12 12 11 11 10 9 7 6 6 6 5 5
23 23 22 21 21 21 20 20 20 23 26 26 26 25 25 25 25 24 22 21 19 19 19 18 17 16 15 12 11 10 9 9 9 8 8 7 6 6 5 4 5 5 4
21 21 21 21 20 19 18 18 17 17 16 17 23 24 23 22 22 20 19 18 17 16 16 15 14 12 10 9 8 7 6 6 5 4 5 6 6 5 4 3 3 5 4
20 20 20 19 19 18 18 17 17 16 16 16 16 14 16 17 16 16 15 15 13 11 10 10 10 8 7 7 8 7 7 5 5 4 4 3 5 3 3 3 3 2 3
19 18 19 19 18 17 17 16 15 14 14 13 12 13 13 12 11 11 11 11 10 8 8 7 7 7 7 7 7 6 5 5 4 3 4 4 5 4 3 3 3 4 2
19 18 17 17 17 16 15 13 12 11 10 9 9 8 8 8 8 8 8 8 7 7 7 7 7 7 7 7 6 5 4 4 3 3 3 2 3 3 3 3 3 2 1
18 17 17 16 15 14 13 12 11 9 7 7 6 5 6 7 6 6 6 6 7 6 6 6 5 5 5 5 5 5 3 3 3 3 2 2 2 2 2 2 2 2 2
16 15 14 13 12 11 9 8 8 7 6 6 5 4 5 5 4 4 4 4 4 4 4 4 3 2 3 4 4 4 3 2 2 2 2 2 2 2 1 1 1 1 1
15 14 12 11 9 8 8 7 5 4 4 4 4 3 3 3 3 3 3 3 3 3 3 3 2 2 2 3 4 4 3 3 2 1 1 1 1 0 0 -0 1 0 1
12 11 10 9 8 7 6 5 5 4 4 3 3 2 2 2 2 2 2 1 1 1 1 1 1 2 2 2 2 2 2 1 1 -0 0 -0 -1 -1 -1 -1 -0 -0 0
9 8 8 7 7 6 6 5 4 4 3 3 2 2 1 0 -0 0 -0 -1 -1 -1 -1 -0 -1 -1 0 1 1 0 -1 -2 -2 -4 -2 -1 -1 -1 -1 -1 -1 -0 -0

GFSGL_sfc_30mbdewp_108.txt.gz
Dewpoint
54 54 56 55 55 54 54 54 54 54 54 54 56 57 55 54 54 52 52 53 53 53 54 53 52 53 50 49 50 46 48 46 44 45 49 52 53 52 52 54 54 54 53
54 55 55 54 54 53 53 53 54 54 54 54 55 55 54 54 54 52 51 52 51 52 52 52 52 52 52 52 50 50 47 48 48 47 48 50 52 52 52 54 55 52 51
54 54 54 54 53 53 53 53 54 54 54 54 54 55 54 54 53 53 52 52 51 51 51 51 51 52 51 51 51 50 51 51 51 49 48 50 52 54 53 54 54 49 43
53 53 53 53 53 53 53 53 53 54 53 53 52 53 54 54 53 52 51 50 51 51 51 51 51 52 51 51 51 52 51 51 52 51 51 51 52 54 53 52 48 46 42
53 53 52 53 52 53 52 53 53 52 53 54 53 53 54 54 53 53 51 50 49 50 51 50 50 51 50 50 50 51 52 51 51 50 50 51 51 51 50 51 50 38 34
53 52 52 52 51 52 52 52 53 52 52 54 54 54 54 53 53 52 52 51 50 49 49 50 51 51 51 49 49 49 52 52 51 51 50 50 50 51 49 48 43 37 34
53 53 52 51 51 51 52 51 52 52 52 52 52 53 53 53 51 52 51 52 52 51 50 51 51 51 52 50 46 42 39 39 42 49 50 50 49 48 44 41 38 35 30
51 52 53 52 52 52 51 51 51 51 51 51 52 52 52 53 50 50 50 52 52 52 52 51 51 51 50 47 43 39 35 33 34 34 35 33 33 34 37 37 33 25 24
39 40 41 45 49 52 52 52 52 52 52 52 51 51 51 52 49 49 49 51 53 52 52 52 52 51 50 44 40 34 29 28 30 29 29 28 28 29 30 29 27 25 22
35 36 37 39 40 41 43 46 51 53 52 51 43 40 42 43 39 45 46 50 50 49 42 40 38 46 45 40 39 32 27 25 24 23 22 23 23 24 24 26 28 23 21
33 33 33 34 35 36 38 38 41 44 38 34 33 33 33 34 36 38 43 47 45 37 33 32 32 34 34 34 32 28 23 22 22 21 20 20 20 20 21 21 22 24 20
31 31 31 32 32 33 34 34 34 34 32 31 30 30 29 30 32 34 36 38 35 33 30 30 30 30 30 28 26 25 24 22 21 19 18 18 18 18 20 19 20 19 19
28 28 29 30 30 30 31 32 32 31 30 29 28 27 26 26 27 29 30 30 30 28 28 27 27 26 25 24 23 22 22 21 20 18 17 17 18 19 19 18 18 17 15
27 27 27 27 28 28 29 29 29 29 28 27 26 25 24 24 24 25 24 24 23 22 22 22 22 22 22 23 22 22 23 22 20 17 17 16 16 16 16 17 16 16 14
26 26 26 26 26 26 27 27 27 28 28 26 26 25 24 23 25 25 25 25 24 24 25 25 24 23 23 22 21 21 21 20 18 15 14 12 12 12 12 13 11 11 8
26 25 25 24 24 24 24 24 27 27 26 26 26 26 26 26 27 26 25 25 25 27 26 25 23 23 21 20 18 16 14 13 12 12 11 9 9 9 9 9 9 8 7
26 26 24 24 23 23 23 22 21 24 26 26 26 26 26 25 23 23 23 23 24 24 23 22 21 20 18 15 13 12 11 11 11 10 10 10 10 8 9 8 9 8 6
24 24 24 24 24 23 22 23 23 21 20 20 22 22 22 22 23 23 22 23 21 20 19 18 17 15 12 10 9 8 8 9 9 9 10 11 10 9 8 7 8 9 6
23 23 23 23 22 22 22 22 22 21 21 21 21 19 20 19 19 19 19 18 15 13 12 12 12 10 10 10 12 12 11 10 10 10 10 10 10 8 7 7 6 6 6
22 22 22 22 22 22 21 21 20 19 19 18 18 19 19 19 17 16 15 15 12 10 9 9 9 10 11 11 11 10 10 9 9 9 10 10 10 9 8 7 8 8 5
22 22 21 21 21 20 19 19 18 18 16 14 13 12 12 13 12 12 12 12 11 11 11 10 11 11 10 10 9 9 8 8 7 7 7 8 9 8 7 7 7 6 5
21 20 20 19 19 19 18 17 15 12 11 10 10 10 10 11 10 10 10 10 10 10 9 10 9 9 8 8 8 8 8 8 7 7 7 6 6 6 6 6 7 7 6
20 19 18 17 16 16 14 13 13 12 11 10 9 9 9 9 9 8 8 8 8 8 8 8 7 6 7 8 8 7 6 6 6 6 6 6 5 6 6 6 5 5 5
18 17 15 15 14 12 12 10 9 8 9 9 9 8 8 8 7 7 7 7 7 7 7 5 5 4 5 7 7 6 5 6 5 4 4 5 4 4 5 4 4 4 4
17 16 15 13 12 11 10 9 9 9 8 8 7 7 6 6 6 6 5 4 4 4 3 4 4 3 3 3 3 3 3 2 3 3 3 3 3 2 2 3 3 3 3
12 12 11 11 11 10 9 9 8 7 7 7 7 6 5 5 5 4 3 2 2 2 2 2 1 1 2 2 2 1 1 -0 0 -1 -0 3 3 3 3 3 2 3 3

GFSGL_sfc_30mbdewp_111.txt.gz
Dewpoint
54 55 56 56 57 57 56 55 54 55 55 55 57 57 56 55 55 54 54 55 55 55 55 54 54 55 54 54 52 50 48 47 42 44 48 53 54 54 55 56 55 55 49
55 55 55 56 57 56 55 54 54 55 54 54 56 57 56 55 54 53 53 53 53 54 54 54 54 54 53 52 53 51 47 47 46 45 46 49 52 54 53 53 53 53 45
55 55 55 55 57 55 55 54 54 54 54 54 54 56 55 54 54 53 53 52 53 53 54 54 53 53 51 51 52 52 50 51 51 48 47 49 52 54 54 55 51 46 41
55 55 55 55 56 54 54 54 54 54 53 53 53 55 55 55 54 53 53 52 53 53 54 53 53 52 52 52 51 51 52 52 52 51 50 51 51 52 53 53 48 44 41
54 55 54 55 54 54 53 54 54 53 53 53 53 53 54 54 54 53 52 52 52 52 52 53 53 52 52 52 52 52 52 52 51 51 50 50 50 52 51 52 50 39 36
54 53 54 54 54 54 53 53 53 54 53 54 53 53 53 52 53 53 52 51 51 51 51 52 51 51 51 50 51 51 52 51 50 50 50 49 50 50 51 50 46 39 38
53 53 53 53 53 53 53 53 53 53 54 53 53 53 53 53 52 51 51 52 51 50 50 51 50 50 51 50 47 46 42 40 41 49 50 49 49 47 50 47 43 39 34
49 51 53 53 52 52 52 52 52 52 52 53 54 54 53 54 51 51 50 52 52 51 50 50 51 51 51 50 45 39 34 33 34 35 34 32 33 35 37 37 34 26 26
38 40 42 47 50 51 51 52 52 52 52 52 53 53 53 48 46 50 50 52 52 52 52 51 51 51 50 48 42 35 29 28 29 29 29 29 29 30 32 32 30 29 23
33 34 36 39 42 43 44 48 50 52 50 44 40 38 38 42 37 40 46 51 50 45 41 38 38 45 48 45 41 34 29 25 24 24 24 24 24 25 25 28 29 26 22
32 33 33 34 36 37 38 39 41 39 36 34 33 31 31 32 34 38 42 49 46 38 34 33 33 36 37 36 34 31 26 24 23 22 21 21 21 21 22 23 24 26 22
32 32 31 32 32 34 34 34 34 34 32 31 29 28 28 29 31 33 35 37 35 33 30 30 31 31 30 29 27 26 24 23 22 21 21 20 20 20 21 22 23 23 24
30 29 29 30 30 30 31 31 31 31 30 28 27 25 25 25 26 29 29 29 28 27 27 27 26 26 25 24 24 24 23 22 21 20 20 20 21 21 19 18 17 16 16
27 28 27 27 27 28 28 28 28 28 27 26 25 24 25 25 25 25 24 24 24 23 24 24 24 23 23 24 25 24 24 24 23 21 20 21 19 16 15 15 15 13 11
26 26 25 26 25 25 26 26 26 27 27 26 26 26 24 24 26 26 25 25 25 25 26 26 25 24 23 23 24 24 24 22 21 19 17 14 12 12 12 13 13 10 8
26 25 26 25 25 24 23 24 27 28 28 28 27 26 27 28 27 27 28 29 30 29 27 26 25 24 23 21 20 18 17 16 14 13 12 11 11 12 12 12 12 11 9
27 26 26 25 26 25 25 23 21 23 25 26 26 26 26 26 26 26 26 26 25 25 24 24 23 22 20 18 17 16 14 13 13 14 14 13 12 11 12 12 12 10 8
26 26 26 26 26 26 26 25 24 22 21 21 24 24 25 26 26 25 25 24 23 23 22 21 20 17 15 13 12 12 12 13 13 13 14 14 13 12 11 11 12 12 8
25 25 26 26 26 26 26 26 25 24 24 23 23 24 24 22 21 20 21 20 18 16 15 15 14 13 14 14 15 15 15 14 14 14 13 13 13 11 10 9 7 7 9
24 26 25 25 24 24 24 22 22 21 19 19 20 23 23 21 20 19 19 17 15 13 12 12 13 13 13 13 14 13 13 13 12 12 13 14 13 12 10 10 11 10 7
25 24 24 22 22 22 21 21 20 19 17 16 15 16 16 16 15 15 15 15 14 13 13 13 13 13 13 13 12 12 12 11 11 11 11 11 12 10 10 9 9 8 6
24 23 23 22 22 21 20 19 17 14 13 12 12 13 14 14 13 12 12 13 13 13 13 13 12 11 12 11 11 11 11 11 10 10 9 9 9 9 9 8 9 9 8
24 23 22 21 20 19 18 17 16 15 13 13 12 12 12 12 12 11 11 11 10 11 11 10 10 9 10 11 11 10 9 9 9 9 9 8 8 9 8 8 7 7 7
21 20 18 18 18 16 14 13 12 12 12 13 12 11 11 10 10 9 10 10 10 10 9 7 7 8 9 10 9 8 8 9 7 6 7 7 7 6 6 6 5 5 6
20 19 18 16 15 14 13 12 12 12 12 11 11 10 9 9 9 8 7 7 7 6 6 7 6 5 4 3 4 3 3 2 2 3 6 5 5 4 5 4 5 4 5
14 14 14 14 13 13 12 12 11 11 10 10 10 9 9 8 8 7 6 5 4 4 5 4 3 3 4 4 2 1 1 0 1 -0 0 4 4 4 5 5 4 4 4

GFSGL_sfc_30mbdewp_114.txt.gz
Dewpoint
47 52 56 56 57 59 59 59 57 56 56 59 58 58 58 57 57 56 56 55 55 55 55 55 54 55 55 55 55 53 51 50 44 49 51 54 54 55 55 56 56 50 47
45 53 56 57 57 58 59 58 57 56 57 58 58 57 56 56 56 55 55 55 54 54 54 54 55 55 54 54 54 53 52 51 47 46 50 51 52 54 54 53 55 48 44
44 52 56 56 56 57 59 56 56 55 55 54 57 57 56 55 55 55 54 54 55 55 54 54 54 54 54 54 53 53 52 52 51 47 47 50 51 54 54 53 45 41 40
42 51 55 55 56 56 57 55 55 55 53 53 57 56 55 55 54 54 54 53 54 54 55 55 54 54 53 53 53 52 52 51 52 50 50 50 51 53 53 51 47 41 39
40 46 55 55 56 56 55 54 55 55 54 53 54 55 55 55 54 54 53 53 52 53 54 54 54 54 53 53 52 52 52 51 51 50 50 50 51 51 50 51 48 40 36
40 46 55 55 56 56 55 55 55 55 54 53 52 55 55 54 53 53 53 52 52 52 52 53 53 52 52 52 52 52 52 51 50 50 49 49 49 50 50 50 45 39 38
41 51 54 55 55 55 55 54 54 54 54 53 52 52 53 52 52 52 52 52 51 52 52 52 52 52 51 51 48 44 42 43 46 50 49 49 49 49 49 49 46 42 37
35 39 49 54 54 55 55 54 54 54 54 54 54 53 53 51 51 50 51 53 51 51 51 51 51 50 51 49 44 38 35 34 36 37 38 35 34 36 38 38 37 28 27
32 33 36 42 53 54 53 53 54 54 54 53 50 48 47 41 43 49 50 52 52 51 50 45 50 50 50 46 42 36 31 29 31 31 30 30 30 31 33 34 32 31 26
31 32 34 36 41 47 49 51 51 49 43 38 36 35 36 37 37 42 48 52 47 41 38 38 39 46 47 44 42 36 31 26 26 25 24 24 25 26 27 29 31 31 24
31 32 32 33 35 36 38 40 41 38 34 32 30 30 31 32 34 40 44 48 41 36 34 32 32 36 39 38 37 34 28 25 24 23 23 23 22 22 23 24 25 26 23
30 30 30 32 32 33 33 34 34 33 31 29 28 26 27 29 31 32 35 36 34 31 29 30 30 31 30 30 28 27 26 25 24 22 21 20 20 20 21 22 23 23 24
29 28 28 29 31 31 30 31 30 30 29 27 26 25 24 25 26 28 29 29 28 27 27 28 27 26 26 26 26 25 24 23 22 20 19 19 20 22 21 19 17 16 16
28 27 27 26 27 28 28 29 28 28 26 26 25 24 24 25 25 25 25 26 25 24 24 25 25 25 24 24 24 25 24 23 22 21 21 22 23 19 17 17 16 14 12
28 27 26 25 25 25 26 26 26 27 27 25 25 26 24 24 26 27 26 26 26 26 26 25 24 24 23 23 23 24 25 24 22 22 20 17 15 15 14 15 15 13 11
26 27 27 25 24 23 22 23 27 28 28 28 28 27 29 30 30 30 30 31 29 27 26 25 24 23 22 21 20 18 18 17 16 16 15 16 15 15 15 15 15 13 10
27 27 27 27 27 25 23 21 20 23 26 28 29 29 28 27 26 26 26 26 25 24 23 23 22 21 20 18 17 17 16 17 18 17 16 14 14 15 15 14 13 11 9
27 27 27 27 27 26 24 23 22 21 20 22 25 24 24 26 27 25 24 22 21 21 20 19 18 17 16 16 16 16 17 17 17 17 17 16 15 14 14 14 14 12 8
26 27 26 26 26 25 25 24 25 24 24 24 24 25 24 22 21 20 19 18 17 16 16 16 17 17 18 17 17 16 16 16 16 16 16 15 14 13 10 7 6 7 9
27 27 26 26 25 24 23 21 20 19 19 19 21 23 21 19 19 18 18 18 16 16 16 16 16 16 16 16 15 15 15 15 14 15 15 15 14 13 11 11 10 11 8
26 26 25 24 24 23 22 20 19 17 17 17 17 18 17 17 16 16 17 17 17 16 16 16 16 15 16 15 15 15 14 13 13 13 13 13 12 11 11 10 10 9 7
24 23 23 23 23 22 21 19 17 15 15 15 15 15 15 15 15 15 15 16 16 15 15 15 15 16 16 15 14 13 13 14 13 10 9 10 11 10 10 8 9 9 9
25 24 23 22 22 22 21 19 18 16 16 15 15 15 15 14 14 13 13 12 12 12 13 13 13 12 12 12 13 13 11 9 8 10 11 9 8 9 9 8 7 7 6
23 21 20 21 19 17 16 15 15 15 16 15 14 13 13 12 12 12 12 12 13 11 8 7 7 6 9 8 8 6 5 6 7 8 7 7 9 7 7 6 7 7 6
21 21 21 20 17 17 16 16 15 15 14 14 13 13 12 12 11 10 9 9 9 8 8 9 6 5 5 4 3 2 1 2 -1 1 4 7 5 4 5 4 5 5 4
18 19 18 17 17 16 15 15 15 14 14 13 13 12 11 10 9 8 8 7 6 7 6 5 4 7 4 3 1 0 -1 -1 -1 -2 -1 5 7 6 6 4 3 4 4

GFSGL_sfc_30mbdewp_117.txt.gz
Dewpoint
41 41 43 46 50 58 58 58 59 59 59 60 60 59 58 58 58 57 56 56 55 55 55 55 55 56 56 55 55 54 53 52 48 49 50 52 53 54 55 54 51 49 47
39 40 41 45 56 57 58 58 59 58 59 59 58 58 57 57 57 56 55 55 55 54 55 55 55 55 55 55 54 53 53 53 50 48 50 52 52 55 54 53 49 45 44
38 38 40 44 57 57 57 58 58 58 58 58 58 57 57 56 56 56 55 55 55 55 55 55 54 54 54 54 54 54 53 53 52 50 50 52 53 54 51 46 42 41 41
36 37 39 42 55 57 57 58 57 57 57 58 57 57 56 56 56 55 55 55 55 55 55 54 55 54 54 54 53 53 53 52 52 51 50 51 52 53 52 47 44 40 38
36 37 39 42 53 56 57 57 57 56 55 56 57 56 56 55 55 54 54 54 54 54 54 55 55 55 54 54 53 53 53 52 51 50 50 50 50 51 50 50 46 39 36
35 36 38 46 54 56 56 56 57 55 54 55 56 55 55 55 54 53 54 53 53 53 53 53 54 54 53 53 53 53 53 52 50 50 49 49 49 50 50 50 44 40 39
34 34 35 38 55 56 56 55 56 55 54 54 55 55 54 54 53 52 53 53 52 52 52 52 52 52 52 50 44 43 43 46 49 50 49 49 49 50 50 49 46 42 39
31 33 34 35 43 55 55 55 55 55 54 53 54 54 53 49 51 51 52 52 52 52 52 52 52 51 50 46 42 39 36 35 38 41 43 38 37 38 41 40 40 30 29
29 31 33 34 37 53 54 54 55 55 54 51 51 50 47 43 46 51 51 52 51 49 47 46 51 51 48 44 40 36 32 30 32 32 31 31 32 32 34 36 35 33 28
29 30 32 33 34 36 51 54 54 47 41 38 36 36 37 39 40 47 51 51 45 40 37 38 38 47 46 43 41 37 33 27 27 26 26 26 26 27 28 30 34 34 26
29 29 30 32 33 33 37 44 42 37 34 32 31 30 31 33 37 43 48 46 40 36 34 33 33 38 38 39 38 36 31 26 25 24 24 23 23 23 24 25 27 30 26
28 27 28 30 32 32 32 33 34 33 31 29 28 26 27 30 32 34 37 36 34 32 29 29 31 31 31 30 29 28 27 26 24 23 21 21 20 21 22 23 24 24 25
27 26 26 27 29 31 30 30 29 29 28 27 26 24 24 26 28 30 30 29 29 28 28 28 28 27 27 27 27 26 25 24 22 21 20 20 20 21 20 18 16 16 16
27 26 25 25 26 27 28 29 28 27 26 25 25 24 24 25 25 26 26 26 26 25 25 25 25 25 25 25 24 24 24 23 21 20 20 22 23 19 17 15 13 12 9
28 27 25 24 24 25 26 27 27 28 28 26 26 26 25 24 26 27 26 26 26 27 26 25 24 24 23 23 23 23 23 23 21 22 21 20 17 16 15 16 15 12 9
27 27 27 26 24 24 24 24 28 29 30 30 30 29 30 30 31 30 30 29 29 27 25 23 22 22 21 21 20 19 20 19 18 18 17 16 16 15 15 14 13 11 11
26 27 27 25 24 23 23 22 22 26 28 29 30 30 29 29 29 28 27 26 24 23 21 20 20 19 18 17 18 18 18 18 17 16 16 16 16 14 14 12 11 10 9
26 26 26 26 26 24 23 23 22 21 21 22 26 25 25 24 23 21 20 19 18 19 18 18 18 18 18 18 18 17 17 17 17 16 15 14 15 14 13 11 10 7 7
26 26 26 25 24 22 21 20 20 21 23 22 21 21 21 20 19 19 18 17 17 17 17 17 17 16 16 16 15 15 15 14 14 13 13 12 10 8 8 8 8 9 9
26 26 25 24 23 21 20 19 18 18 18 19 19 19 18 18 17 18 18 17 17 17 17 16 15 15 15 15 14 13 14 14 14 13 12 11 11 10 9 8 8 7 9
24 24 24 23 22 21 19 18 17 16 16 16 16 16 16 15 15 15 15 15 15 16 15 16 15 15 15 14 13 12 12 11 11 10 9 9 9 9 10 10 9 7 8
24 23 22 22 22 21 18 17 16 16 16 15 15 14 14 13 13 12 12 12 13 13 13 13 13 13 13 12 12 11 10 9 9 8 9 9 9 9 8 7 8 7 7
22 21 19 19 19 19 18 17 16 16 15 14 14 13 13 12 11 11 9 9 9 8 8 8 9 9 9 6 6 6 7 6 6 6 7 5 6 7 6 7 6 4 5
21 19 19 17 16 15 15 15 15 14 14 13 12 11 10 10 9 8 9 9 8 6 5 5 5 5 4 2 2 3 2 0 2 3 5 3 2 4 3 4 5 4 5
19 19 19 17 16 15 15 15 14 13 13 12 11 11 9 9 8 8 7 6 5 4 5 4 4 1 -0 -1 -1 -1 -1 -3 -4 -3 2 5 4 5 5 5 5 4 4
17 17 17 17 15 14 13 13 12 11 11 11 10 9 8 7 6 5 5 5 4 3 3 5 3 1 0 0 -0 -2 -3 -4 -4 -2 -0 2 2 1 1 1 1 2 3

GFSGL_sfc_30mbdewp_120.txt.gz
Dewpoint
37 38 38 39 40 44 46 51 58 60 60 60 61 61 60 59 58 58 57 57 56 56 56 55 55 56 56 55 55 54 53 52 50 52 52 53 52 53 52 51 50 49 47
37 37 38 38 40 42 45 54 58 59 60 60 61 60 59 59 58 57 56 56 56 55 55 55 55 55 55 55 54 53 53 53 51 50 52 52 53 54 52 50 48 47 45
36 36 37 38 39 41 44 57 58 58 58 60 60 59 58 58 57 57 56 56 56 55 55 55 55 55 55 55 54 53 53 53 52 50 51 52 53 52 46 44 42 42 42
35 36 36 37 39 41 44 53 58 58 58 59 58 58 57 57 56 56 56 55 55 55 55 55 55 55 54 54 54 53 53 53 52 51 51 51 52 52 49 44 42 40 39
33 34 35 36 37 40 46 52 57 58 58 58 58 57 57 56 56 56 55 55 55 54 55 55 55 55 54 55 54 53 53 52 52 50 49 50 51 50 49 47 43 38 36
31 32 33 35 36 38 42 53 57 57 58 58 57 56 55 55 55 55 55 54 54 54 53 54 55 54 54 54 54 54 53 52 51 50 50 49 50 51 50 48 40 39 40
30 30 31 33 34 37 40 53 56 56 56 57 56 55 54 54 53 53 54 54 53 53 53 53 53 53 53 52 46 46 45 49 51 52 50 50 49 50 50 48 45 43 41
29 29 30 32 33 35 38 45 56 56 55 55 55 55 54 53 52 52 52 53 52 52 52 52 52 51 49 45 42 40 37 37 41 45 49 44 45 46 49 47 45 33 31
28 28 29 30 31 34 35 38 55 55 54 54 54 52 50 48 50 51 51 52 51 49 48 47 51 50 44 43 40 36 32 30 33 33 33 33 33 35 37 39 38 36 30
28 27 28 29 30 32 34 36 54 53 46 43 41 40 43 44 45 49 51 49 45 41 39 39 41 48 42 42 40 37 35 29 28 28 27 27 28 28 30 34 36 36 28
28 26 26 28 29 32 33 33 39 38 36 34 33 33 33 36 40 46 49 46 41 37 36 35 35 41 39 39 39 37 33 27 26 26 25 24 24 25 25 27 29 32 30
27 25 25 27 28 30 31 31 32 33 32 31 30 29 29 31 34 40 42 40 36 35 30 30 32 33 33 33 32 29 28 27 26 24 24 23 22 22 23 24 25 26 27
26 25 25 26 27 28 29 29 28 29 29 30 28 26 25 27 30 31 31 31 30 29 29 29 29 29 29 28 28 27 27 25 24 22 21 20 21 22 22 21 21 19 18
27 25 25 24 26 27 28 28 27 27 26 26 26 25 25 25 26 27 27 27 27 26 26 25 25 25 25 25 25 25 24 24 22 21 21 21 21 19 16 14 13 13 14
26 25 25 25 24 25 26 27 27 29 28 27 27 27 26 25 27 28 27 26 26 26 26 25 24 24 23 23 23 23 23 23 21 22 20 18 15 13 15 16 14 11 10
25 24 24 24 24 24 25 25 28 29 29 29 29 28 29 30 30 29 29 29 28 27 24 22 21 21 21 21 21 21 21 21 21 21 20 17 16 15 14 14 14 14 13
25 25 25 24 24 23 23 22 22 24 26 27 28 28 28 27 27 27 26 26 25 23 20 20 19 20 20 20 20 20 19 19 19 18 17 17 16 15 14 13 13 12 11
25 25 24 23 22 21 21 21 22 20 19 20 24 25 25 25 25 24 24 23 20 20 19 18 18 19 19 18 17 17 17 17 16 16 15 15 14 13 11 9 8 9 10
25 24 23 22 21 20 20 20 20 20 19 19 19 19 21 22 21 20 19 18 17 17 17 17 17 17 17 16 16 15 14 14 13 12 11 10 10 9 9 9 9 10 9
24 23 22 21 20 19 18 18 17 17 16 16 15 16 16 16 15 16 16 17 17 16 16 16 16 16 15 15 15 14 14 13 12 11 9 9 9 9 8 8 8 9 9
22 22 21 20 19 18 18 17 16 15 14 14 14 14 14 13 12 12 13 13 14 14 15 15 14 14 14 13 12 11 10 9 10 10 10 9 9 9 9 8 8 8 7
22 21 21 20 20 19 18 17 16 15 14 13 13 12 12 11 10 10 9 9 10 10 12 11 10 9 9 10 9 8 7 7 8 8 9 8 8 7 8 7 6 6 5
19 18 18 18 18 17 16 16 14 13 13 12 11 10 10 9 9 8 7 7 7 7 8 8 7 5 4 4 5 5 5 5 4 4 6 6 6 6 6 4 4 6 5
18 18 17 16 15 14 14 13 13 12 11 10 9 9 8 7 7 6 6 6 5 4 4 2 2 2 2 1 1 1 -1 -0 2 2 1 3 4 3 4 4 3 3 4
17 17 15 14 13 12 12 12 11 10 10 9 8 7 7 7 5 5 4 3 3 2 1 0 -1 -2 -3 -3 -3 -4 -3 -3 -0 1 3 4 5 4 4 3 2 3 4
15 14 14 13 12 11 10 10 9 9 8 7 6 5 4 5 4 2 2 3 3 2 1 -1 -1 -1 -0 -1 -3 -5 -5 -5 -2 -2 -1 1 1 0 0 1 1 1 1

GFSGL_sfc_30mbdewp_123.txt.gz
Dewpoint
36 37 37 37 38 39 41 43 46 49 52 59 59 60 60 60 59 59 59 58 57 57 56 56 55 56 56 56 55 54 54 53 51 52 54 55 55 55 53 52 51 49 48
35 35 36 37 38 39 40 42 45 47 54 57 59 60 60 59 59 58 58 57 57 56 55 55 55 56 55 56 55 54 54 53 52 51 53 53 53 53 51 50 48 47 46
33 34 35 36 37 37 38 40 43 46 55 56 59 60 60 59 58 58 58 56 56 56 55 55 55 55 55 55 55 54 54 54 53 52 52 53 52 49 45 44 42 42 42
32 32 33 34 35 36 37 39 43 47 55 58 59 60 59 59 58 58 57 56 56 56 55 55 55 55 55 55 54 54 54 53 52 52 51 52 51 49 47 43 41 40 38
31 31 32 32 34 35 36 39 41 46 54 58 59 59 59 58 57 57 56 56 55 55 55 55 55 55 55 55 54 53 53 52 52 51 51 50 50 48 47 45 41 38 36
30 30 31 31 32 33 35 37 40 43 54 57 58 58 57 57 56 56 56 55 55 54 54 54 55 54 54 54 54 54 53 52 51 50 50 49 50 50 48 45 38 38 39
29 29 29 30 30 32 34 36 38 41 52 56 57 57 56 56 54 54 54 55 54 54 54 54 53 53 54 53 50 51 48 49 51 51 50 50 49 51 49 45 42 41 41
28 27 28 28 29 30 33 34 36 40 48 56 56 56 56 55 53 53 53 54 54 53 53 53 53 52 52 49 45 42 39 40 42 48 52 49 49 51 50 48 43 34 32
27 26 26 27 28 29 31 33 35 38 43 55 56 55 54 51 51 51 52 52 52 51 51 51 52 51 46 45 42 38 34 32 34 34 34 34 36 38 41 43 40 39 32
26 25 25 26 27 28 30 32 34 37 47 48 45 48 50 48 48 49 51 49 46 43 41 42 44 49 43 42 41 38 37 31 31 31 31 30 30 31 33 37 40 40 31
26 25 25 26 27 28 29 31 32 34 35 36 37 35 37 41 45 48 49 47 43 40 40 39 39 43 40 40 40 39 37 30 29 28 28 27 27 26 27 28 31 35 33
27 24 24 25 26 28 28 29 30 30 32 32 32 32 32 33 40 44 46 43 39 38 34 32 34 36 36 35 34 31 29 28 28 27 26 24 24 23 24 25 27 28 29
24 24 24 24 26 26 27 27 28 29 28 28 30 30 28 29 31 32 34 34 33 31 30 30 31 30 30 29 29 28 28 28 26 25 22 21 21 22 23 24 24 24 24
24 23 23 23 24 25 25 27 27 27 27 27 26 27 26 27 26 27 28 28 28 27 26 25 25 25 25 25 25 25 25 25 24 22 21 21 22 21 21 22 21 22 20
25 24 23 23 24 24 25 25 25 27 27 26 27 27 26 26 27 28 27 26 26 26 26 25 25 24 23 23 23 24 24 23 22 22 21 20 20 19 18 18 16 15 14
24 24 23 23 23 23 23 23 25 26 27 27 28 27 26 28 28 28 27 27 27 26 23 22 21 21 21 21 21 21 22 22 22 21 21 21 20 19 17 17 16 14 13
23 23 22 22 21 21 21 21 19 22 23 24 25 26 26 26 26 26 25 25 25 23 20 20 20 20 20 20 20 20 19 21 22 21 20 20 19 18 16 15 13 12 10
23 22 21 21 21 20 20 19 19 18 17 17 20 22 24 24 24 24 24 22 19 19 18 18 17 18 18 18 18 18 18 19 18 17 16 16 15 14 13 12 11 9 8
22 22 21 20 20 19 19 18 17 16 15 15 16 17 19 20 20 20 20 18 17 16 17 16 17 16 16 16 15 15 14 14 14 13 12 12 12 11 11 11 10 10 10
21 21 20 19 19 18 17 16 15 14 13 12 12 13 15 14 13 13 14 15 14 15 15 15 15 15 15 15 15 14 13 12 11 10 9 9 10 10 10 10 10 9 10
20 21 20 19 18 18 17 16 15 13 12 11 11 12 12 11 11 10 10 10 11 12 12 12 12 12 12 12 11 11 10 11 11 10 10 9 9 9 9 9 8 8 7
19 19 19 18 17 16 15 14 13 12 11 11 11 10 10 9 9 8 8 8 8 9 9 8 7 7 7 8 9 8 8 8 9 9 9 9 9 8 8 7 5 5 5
18 17 16 16 15 14 13 12 11 10 9 8 8 8 8 7 7 6 5 6 6 5 6 6 5 4 4 4 4 5 5 5 5 7 7 7 7 5 5 5 5 4 4
16 15 15 14 13 12 11 10 10 9 7 7 6 6 5 5 4 4 4 4 3 2 2 2 1 1 1 -0 0 2 2 2 2 3 5 6 5 5 4 4 5 4 3
15 14 13 12 10 10 9 9 8 7 6 6 5 5 5 4 3 2 2 2 1 -1 -2 -1 -1 -3 -4 -4 -4 -3 -1 -1 0 2 3 3 3 3 2 2 2 3 1
13 12 12 11 10 9 8 8 7 6 5 4 4 4 3 3 2 2 2 1 0 -1 -2 -2 -1 -2 -3 -3 -3 -5 -4 -2 -2 -2 -1 1 1 0 1 1 1 0 0